Time,TemperatureF,DewpointF,PressureIn,WindDirection,WindDirectionDegrees,WindSpeedMPH,WindSpeedGustMPH,Humidity,HourlyPrecipIn,Conditions,Clouds,dailyrainin,SolarRadiationWatts/m^2,SoftwareType,DateUTC
2013-09-30 00:00:00,44.4,40.5,30.54,SSE,156,9.0,11.0,86,0.00,,,0.00,0.00,VWS V14.00,2013-09-30 06:00:00,
2013-09-30 00:01:00,44.5,40.6,30.54,SSE,164,10.0,13.0,86,0.00,,,0.08,0.00,VWS V14.00,2013-09-30 06:01:00,
2013-09-30 00:02:00,44.4,40.5,30.54,SSE,156,10.0,12.0,86,0.00,,,0.00,0.00,VWS V14.00,2013-09-30 06:02:00,
2013-09-30 00:03:00,44.5,40.6,30.54,SSE,167,5.0,12.0,86,0.00,,,0.00,0.00,VWS V14.00,2013-09-30 06:03:00,
2013-09-30 00:04:00,44.5,40.6,30.54,SSE,159,6.0,12.0,86,0.00,,,0.00,0.00,VWS V14.00,2013-09-30 06:04:00,
2013-09-30 00:05:00,44.5,40.6,30.54,South,172,5.0,12.0,86,0.00,,,0.00,0.00,VWS V14.00,2013-09-30 06:05:00,
2013-09-30 00:06:00,44.5,40.6,30.54,SSE,167,10.0,13.0,86,0.00,,,0.08,0.00,VWS V14.00,2013-09-30 06:06:00,
2013-09-30 00:07:00,44.5,40.6,30.53,South,179,7.0,12.0,86,0.00,,,0.00,0.00,VWS V14.00,2013-09-30 06:07:00,
2013-09-30 00:08:00,44.5,40.6,30.53,SSW,192,9.0,13.0,86,0.00,,,0.00,0.00,VWS V14.00,2013-09-30 06:08:00,
2013-09-30 00:09:00,44.5,40.6,30.53,SSE,152,7.0,13.0,86,0.00,,,0.00,0.00,VWS V14.00,2013-09-30 06:09:00,
2013-09-30 00:10:00,44.5,40.6,30.53,SSE,165,7.0,13.0,86,0.00,,,0.00,0.00,VWS V14.00,2013-09-30 06:10:00,
2013-09-30 00:11:00,44.5,40.6,30.54,SSE,160,11.0,12.0,86,0.00,,,0.00,0.00,VWS V14.00,2013-09-30 06:11:00,
2013-09-30 00:12:00,44.5,40.6,30.53,SSE,162,7.0,13.0,86,0.00,,,0.00,0.00,VWS V14.00,2013-09-30 06:12:00,
2013-09-30 00:13:00,44.5,40.6,30.53,SSE,167,9.0,13.0,86,0.00,,,0.00,0.00,VWS V14.00,2013-09-30 06:13:00,
2013-09-30 00:14:00,44.5,40.6,30.53,South,170,9.0,13.0,86,0.00,,,0.00,0.00,VWS V14.00,2013-09-30 06:14:00,
2013-09-30 00:15:00,44.5,40.6,30.53,SSE,163,8.0,9.0,86,0.00,,,0.00,0.00,VWS V14.00,2013-09-30 06:15:00,
2013-09-30 00:16:00,44.5,40.6,30.53,SSW,192,6.0,12.0,86,0.00,,,0.00,0.00,VWS V14.00,2013-09-30 06:16:00,
2013-09-30 00:17:00,44.5,40.6,30.52,SSE,156,7.0,11.0,86,0.00,,,0.00,0.00,VWS V14.00,2013-09-30 06:17:00,
2013-09-30 00:18:00,44.5,40.6,30.52,SSE,160,6.0,11.0,86,0.00,,,0.00,0.00,VWS V14.00,2013-09-30 06:18:00,
2013-09-30 00:19:00,44.5,40.6,30.52,South,169,9.0,11.0,86,0.00,,,0.00,0.00,VWS V14.00,2013-09-30 06:19:00,
2013-09-30 00:20:00,44.6,40.7,30.52,South,174,6.0,11.0,86,0.00,,,0.00,0.00,VWS V14.00,2013-09-30 06:20:00,
2013-09-30 00:21:00,44.5,40.6,30.53,South,174,5.0,13.0,86,0.00,,,0.00,0.00,VWS V14.00,2013-09-30 06:21:00,
2013-09-30 00:22:00,44.6,40.7,30.52,SSE,161,5.0,11.0,86,0.00,,,0.00,0.00,VWS V14.00,2013-09-30 06:22:00,
2013-09-30 00:23:00,44.6,40.7,30.52,SSE,165,4.0,11.0,86,0.00,,,0.00,0.00,VWS V14.00,2013-09-30 06:23:00,
2013-09-30 00:24:00,44.6,40.7,30.52,SSE,155,11.0,11.0,86,0.00,,,0.00,0.00,VWS V14.00,2013-09-30 06:24:00,
2013-09-30 00:25:00,44.6,40.7,30.53,SSE,166,6.0,11.0,86,0.00,,,0.00,0.00,VWS V14.00,2013-09-30 06:25:00,
2013-09-30 00:26:00,44.5,40.6,30.52,SSE,164,7.0,11.0,86,0.00,,,0.00,0.00,VWS V14.00,2013-09-30 06:26:00,
2013-09-30 00:27:00,44.6,40.7,30.52,SSE,163,3.0,11.0,86,0.00,,,0.00,0.00,VWS V14.00,2013-09-30 06:27:00,
2013-09-30 00:28:00,44.6,40.7,30.52,SSE,163,5.0,11.0,86,0.00,,,0.00,0.00,VWS V14.00,2013-09-30 06:28:00,
2013-09-30 00:29:00,44.6,40.7,30.52,SSE,165,5.0,11.0,86,0.00,,,0.00,0.00,VWS V14.00,2013-09-30 06:29:00,
2013-09-30 00:30:00,44.6,40.7,30.52,SSE,165,3.0,4.0,86,0.00,,,0.00,0.00,VWS V14.00,2013-09-30 06:30:00,
2013-09-30 00:31:00,44.6,40.7,30.52,SSE,161,6.0,11.0,86,0.00,,,0.00,0.00,VWS V14.00,2013-09-30 06:31:00,
2013-09-30 00:32:00,44.7,40.8,30.52,SSE,165,2.0,5.0,86,0.00,,,0.00,0.00,VWS V14.00,2013-09-30 06:32:00,
2013-09-30 00:33:00,44.7,40.8,30.52,SSE,165,1.0,5.0,86,0.00,,,0.00,0.00,VWS V14.00,2013-09-30 06:33:00,
2013-09-30 00:34:00,44.7,40.8,30.51,SSE,165,3.0,5.0,86,0.00,,,0.00,0.00,VWS V14.00,2013-09-30 06:34:00,
2013-09-30 00:35:00,44.7,40.8,30.51,SSE,165,0.0,5.0,86,0.00,,,0.00,0.00,VWS V14.00,2013-09-30 06:35:00,
2013-09-30 00:36:00,44.6,40.7,30.52,SSE,163,3.0,11.0,86,0.00,,,0.00,0.00,VWS V14.00,2013-09-30 06:36:00,
2013-09-30 00:37:00,44.7,40.8,30.51,SSE,165,0.0,5.0,86,0.00,,,0.00,0.00,VWS V14.00,2013-09-30 06:37:00,
2013-09-30 00:38:00,44.7,40.8,30.51,SSE,165,0.0,5.0,86,0.00,,,0.00,0.00,VWS V14.00,2013-09-30 06:38:00,
2013-09-30 00:39:00,44.7,40.8,30.51,SSE,165,0.0,5.0,86,0.00,,,0.00,0.00,VWS V14.00,2013-09-30 06:39:00,
2013-09-30 00:40:00,44.6,40.7,30.51,SSE,165,0.0,5.0,86,0.00,,,0.00,0.00,VWS V14.00,2013-09-30 06:40:00,
2013-09-30 00:41:00,44.7,40.8,30.52,SSE,165,4.0,5.0,86,0.00,,,0.00,0.00,VWS V14.00,2013-09-30 06:41:00,
2013-09-30 00:42:00,44.6,41.0,30.51,SSE,165,3.0,5.0,87,0.00,,,0.00,0.00,VWS V14.00,2013-09-30 06:42:00,
2013-09-30 00:43:00,44.6,41.0,30.51,SSE,165,0.0,5.0,87,0.00,,,0.00,0.00,VWS V14.00,2013-09-30 06:43:00,
2013-09-30 00:44:00,44.6,41.0,30.51,SSE,165,0.0,5.0,87,0.00,,,0.00,0.00,VWS V14.00,2013-09-30 06:44:00,
2013-09-30 00:45:00,44.6,41.0,30.51,SSE,165,0.0,0.0,87,0.00,,,0.00,0.00,VWS V14.00,2013-09-30 06:45:00,
2013-09-30 00:46:00,44.7,40.8,30.51,SSE,165,0.0,5.0,86,0.00,,,0.00,0.00,VWS V14.00,2013-09-30 06:46:00,
2013-09-30 00:47:00,44.5,40.9,30.51,SSE,165,0.0,0.0,87,0.00,,,0.00,0.00,VWS V14.00,2013-09-30 06:47:00,
2013-09-30 00:48:00,44.5,40.9,30.52,SSE,165,0.0,0.0,87,0.00,,,0.00,0.00,VWS V14.00,2013-09-30 06:48:00,
2013-09-30 00:49:00,44.5,40.9,30.52,South,176,1.0,7.0,87,0.00,,,0.00,0.00,VWS V14.00,2013-09-30 06:49:00,
2013-09-30 00:50:00,44.4,40.8,30.52,South,173,4.0,7.0,87,0.00,,,0.00,0.00,VWS V14.00,2013-09-30 06:50:00,
2013-09-30 00:51:00,44.6,41.0,30.51,SSE,165,0.0,5.0,87,0.00,,,0.00,0.00,VWS V14.00,2013-09-30 06:51:00,
2013-09-30 00:52:00,44.4,40.8,30.51,South,184,4.0,7.0,87,0.00,,,0.00,0.00,VWS V14.00,2013-09-30 06:52:00,
2013-09-30 00:53:00,44.3,40.7,30.51,South,181,2.0,7.0,87,0.00,,,0.00,0.00,VWS V14.00,2013-09-30 06:53:00,
2013-09-30 00:54:00,44.3,40.7,30.51,South,190,5.0,7.0,87,0.00,,,0.00,0.00,VWS V14.00,2013-09-30 06:54:00,
2013-09-30 00:55:00,44.3,40.7,30.51,South,173,3.0,7.0,87,0.00,,,0.00,0.00,VWS V14.00,2013-09-30 06:55:00,
2013-09-30 00:56:00,44.5,40.9,30.51,SSE,165,0.0,0.0,87,0.00,,,0.00,0.00,VWS V14.00,2013-09-30 06:56:00,
2013-09-30 00:57:00,44.2,40.6,30.51,South,173,2.0,7.0,87,0.00,,,0.00,0.00,VWS V14.00,2013-09-30 06:57:00,
2013-09-30 00:58:00,44.2,40.6,30.51,South,172,5.0,7.0,87,0.00,,,0.00,0.00,VWS V14.00,2013-09-30 06:58:00,
2013-09-30 00:59:00,44.2,40.9,30.51,SSE,166,6.0,7.0,88,0.00,,,0.00,0.00,VWS V14.00,2013-09-30 06:59:00,
2013-09-30 01:00:00,44.2,40.9,30.51,SSE,157,4.0,5.0,88,0.00,,,0.00,0.00,VWS V14.00,2013-09-30 07:00:00,
2013-09-30 01:01:00,44.4,40.8,30.51,SSE,163,5.0,7.0,87,0.00,,,0.00,0.00,VWS V14.00,2013-09-30 07:01:00,
2013-09-30 01:02:00,44.1,40.8,30.51,SSE,167,3.0,6.0,88,0.00,,,0.00,0.00,VWS V14.00,2013-09-30 07:02:00,
2013-09-30 01:03:00,44.1,40.8,30.51,SSE,157,5.0,6.0,88,0.00,,,0.00,0.00,VWS V14.00,2013-09-30 07:03:00,
2013-09-30 01:04:00,44.1,40.8,30.51,South,169,4.0,7.0,88,0.01,,,0.01,0.00,VWS V14.00,2013-09-30 07:04:00,
2013-09-30 01:05:00,44.1,40.8,30.51,South,172,7.0,7.0,88,0.01,,,0.01,0.00,VWS V14.00,2013-09-30 07:05:00,
2013-09-30 01:06:00,44.2,40.6,30.51,South,173,2.0,7.0,87,0.00,,,0.00,0.00,VWS V14.00,2013-09-30 07:06:00,
2013-09-30 01:07:00,44.1,40.8,30.51,SSE,153,5.0,10.0,88,0.01,,,0.01,0.00,VWS V14.00,2013-09-30 07:07:00,
2013-09-30 01:08:00,44.1,40.8,30.51,SSE,163,6.0,11.0,88,0.01,,,0.01,0.00,VWS V14.00,2013-09-30 07:08:00,
2013-09-30 01:09:00,44.1,40.8,30.51,South,170,6.0,11.0,88,0.01,,,0.01,0.00,VWS V14.00,2013-09-30 07:09:00,
2013-09-30 01:10:00,44.1,40.8,30.51,SSE,155,5.0,11.0,88,0.01,,,0.01,0.00,VWS V14.00,2013-09-30 07:10:00,
2013-09-30 01:11:00,44.2,40.9,30.51,SSE,167,3.0,6.0,88,0.00,,,0.00,0.00,VWS V14.00,2013-09-30 07:11:00,
2013-09-30 01:12:00,44.1,40.8,30.51,SSE,161,6.0,11.0,88,0.01,,,0.01,0.00,VWS V14.00,2013-09-30 07:12:00,
2013-09-30 01:13:00,44.1,40.8,30.51,SSE,159,7.0,11.0,88,0.01,,,0.01,0.00,VWS V14.00,2013-09-30 07:13:00,
2013-09-30 01:14:00,44.1,40.8,30.50,South,188,6.0,11.0,88,0.01,,,0.01,0.00,VWS V14.00,2013-09-30 07:14:00,
2013-09-30 01:15:00,44.0,40.7,30.50,South,175,5.0,7.0,88,0.01,,,0.01,0.00,VWS V14.00,2013-09-30 07:15:00,
2013-09-30 01:16:00,44.1,40.8,30.51,South,184,4.0,10.0,88,0.01,,,0.01,0.00,VWS V14.00,2013-09-30 07:16:00,
2013-09-30 01:17:00,44.0,41.0,30.50,SSE,155,9.0,13.0,89,0.01,,,0.01,0.00,VWS V14.00,2013-09-30 07:17:00,
2013-09-30 01:18:00,44.1,41.1,30.50,SSE,161,6.0,13.0,89,0.01,,,0.01,0.00,VWS V14.00,2013-09-30 07:18:00,
2013-09-30 01:19:00,44.1,41.1,30.50,South,176,5.0,13.0,89,0.01,,,0.01,0.00,VWS V14.00,2013-09-30 07:19:00,
2013-09-30 01:20:00,44.1,41.1,30.50,SSE,166,6.0,13.0,89,0.01,,,0.01,0.00,VWS V14.00,2013-09-30 07:20:00,
2013-09-30 01:21:00,44.0,40.7,30.51,South,180,9.0,11.0,88,0.01,,,0.01,0.00,VWS V14.00,2013-09-30 07:21:00,
2013-09-30 01:22:00,44.0,41.0,30.51,South,169,4.0,13.0,89,0.01,,,0.01,0.00,VWS V14.00,2013-09-30 07:22:00,
2013-09-30 01:23:00,44.1,41.1,30.50,SSE,165,4.0,13.0,89,0.01,,,0.01,0.00,VWS V14.00,2013-09-30 07:23:00,
2013-09-30 01:24:00,44.1,41.1,30.50,SSE,157,6.0,13.0,89,0.01,,,0.01,0.00,VWS V14.00,2013-09-30 07:24:00,
2013-09-30 01:25:00,44.0,41.0,30.50,South,188,6.0,13.0,89,0.01,,,0.01,0.00,VWS V14.00,2013-09-30 07:25:00,
2013-09-30 01:26:00,44.0,41.0,30.50,SSE,165,6.0,13.0,89,0.01,,,0.01,0.00,VWS V14.00,2013-09-30 07:26:00,
2013-09-30 01:27:00,44.0,41.0,30.50,SSE,163,5.0,13.0,89,0.01,,,0.01,0.00,VWS V14.00,2013-09-30 07:27:00,
2013-09-30 01:28:00,44.0,41.0,30.50,SSE,160,5.0,13.0,89,0.01,,,0.01,0.00,VWS V14.00,2013-09-30 07:28:00,
2013-09-30 01:29:00,44.1,41.4,30.50,SSE,153,6.0,13.0,90,0.01,,,0.01,0.00,VWS V14.00,2013-09-30 07:29:00,
2013-09-30 01:30:00,44.0,41.3,30.50,SSE,161,5.0,6.0,90,0.01,,,0.01,0.00,VWS V14.00,2013-09-30 07:30:00,
2013-09-30 01:31:00,44.1,41.1,30.51,SSE,155,7.0,13.0,89,0.01,,,0.01,0.00,VWS V14.00,2013-09-30 07:31:00,
2013-09-30 01:32:00,44.0,41.3,30.50,SSE,158,4.0,7.0,90,0.01,,,0.01,0.00,VWS V14.00,2013-09-30 07:32:00,
2013-09-30 01:33:00,44.0,41.3,30.50,SSE,153,5.0,7.0,90,0.01,,,0.01,0.00,VWS V14.00,2013-09-30 07:33:00,
2013-09-30 01:34:00,44.0,41.3,30.50,SSE,157,5.0,7.0,90,0.01,,,0.01,0.00,VWS V14.00,2013-09-30 07:34:00,
2013-09-30 01:35:00,44.0,41.3,30.50,SSE,157,5.0,7.0,90,0.01,,,0.01,0.00,VWS V14.00,2013-09-30 07:35:00,
2013-09-30 01:36:00,44.1,41.1,30.50,South,180,5.0,13.0,89,0.01,,,0.01,0.00,VWS V14.00,2013-09-30 07:36:00,
2013-09-30 01:37:00,44.0,41.3,30.50,SSE,153,5.0,7.0,90,0.02,,,0.02,0.00,VWS V14.00,2013-09-30 07:37:00,
2013-09-30 01:38:00,44.0,41.3,30.50,SSE,157,4.0,7.0,90,0.02,,,0.02,0.00,VWS V14.00,2013-09-30 07:38:00,
2013-09-30 01:39:00,44.0,41.3,30.50,SSE,157,2.0,7.0,90,0.02,,,0.02,0.00,VWS V14.00,2013-09-30 07:39:00,
2013-09-30 01:40:00,44.0,41.3,30.50,SSE,157,3.0,7.0,90,0.02,,,0.02,0.00,VWS V14.00,2013-09-30 07:40:00,
2013-09-30 01:41:00,44.0,41.3,30.50,SSE,163,6.0,7.0,90,0.01,,,0.01,0.00,VWS V14.00,2013-09-30 07:41:00,
2013-09-30 01:42:00,44.0,41.3,30.50,SSE,162,5.0,7.0,90,0.02,,,0.02,0.00,VWS V14.00,2013-09-30 07:42:00,
2013-09-30 01:43:00,44.0,41.3,30.50,South,173,6.0,7.0,90,0.02,,,0.02,0.00,VWS V14.00,2013-09-30 07:43:00,
2013-09-30 01:44:00,44.0,41.3,30.50,South,175,4.0,7.0,90,0.02,,,0.02,0.00,VWS V14.00,2013-09-30 07:44:00,
2013-09-30 01:45:00,44.0,41.3,30.50,SSE,161,3.0,5.0,90,0.02,,,0.02,0.00,VWS V14.00,2013-09-30 07:45:00,
2013-09-30 01:46:00,44.0,41.3,30.50,SSE,152,5.0,7.0,90,0.01,,,0.01,0.00,VWS V14.00,2013-09-30 07:46:00,
2013-09-30 01:47:00,44.0,41.3,30.50,SSE,168,7.0,9.0,90,0.02,,,0.02,0.00,VWS V14.00,2013-09-30 07:47:00,
2013-09-30 01:48:00,44.0,41.3,30.50,South,170,5.0,9.0,90,0.02,,,0.02,0.00,VWS V14.00,2013-09-30 07:48:00,
2013-09-30 01:49:00,44.0,41.3,30.50,SSE,162,5.0,9.0,90,0.02,,,0.02,0.00,VWS V14.00,2013-09-30 07:49:00,
2013-09-30 01:50:00,44.0,41.3,30.50,SSE,165,6.0,9.0,90,0.02,,,0.02,0.00,VWS V14.00,2013-09-30 07:50:00,
2013-09-30 01:51:00,44.0,41.3,30.50,SSE,159,5.0,7.0,90,0.02,,,0.02,0.00,VWS V14.00,2013-09-30 07:51:00,
2013-09-30 01:52:00,44.0,41.5,30.50,South,173,6.0,10.0,91,0.02,,,0.02,0.00,VWS V14.00,2013-09-30 07:52:00,
2013-09-30 01:53:00,44.0,41.5,30.49,SSE,166,6.0,10.0,91,0.02,,,0.02,0.00,VWS V14.00,2013-09-30 07:53:00,
2013-09-30 01:54:00,44.0,41.5,30.49,SSE,155,7.0,11.0,91,0.02,,,0.02,0.00,VWS V14.00,2013-09-30 07:54:00,
2013-09-30 01:55:00,44.0,41.5,30.49,SSE,162,7.0,11.0,91,0.02,,,0.02,0.00,VWS V14.00,2013-09-30 07:55:00,
2013-09-30 01:56:00,44.0,41.3,30.50,SSE,163,9.0,9.0,90,0.02,,,0.02,0.00,VWS V14.00,2013-09-30 07:56:00,
2013-09-30 01:57:00,44.0,41.5,30.49,SSE,161,5.0,12.0,91,0.02,,,0.02,0.00,VWS V14.00,2013-09-30 07:57:00,
2013-09-30 01:58:00,44.0,41.5,30.49,SSE,160,6.0,12.0,91,0.02,,,0.02,0.00,VWS V14.00,2013-09-30 07:58:00,
2013-09-30 01:59:00,44.1,41.7,30.49,SSE,163,5.0,12.0,91,0.02,,,0.02,0.00,VWS V14.00,2013-09-30 07:59:00,
2013-09-30 02:00:00,44.1,41.7,30.49,SSE,163,6.0,7.0,91,0.02,,,0.02,0.00,VWS V14.00,2013-09-30 08:00:00,
2013-09-30 02:01:00,44.0,41.5,30.50,SSE,164,4.0,10.0,91,0.02,,,0.02,0.00,VWS V14.00,2013-09-30 08:01:00,
2013-09-30 02:02:00,44.1,41.7,30.49,SSE,162,7.0,10.0,91,0.02,,,0.02,0.00,VWS V14.00,2013-09-30 08:02:00,
2013-09-30 02:03:00,44.1,41.7,30.49,SSE,161,6.0,10.0,91,0.02,,,0.02,0.00,VWS V14.00,2013-09-30 08:03:00,
2013-09-30 02:04:00,44.1,41.7,30.49,SSE,159,6.0,10.0,91,0.02,,,0.02,0.00,VWS V14.00,2013-09-30 08:04:00,
2013-09-30 02:05:00,44.1,41.7,30.49,SSE,164,5.0,10.0,91,0.02,,,0.02,0.00,VWS V14.00,2013-09-30 08:05:00,
2013-09-30 02:06:00,44.0,41.5,30.49,SSE,161,6.0,12.0,91,0.02,,,0.02,0.00,VWS V14.00,2013-09-30 08:06:00,
2013-09-30 02:07:00,44.1,41.7,30.49,SSE,162,6.0,10.0,91,0.02,,,0.02,0.00,VWS V14.00,2013-09-30 08:07:00,
2013-09-30 02:08:00,44.1,41.7,30.49,SSE,158,5.0,10.0,91,0.02,,,0.02,0.00,VWS V14.00,2013-09-30 08:08:00,
2013-09-30 02:09:00,44.1,41.7,30.49,SSE,161,5.0,10.0,91,0.02,,,0.02,0.00,VWS V14.00,2013-09-30 08:09:00,
2013-09-30 02:10:00,44.1,41.7,30.49,SSE,161,6.0,10.0,91,0.02,,,0.02,0.00,VWS V14.00,2013-09-30 08:10:00,
2013-09-30 02:11:00,44.1,41.7,30.49,SSE,156,8.0,9.0,91,0.02,,,0.02,0.00,VWS V14.00,2013-09-30 08:11:00,
2013-09-30 02:12:00,44.1,41.4,30.49,SSE,156,6.0,10.0,90,0.02,,,0.02,0.00,VWS V14.00,2013-09-30 08:12:00,
2013-09-30 02:13:00,44.1,41.4,30.49,SSE,157,6.0,10.0,90,0.02,,,0.02,0.00,VWS V14.00,2013-09-30 08:13:00,
2013-09-30 02:14:00,44.1,41.4,30.49,SSE,157,4.0,10.0,90,0.02,,,0.02,0.00,VWS V14.00,2013-09-30 08:14:00,
2013-09-30 02:15:00,44.1,41.4,30.49,SSE,157,3.0,4.0,90,0.01,,,0.02,0.00,VWS V14.00,2013-09-30 08:15:00,
2013-09-30 02:16:00,44.1,41.7,30.49,SSE,161,7.0,10.0,91,0.02,,,0.02,0.00,VWS V14.00,2013-09-30 08:16:00,
2013-09-30 02:17:00,44.1,41.4,30.49,SSE,157,2.0,6.0,90,0.01,,,0.02,0.00,VWS V14.00,2013-09-30 08:17:00,
2013-09-30 02:18:00,44.1,41.4,30.49,SSE,157,0.0,6.0,90,0.01,,,0.02,0.00,VWS V14.00,2013-09-30 08:18:00,
2013-09-30 02:19:00,44.2,41.5,30.49,SSE,157,0.0,6.0,90,0.01,,,0.02,0.00,VWS V14.00,2013-09-30 08:19:00,
2013-09-30 02:20:00,44.1,41.4,30.49,SSE,157,0.0,6.0,90,0.01,,,0.02,0.00,VWS V14.00,2013-09-30 08:20:00,
2013-09-30 02:21:00,44.1,41.4,30.49,SSE,156,4.0,10.0,90,0.02,,,0.02,0.00,VWS V14.00,2013-09-30 08:21:00,
2013-09-30 02:22:00,44.1,41.4,30.49,SSE,157,0.0,6.0,90,0.01,,,0.02,0.00,VWS V14.00,2013-09-30 08:22:00,
2013-09-30 02:23:00,44.2,41.5,30.49,SSE,157,0.0,6.0,90,0.01,,,0.02,0.00,VWS V14.00,2013-09-30 08:23:00,
2013-09-30 02:24:00,44.2,41.5,30.49,SSE,157,5.0,6.0,90,0.02,,,0.03,0.00,VWS V14.00,2013-09-30 08:24:00,
2013-09-30 02:25:00,44.2,41.5,30.49,SSE,157,0.0,6.0,90,0.02,,,0.03,0.00,VWS V14.00,2013-09-30 08:25:00,
2013-09-30 02:26:00,44.1,41.4,30.49,SSE,157,3.0,6.0,90,0.01,,,0.02,0.00,VWS V14.00,2013-09-30 08:26:00,
2013-09-30 02:27:00,44.2,41.5,30.49,SSE,161,5.0,6.0,90,0.02,,,0.03,0.00,VWS V14.00,2013-09-30 08:27:00,
2013-09-30 02:28:00,44.2,41.5,30.49,SSE,161,4.0,6.0,90,0.02,,,0.03,0.00,VWS V14.00,2013-09-30 08:28:00,
2013-09-30 02:29:00,44.2,41.5,30.49,South,175,5.0,7.0,90,0.02,,,0.03,0.00,VWS V14.00,2013-09-30 08:29:00,
2013-09-30 02:30:00,44.2,41.5,30.49,SSE,159,6.0,6.0,90,0.02,,,0.03,0.00,VWS V14.00,2013-09-30 08:30:00,
2013-09-30 02:31:00,44.1,41.4,30.49,SSE,157,0.0,6.0,90,0.01,,,0.02,0.00,VWS V14.00,2013-09-30 08:31:00,
2013-09-30 02:32:00,44.2,41.5,30.48,SSE,165,4.0,7.0,90,0.02,,,0.03,0.00,VWS V14.00,2013-09-30 08:32:00,
2013-09-30 02:33:00,44.2,41.5,30.49,SSE,165,5.0,7.0,90,0.03,,,0.04,0.00,VWS V14.00,2013-09-30 08:33:00,
2013-09-30 02:34:00,44.2,41.5,30.48,SSE,156,9.0,9.0,90,0.03,,,0.04,0.00,VWS V14.00,2013-09-30 08:34:00,
2013-09-30 02:35:00,44.2,41.5,30.48,SSE,157,8.0,10.0,90,0.03,,,0.04,0.00,VWS V14.00,2013-09-30 08:35:00,
2013-09-30 02:36:00,44.2,41.5,30.49,SSE,159,5.0,6.0,90,0.02,,,0.03,0.00,VWS V14.00,2013-09-30 08:36:00,
2013-09-30 02:37:00,44.2,41.5,30.48,South,180,7.0,10.0,90,0.03,,,0.04,0.00,VWS V14.00,2013-09-30 08:37:00,
2013-09-30 02:38:00,44.2,41.5,30.48,SSE,161,6.0,10.0,90,0.03,,,0.04,0.00,VWS V14.00,2013-09-30 08:38:00,
2013-09-30 02:39:00,44.2,41.5,30.48,South,187,6.0,10.0,90,0.03,,,0.04,0.00,VWS V14.00,2013-09-30 08:39:00,
2013-09-30 02:40:00,44.2,41.5,30.48,SSE,165,5.0,10.0,90,0.03,,,0.04,0.00,VWS V14.00,2013-09-30 08:40:00,
2013-09-30 02:41:00,44.2,41.5,30.48,SSE,163,5.0,7.0,90,0.02,,,0.03,0.00,VWS V14.00,2013-09-30 08:41:00,
2013-09-30 02:42:00,44.2,41.5,30.48,SSW,200,4.0,10.0,90,0.03,,,0.04,0.00,VWS V14.00,2013-09-30 08:42:00,
2013-09-30 02:43:00,44.2,41.5,30.47,South,169,5.0,10.0,90,0.03,,,0.04,0.00,VWS V14.00,2013-09-30 08:43:00,
2013-09-30 02:44:00,44.2,41.5,30.47,South,186,8.0,10.0,90,0.03,,,0.04,0.00,VWS V14.00,2013-09-30 08:44:00,
2013-09-30 02:45:00,44.2,41.5,30.47,SSE,168,5.0,5.0,90,0.02,,,0.04,0.00,VWS V14.00,2013-09-30 08:45:00,
2013-09-30 02:46:00,44.2,41.5,30.48,South,178,6.0,10.0,90,0.03,,,0.04,0.00,VWS V14.00,2013-09-30 08:46:00,
2013-09-30 02:47:00,44.2,41.7,30.47,South,178,4.0,7.0,91,0.03,,,0.05,0.00,VWS V14.00,2013-09-30 08:47:00,
2013-09-30 02:48:00,44.2,41.7,30.47,South,172,4.0,7.0,91,0.03,,,0.05,0.00,VWS V14.00,2013-09-30 08:48:00,
2013-09-30 02:49:00,44.2,41.7,30.47,South,181,3.0,7.0,91,0.03,,,0.05,0.00,VWS V14.00,2013-09-30 08:49:00,
2013-09-30 02:50:00,44.2,41.7,30.47,South,169,5.0,7.0,91,0.03,,,0.05,0.00,VWS V14.00,2013-09-30 08:50:00,
2013-09-30 02:51:00,44.2,41.5,30.48,South,188,9.0,10.0,90,0.03,,,0.04,0.00,VWS V14.00,2013-09-30 08:51:00,
2013-09-30 02:52:00,44.2,41.7,30.46,SSE,161,4.0,7.0,91,0.03,,,0.05,0.00,VWS V14.00,2013-09-30 08:52:00,
2013-09-30 02:53:00,44.2,41.7,30.46,South,191,2.0,7.0,91,0.03,,,0.05,0.00,VWS V14.00,2013-09-30 08:53:00,
2013-09-30 02:54:00,44.2,41.7,30.46,SSE,162,4.0,7.0,91,0.03,,,0.05,0.00,VWS V14.00,2013-09-30 08:54:00,
2013-09-30 02:55:00,44.2,41.7,30.46,South,172,3.0,7.0,91,0.03,,,0.05,0.00,VWS V14.00,2013-09-30 08:55:00,
2013-09-30 02:56:00,44.2,41.7,30.47,South,182,6.0,7.0,91,0.03,,,0.05,0.00,VWS V14.00,2013-09-30 08:56:00,
2013-09-30 02:57:00,44.2,41.7,30.46,South,188,3.0,7.0,91,0.03,,,0.05,0.00,VWS V14.00,2013-09-30 08:57:00,
2013-09-30 02:58:00,44.2,41.7,30.46,South,179,4.0,7.0,91,0.03,,,0.05,0.00,VWS V14.00,2013-09-30 08:58:00,
2013-09-30 02:59:00,44.2,41.7,30.46,South,191,5.0,7.0,91,0.03,,,0.05,0.00,VWS V14.00,2013-09-30 08:59:00,
2013-09-30 03:00:00,44.2,41.7,30.47,South,188,3.0,4.0,91,0.03,,,0.05,0.00,VWS V14.00,2013-09-30 09:00:00,
2013-09-30 03:01:00,44.2,41.7,30.46,SSE,160,3.0,7.0,91,0.03,,,0.05,0.00,VWS V14.00,2013-09-30 09:01:00,
2013-09-30 03:02:00,44.1,41.7,30.46,SE,146,6.0,6.0,91,0.03,,,0.05,0.00,VWS V14.00,2013-09-30 09:02:00,
2013-09-30 03:03:00,44.2,41.7,30.46,SSW,192,2.0,6.0,91,0.03,,,0.05,0.00,VWS V14.00,2013-09-30 09:03:00,
2013-09-30 03:04:00,44.2,41.7,30.46,South,179,3.0,6.0,91,0.03,,,0.05,0.00,VWS V14.00,2013-09-30 09:04:00,
2013-09-30 03:05:00,44.2,41.7,30.45,SSE,159,3.0,6.0,91,0.03,,,0.05,0.00,VWS V14.00,2013-09-30 09:05:00,
2013-09-30 03:06:00,44.2,41.7,30.46,South,191,5.0,7.0,91,0.03,,,0.05,0.00,VWS V14.00,2013-09-30 09:06:00,
2013-09-30 03:07:00,44.2,41.7,30.45,SSE,160,4.0,6.0,91,0.03,,,0.05,0.00,VWS V14.00,2013-09-30 09:07:00,
2013-09-30 03:08:00,44.1,41.7,30.45,SSE,162,2.0,6.0,91,0.03,,,0.05,0.00,VWS V14.00,2013-09-30 09:08:00,
2013-09-30 03:09:00,44.1,41.7,30.45,SE,132,3.0,6.0,91,0.03,,,0.05,0.00,VWS V14.00,2013-09-30 09:09:00,
2013-09-30 03:10:00,44.1,41.7,30.45,SSE,162,4.0,6.0,91,0.03,,,0.05,0.00,VWS V14.00,2013-09-30 09:10:00,
2013-09-30 03:11:00,44.1,41.7,30.45,SSE,148,5.0,6.0,91,0.03,,,0.05,0.00,VWS V14.00,2013-09-30 09:11:00,
2013-09-30 03:12:00,44.2,41.7,30.46,SSW,194,3.0,6.0,91,0.03,,,0.05,0.00,VWS V14.00,2013-09-30 09:12:00,
2013-09-30 03:13:00,44.2,41.7,30.45,SSE,164,3.0,9.0,91,0.03,,,0.05,0.00,VWS V14.00,2013-09-30 09:13:00,
2013-09-30 03:14:00,44.1,41.7,30.45,SSE,157,9.0,10.0,91,0.03,,,0.05,0.00,VWS V14.00,2013-09-30 09:14:00,
2013-09-30 03:15:00,44.2,41.7,30.45,South,179,3.0,5.0,91,0.03,,,0.05,0.00,VWS V14.00,2013-09-30 09:15:00,
2013-09-30 03:16:00,44.2,41.7,30.44,South,187,6.0,6.0,91,0.03,,,0.05,0.00,VWS V14.00,2013-09-30 09:16:00,
2013-09-30 03:17:00,44.1,41.7,30.45,SSE,161,2.0,6.0,91,0.03,,,0.05,0.00,VWS V14.00,2013-09-30 09:17:00,
2013-09-30 03:18:00,44.2,41.7,30.44,SSW,196,3.0,10.0,91,0.03,,,0.05,0.00,VWS V14.00,2013-09-30 09:18:00,
2013-09-30 03:19:00,44.2,41.7,30.44,SSE,157,5.0,10.0,91,0.03,,,0.05,0.00,VWS V14.00,2013-09-30 09:19:00,
2013-09-30 03:20:00,44.2,41.7,30.44,South,173,4.0,10.0,91,0.03,,,0.05,0.00,VWS V14.00,2013-09-30 09:20:00,
2013-09-30 03:21:00,44.2,41.7,30.44,SSE,164,3.0,10.0,91,0.03,,,0.05,0.00,VWS V14.00,2013-09-30 09:21:00,
2013-09-30 03:22:00,44.1,41.7,30.45,South,180,4.0,9.0,91,0.03,,,0.05,0.00,VWS V14.00,2013-09-30 09:22:00,
2013-09-30 03:23:00,44.3,41.8,30.44,South,169,4.0,10.0,91,0.03,,,0.05,0.00,VWS V14.00,2013-09-30 09:23:00,
2013-09-30 03:24:00,44.3,41.8,30.44,SSE,165,2.0,10.0,91,0.03,,,0.05,0.00,VWS V14.00,2013-09-30 09:24:00,
2013-09-30 03:25:00,44.3,41.8,30.43,SSE,164,1.0,10.0,91,0.03,,,0.05,0.00,VWS V14.00,2013-09-30 09:25:00,
2013-09-30 03:26:00,44.2,41.7,30.43,South,180,4.0,10.0,91,0.03,,,0.05,0.00,VWS V14.00,2013-09-30 09:26:00,
2013-09-30 03:27:00,44.2,41.7,30.44,SSW,198,8.0,10.0,91,0.03,,,0.05,0.00,VWS V14.00,2013-09-30 09:27:00,
2013-09-30 03:28:00,44.3,41.8,30.43,SSE,167,3.0,10.0,91,0.03,,,0.05,0.00,VWS V14.00,2013-09-30 09:28:00,
2013-09-30 03:29:00,44.2,41.7,30.43,South,183,2.0,10.0,91,0.03,,,0.05,0.00,VWS V14.00,2013-09-30 09:29:00,
2013-09-30 03:30:00,44.3,41.8,30.43,South,184,3.0,3.0,91,0.02,,,0.05,0.00,VWS V14.00,2013-09-30 09:30:00,
2013-09-30 03:31:00,44.3,41.8,30.43,South,188,5.0,6.0,91,0.02,,,0.05,0.00,VWS V14.00,2013-09-30 09:31:00,
2013-09-30 03:32:00,44.3,41.8,30.44,SSE,152,4.0,10.0,91,0.03,,,0.05,0.00,VWS V14.00,2013-09-30 09:32:00,
2013-09-30 03:33:00,44.3,41.8,30.43,South,179,3.0,6.0,91,0.02,,,0.05,0.00,VWS V14.00,2013-09-30 09:33:00,
2013-09-30 03:34:00,44.2,41.7,30.42,South,179,3.0,6.0,91,0.02,,,0.05,0.00,VWS V14.00,2013-09-30 09:34:00,
2013-09-30 03:35:00,44.3,41.8,30.42,South,173,3.0,6.0,91,0.02,,,0.05,0.00,VWS V14.00,2013-09-30 09:35:00,
2013-09-30 03:36:00,44.2,41.7,30.42,SSE,153,4.0,7.0,91,0.02,,,0.05,0.00,VWS V14.00,2013-09-30 09:36:00,
2013-09-30 03:37:00,44.3,41.8,30.43,South,169,4.0,10.0,91,0.03,,,0.05,0.00,VWS V14.00,2013-09-30 09:37:00,
2013-09-30 03:38:00,44.2,41.7,30.42,South,172,2.0,7.0,91,0.02,,,0.05,0.00,VWS V14.00,2013-09-30 09:38:00,
2013-09-30 03:39:00,44.2,41.7,30.42,South,179,2.0,7.0,91,0.02,,,0.05,0.00,VWS V14.00,2013-09-30 09:39:00,
2013-09-30 03:40:00,44.2,41.7,30.42,SE,144,4.0,7.0,91,0.02,,,0.05,0.00,VWS V14.00,2013-09-30 09:40:00,
2013-09-30 03:41:00,44.2,41.7,30.42,SSE,160,0.0,7.0,91,0.02,,,0.05,0.00,VWS V14.00,2013-09-30 09:41:00,
2013-09-30 03:42:00,44.3,41.8,30.43,South,180,1.0,6.0,91,0.02,,,0.05,0.00,VWS V14.00,2013-09-30 09:42:00,
2013-09-30 03:43:00,44.2,41.5,30.41,SSW,194,8.0,8.0,90,0.02,,,0.05,0.00,VWS V14.00,2013-09-30 09:43:00,
2013-09-30 03:44:00,44.1,41.4,30.41,South,179,3.0,8.0,90,0.02,,,0.05,0.00,VWS V14.00,2013-09-30 09:44:00,
2013-09-30 03:45:00,44.1,41.4,30.41,South,181,3.0,4.0,90,0.01,,,0.05,0.00,VWS V14.00,2013-09-30 09:45:00,
2013-09-30 03:46:00,44.1,41.7,30.41,South,180,4.0,6.0,91,0.01,,,0.05,0.00,VWS V14.00,2013-09-30 09:46:00,
2013-09-30 03:47:00,44.2,41.7,30.42,South,172,4.0,7.0,91,0.02,,,0.05,0.00,VWS V14.00,2013-09-30 09:47:00,
2013-09-30 03:48:00,44.1,41.7,30.41,South,181,6.0,10.0,91,0.01,,,0.05,0.00,VWS V14.00,2013-09-30 09:48:00,
2013-09-30 03:49:00,44.1,41.7,30.41,SE,141,6.0,10.0,91,0.01,,,0.05,0.00,VWS V14.00,2013-09-30 09:49:00,
2013-09-30 03:50:00,44.1,41.7,30.41,SSE,161,7.0,12.0,91,0.01,,,0.05,0.00,VWS V14.00,2013-09-30 09:50:00,
2013-09-30 03:51:00,44.1,41.7,30.41,South,180,4.0,12.0,91,0.01,,,0.05,0.00,VWS V14.00,2013-09-30 09:51:00,
2013-09-30 03:52:00,44.1,41.4,30.41,South,178,3.0,7.0,90,0.02,,,0.05,0.00,VWS V14.00,2013-09-30 09:52:00,
2013-09-30 03:53:00,44.0,41.5,30.41,South,171,4.0,12.0,91,0.01,,,0.05,0.00,VWS V14.00,2013-09-30 09:53:00,
2013-09-30 03:54:00,44.0,41.5,30.40,South,171,4.0,12.0,91,0.01,,,0.05,0.00,VWS V14.00,2013-09-30 09:54:00,
2013-09-30 03:55:00,44.1,41.7,30.40,SSE,153,4.0,13.0,91,0.01,,,0.05,0.00,VWS V14.00,2013-09-30 09:55:00,
2013-09-30 03:56:00,44.1,41.7,30.40,SSE,149,8.0,13.0,91,0.01,,,0.05,0.00,VWS V14.00,2013-09-30 09:56:00,
2013-09-30 03:57:00,44.1,41.7,30.41,South,171,4.0,6.0,91,0.01,,,0.05,0.00,VWS V14.00,2013-09-30 09:57:00,
2013-09-30 03:58:00,44.1,41.7,30.40,SSE,163,4.0,13.0,91,0.01,,,0.05,0.00,VWS V14.00,2013-09-30 09:58:00,
2013-09-30 03:59:00,44.2,41.7,30.40,South,169,6.0,13.0,91,0.01,,,0.05,0.00,VWS V14.00,2013-09-30 09:59:00,
2013-09-30 04:00:00,44.2,41.7,30.41,SSE,160,8.0,9.0,91,0.00,,,0.05,0.00,VWS V14.00,2013-09-30 10:00:00,
2013-09-30 04:01:00,44.2,41.7,30.41,South,176,7.0,13.0,91,0.00,,,0.05,0.00,VWS V14.00,2013-09-30 10:01:00,
2013-09-30 04:02:00,44.0,41.5,30.41,South,172,6.0,12.0,91,0.01,,,0.05,0.00,VWS V14.00,2013-09-30 10:02:00,
2013-09-30 04:03:00,44.3,41.8,30.41,SSE,164,6.0,13.0,91,0.00,,,0.05,0.00,VWS V14.00,2013-09-30 10:03:00,
2013-09-30 04:04:00,44.3,41.8,30.41,South,179,6.0,13.0,91,0.00,,,0.05,0.00,VWS V14.00,2013-09-30 10:04:00,
2013-09-30 04:05:00,44.4,41.9,30.41,South,173,6.0,13.0,91,0.00,,,0.05,0.00,VWS V14.00,2013-09-30 10:05:00,
2013-09-30 04:06:00,44.4,41.9,30.40,SSE,155,9.0,13.0,91,0.00,,,0.05,0.00,VWS V14.00,2013-09-30 10:06:00,
2013-09-30 04:07:00,44.1,41.7,30.40,SSE,160,5.0,13.0,91,0.01,,,0.05,0.00,VWS V14.00,2013-09-30 10:07:00,
2013-09-30 04:08:00,44.5,41.8,30.39,SSE,165,6.0,13.0,90,0.00,,,0.05,0.00,VWS V14.00,2013-09-30 10:08:00,
2013-09-30 04:09:00,44.5,42.0,30.39,South,187,10.0,15.0,91,0.00,,,0.05,0.00,VWS V14.00,2013-09-30 10:09:00,
2013-09-30 04:10:00,44.5,42.0,30.39,SSE,152,7.0,15.0,91,0.00,,,0.05,0.00,VWS V14.00,2013-09-30 10:10:00,
2013-09-30 04:11:00,44.5,41.8,30.39,SSE,160,10.0,15.0,90,0.00,,,0.05,0.00,VWS V14.00,2013-09-30 10:11:00,
2013-09-30 04:12:00,44.3,41.8,30.41,SSE,157,5.0,13.0,91,0.00,,,0.05,0.00,VWS V14.00,2013-09-30 10:12:00,
2013-09-30 04:13:00,44.6,41.8,30.39,SSE,160,9.0,15.0,90,0.00,,,0.05,0.00,VWS V14.00,2013-09-30 10:13:00,
2013-09-30 04:14:00,44.6,41.8,30.39,SSE,157,12.0,15.0,90,0.00,,,0.05,0.00,VWS V14.00,2013-09-30 10:14:00,
2013-09-30 04:15:00,44.7,42.0,30.38,SSE,157,10.0,12.0,90,0.00,,,0.05,0.00,VWS V14.00,2013-09-30 10:15:00,
2013-09-30 04:16:00,44.7,42.0,30.38,SSE,160,10.0,14.0,90,0.00,,,0.05,0.00,VWS V14.00,2013-09-30 10:16:00,
2013-09-30 04:17:00,44.5,42.0,30.40,SSE,159,8.0,13.0,91,0.00,,,0.05,0.00,VWS V14.00,2013-09-30 10:17:00,
2013-09-30 04:18:00,44.7,42.0,30.38,SSE,166,8.0,14.0,90,0.00,,,0.05,0.00,VWS V14.00,2013-09-30 10:18:00,
2013-09-30 04:19:00,44.7,42.0,30.38,SSE,155,10.0,14.0,90,0.00,,,0.05,0.00,VWS V14.00,2013-09-30 10:19:00,
2013-09-30 04:20:00,44.7,41.7,30.38,SSE,159,14.0,14.0,89,0.00,,,0.05,0.00,VWS V14.00,2013-09-30 10:20:00,
2013-09-30 04:21:00,44.8,41.8,30.38,SSE,168,13.0,19.0,89,0.00,,,0.05,0.00,VWS V14.00,2013-09-30 10:21:00,
2013-09-30 04:22:00,44.6,41.8,30.39,SSE,160,11.0,15.0,90,0.00,,,0.05,0.00,VWS V14.00,2013-09-30 10:22:00,
2013-09-30 04:23:00,44.9,41.9,30.37,SSE,152,9.0,19.0,89,0.00,,,0.05,0.00,VWS V14.00,2013-09-30 10:23:00,
2013-09-30 04:24:00,44.9,41.9,30.37,SSE,163,12.0,19.0,89,0.00,,,0.05,0.00,VWS V14.00,2013-09-30 10:24:00,
2013-09-30 04:25:00,44.9,41.9,30.37,South,187,7.0,19.0,89,0.00,,,0.05,0.00,VWS V14.00,2013-09-30 10:25:00,
2013-09-30 04:26:00,44.9,41.9,30.37,SSE,159,9.0,19.0,89,0.00,,,0.05,0.00,VWS V14.00,2013-09-30 10:26:00,
2013-09-30 04:27:00,44.7,42.0,30.38,South,187,6.0,14.0,90,0.00,,,0.05,0.00,VWS V14.00,2013-09-30 10:27:00,
2013-09-30 04:28:00,45.0,42.0,30.36,SSE,165,11.0,19.0,89,0.00,,,0.05,0.00,VWS V14.00,2013-09-30 10:28:00,
2013-09-30 04:29:00,45.0,42.0,30.36,SSE,164,11.0,19.0,89,0.00,,,0.05,0.00,VWS V14.00,2013-09-30 10:29:00,
2013-09-30 04:30:00,45.0,42.0,30.36,South,177,12.0,14.0,89,0.00,,,0.05,0.00,VWS V14.00,2013-09-30 10:30:00,
2013-09-30 04:31:00,45.0,42.0,30.36,SSE,148,14.0,15.0,89,0.00,,,0.05,0.00,VWS V14.00,2013-09-30 10:31:00,
2013-09-30 04:32:00,44.8,41.8,30.37,SSE,167,13.0,19.0,89,0.00,,,0.05,0.00,VWS V14.00,2013-09-30 10:32:00,
2013-09-30 04:33:00,45.0,42.0,30.36,SSE,161,12.0,15.0,89,0.00,,,0.05,0.00,VWS V14.00,2013-09-30 10:33:00,
2013-09-30 04:34:00,45.0,42.0,30.36,SSE,158,9.0,15.0,89,0.00,,,0.05,0.00,VWS V14.00,2013-09-30 10:34:00,
2013-09-30 04:35:00,45.0,41.7,30.35,SSE,161,14.0,15.0,88,0.00,,,0.05,0.00,VWS V14.00,2013-09-30 10:35:00,
2013-09-30 04:36:00,45.0,41.7,30.36,South,169,9.0,15.0,88,0.00,,,0.05,0.00,VWS V14.00,2013-09-30 10:36:00,
2013-09-30 04:37:00,45.0,42.0,30.37,SSE,165,12.0,19.0,89,0.00,,,0.05,0.00,VWS V14.00,2013-09-30 10:37:00,
2013-09-30 04:38:00,45.0,41.7,30.36,South,176,9.0,15.0,88,0.00,,,0.05,0.00,VWS V14.00,2013-09-30 10:38:00,
2013-09-30 04:39:00,45.0,41.7,30.35,SSE,159,12.0,15.0,88,0.00,,,0.05,0.00,VWS V14.00,2013-09-30 10:39:00,
2013-09-30 04:40:00,45.1,41.8,30.36,SSE,157,8.0,15.0,88,0.00,,,0.05,0.00,VWS V14.00,2013-09-30 10:40:00,
2013-09-30 04:41:00,45.1,41.8,30.35,SSE,168,12.0,15.0,88,0.00,,,0.05,0.00,VWS V14.00,2013-09-30 10:41:00,
2013-09-30 04:42:00,45.1,41.8,30.35,SSE,159,10.0,15.0,88,0.00,,,0.05,0.00,VWS V14.00,2013-09-30 10:42:00,
2013-09-30 04:43:00,45.0,42.0,30.36,SSE,161,13.0,15.0,89,0.00,,,0.05,0.00,VWS V14.00,2013-09-30 10:43:00,
2013-09-30 04:44:00,45.2,41.9,30.35,SSE,164,13.0,15.0,88,0.00,,,0.05,0.00,VWS V14.00,2013-09-30 10:44:00,
2013-09-30 04:45:00,45.2,41.9,30.34,SSE,153,11.0,17.0,88,0.00,,,0.05,0.00,VWS V14.00,2013-09-30 10:45:00,
2013-09-30 04:46:00,45.3,42.0,30.34,SSE,161,14.0,17.0,88,0.00,,,0.05,0.00,VWS V14.00,2013-09-30 10:46:00,
2013-09-30 04:47:00,45.0,41.7,30.36,SSE,159,10.0,15.0,88,0.00,,,0.05,0.00,VWS V14.00,2013-09-30 10:47:00,
2013-09-30 04:48:00,45.4,42.1,30.34,SSE,157,11.0,17.0,88,0.00,,,0.05,0.00,VWS V14.00,2013-09-30 10:48:00,
2013-09-30 04:49:00,45.4,42.1,30.34,SE,144,9.0,17.0,88,0.00,,,0.05,0.00,VWS V14.00,2013-09-30 10:49:00,
2013-09-30 04:50:00,45.4,42.1,30.33,SSE,160,11.0,17.0,88,0.00,,,0.05,0.00,VWS V14.00,2013-09-30 10:50:00,
2013-09-30 04:51:00,45.4,42.1,30.33,SSE,160,11.0,17.0,88,0.00,,,0.05,0.00,VWS V14.00,2013-09-30 10:51:00,
2013-09-30 04:52:00,45.5,42.2,30.33,South,178,11.0,17.0,88,0.00,,,0.05,0.00,VWS V14.00,2013-09-30 10:52:00,
2013-09-30 04:53:00,45.2,41.9,30.34,SE,144,14.0,15.0,88,0.00,,,0.05,0.00,VWS V14.00,2013-09-30 10:53:00,
2013-09-30 04:54:00,45.5,42.2,30.33,SSE,157,11.0,17.0,88,0.00,,,0.05,0.00,VWS V14.00,2013-09-30 10:54:00,
2013-09-30 04:55:00,45.5,42.2,30.33,SSE,159,9.0,17.0,88,0.00,,,0.05,0.00,VWS V14.00,2013-09-30 10:55:00,
2013-09-30 04:56:00,45.5,42.2,30.33,SSE,167,9.0,17.0,88,0.00,,,0.05,0.00,VWS V14.00,2013-09-30 10:56:00,
2013-09-30 04:57:00,45.4,42.1,30.34,SSE,156,12.0,17.0,88,0.00,,,0.05,0.00,VWS V14.00,2013-09-30 10:57:00,
2013-09-30 04:58:00,45.6,42.3,30.34,South,178,7.0,17.0,88,0.00,,,0.05,0.00,VWS V14.00,2013-09-30 10:58:00,
2013-09-30 04:59:00,45.6,42.3,30.33,SSE,155,10.0,17.0,88,0.00,,,0.05,0.00,VWS V14.00,2013-09-30 10:59:00,
2013-09-30 05:00:00,45.6,42.3,30.33,SSE,159,10.0,14.0,88,0.00,,,0.05,0.00,VWS V14.00,2013-09-30 11:00:00,
2013-09-30 05:01:00,45.7,42.4,30.33,South,176,11.0,15.0,88,0.00,,,0.05,0.00,VWS V14.00,2013-09-30 11:01:00,
2013-09-30 05:02:00,45.5,42.2,30.33,SSE,160,10.0,17.0,88,0.00,,,0.05,0.00,VWS V14.00,2013-09-30 11:02:00,
2013-09-30 05:03:00,45.7,42.4,30.33,SSE,153,10.0,15.0,88,0.00,,,0.05,0.00,VWS V14.00,2013-09-30 11:03:00,
2013-09-30 05:04:00,45.7,42.4,30.33,SSE,162,8.0,15.0,88,0.00,,,0.05,0.00,VWS V14.00,2013-09-30 11:04:00,
2013-09-30 05:05:00,45.7,42.4,30.33,SSE,155,11.0,15.0,88,0.00,,,0.05,0.00,VWS V14.00,2013-09-30 11:05:00,
2013-09-30 05:06:00,45.8,42.5,30.33,SSE,148,9.0,15.0,88,0.00,,,0.05,0.00,VWS V14.00,2013-09-30 11:06:00,
2013-09-30 05:07:00,45.6,42.3,30.34,South,176,8.0,17.0,88,0.00,,,0.05,0.00,VWS V14.00,2013-09-30 11:07:00,
2013-09-30 05:08:00,45.8,42.5,30.33,SSE,163,9.0,15.0,88,0.00,,,0.05,0.00,VWS V14.00,2013-09-30 11:08:00,
2013-09-30 05:09:00,45.8,42.5,30.33,SSE,167,6.0,15.0,88,0.00,,,0.05,0.00,VWS V14.00,2013-09-30 11:09:00,
2013-09-30 05:10:00,45.8,42.5,30.33,SSE,152,6.0,15.0,88,0.00,,,0.05,0.00,VWS V14.00,2013-09-30 11:10:00,
2013-09-30 05:11:00,45.8,42.5,30.33,SSW,197,6.0,15.0,88,0.00,,,0.05,0.00,VWS V14.00,2013-09-30 11:11:00,
2013-09-30 05:12:00,45.7,42.4,30.33,SSE,157,9.0,15.0,88,0.00,,,0.05,0.00,VWS V14.00,2013-09-30 11:12:00,
2013-09-30 05:13:00,45.8,42.5,30.33,SSE,152,9.0,15.0,88,0.00,,,0.05,0.00,VWS V14.00,2013-09-30 11:13:00,
2013-09-30 05:14:00,45.8,42.5,30.33,SE,145,9.0,15.0,88,0.00,,,0.05,0.00,VWS V14.00,2013-09-30 11:14:00,
2013-09-30 05:15:00,45.8,42.5,30.33,SSE,161,12.0,12.0,88,0.01,,,0.06,0.00,VWS V14.00,2013-09-30 11:15:00,
2013-09-30 05:16:00,45.8,42.5,30.32,SSE,148,11.0,12.0,88,0.01,,,0.06,0.00,VWS V14.00,2013-09-30 11:16:00,
2013-09-30 05:17:00,45.8,42.5,30.32,South,170,12.0,14.0,88,0.01,,,0.06,0.00,VWS V14.00,2013-09-30 11:17:00,
2013-09-30 05:18:00,45.8,42.5,30.33,SSW,195,10.0,15.0,88,0.00,,,0.05,0.00,VWS V14.00,2013-09-30 11:18:00,
2013-09-30 05:19:00,45.8,42.5,30.32,SSE,156,9.0,15.0,88,0.01,,,0.06,0.00,VWS V14.00,2013-09-30 11:19:00,
2013-09-30 05:20:00,45.8,42.5,30.32,SSE,163,8.0,15.0,88,0.01,,,0.06,0.00,VWS V14.00,2013-09-30 11:20:00,
2013-09-30 05:21:00,45.8,42.5,30.32,SSE,159,9.0,15.0,88,0.01,,,0.06,0.00,VWS V14.00,2013-09-30 11:21:00,
2013-09-30 05:22:00,45.8,42.5,30.31,SSE,157,12.0,15.0,88,0.01,,,0.06,0.00,VWS V14.00,2013-09-30 11:22:00,
2013-09-30 05:23:00,45.8,42.5,30.33,South,179,6.0,15.0,88,0.00,,,0.05,0.00,VWS V14.00,2013-09-30 11:23:00,
2013-09-30 05:24:00,45.8,42.5,30.31,SSE,157,8.0,15.0,88,0.01,,,0.06,0.00,VWS V14.00,2013-09-30 11:24:00,
2013-09-30 05:25:00,45.8,42.5,30.32,South,173,11.0,15.0,88,0.01,,,0.06,0.00,VWS V14.00,2013-09-30 11:25:00,
2013-09-30 05:26:00,45.8,42.5,30.31,SSE,155,13.0,15.0,88,0.01,,,0.06,0.00,VWS V14.00,2013-09-30 11:26:00,
2013-09-30 05:27:00,45.8,42.5,30.31,SSE,164,7.0,15.0,88,0.01,,,0.06,0.00,VWS V14.00,2013-09-30 11:27:00,
2013-09-30 05:28:00,45.8,42.5,30.32,SSE,152,12.0,15.0,88,0.01,,,0.06,0.00,VWS V14.00,2013-09-30 11:28:00,
2013-09-30 05:29:00,45.8,42.5,30.32,SSE,163,7.0,15.0,88,0.01,,,0.06,0.00,VWS V14.00,2013-09-30 11:29:00,
2013-09-30 05:30:00,45.9,42.5,30.32,SSE,161,7.0,8.0,88,0.01,,,0.06,0.00,VWS V14.00,2013-09-30 11:30:00,
2013-09-30 05:31:00,45.9,42.5,30.32,South,175,10.0,12.0,88,0.01,,,0.06,0.00,VWS V14.00,2013-09-30 11:31:00,
2013-09-30 05:32:00,45.9,42.5,30.32,SSE,156,6.0,12.0,88,0.01,,,0.06,0.00,VWS V14.00,2013-09-30 11:32:00,
2013-09-30 05:33:00,45.8,42.5,30.31,SSE,167,9.0,15.0,88,0.01,,,0.06,0.00,VWS V14.00,2013-09-30 11:33:00,
2013-09-30 05:34:00,45.9,42.5,30.31,South,170,6.0,12.0,88,0.01,,,0.06,0.00,VWS V14.00,2013-09-30 11:34:00,
2013-09-30 05:35:00,45.9,42.5,30.32,SSE,160,6.0,12.0,88,0.01,,,0.06,0.00,VWS V14.00,2013-09-30 11:35:00,
2013-09-30 05:36:00,45.9,42.5,30.32,SSE,159,8.0,12.0,88,0.01,,,0.06,0.00,VWS V14.00,2013-09-30 11:36:00,
2013-09-30 05:37:00,45.9,42.5,30.32,SSE,157,10.0,12.0,88,0.01,,,0.06,0.00,VWS V14.00,2013-09-30 11:37:00,
2013-09-30 05:38:00,45.9,42.5,30.31,SSE,160,7.0,15.0,88,0.01,,,0.06,0.00,VWS V14.00,2013-09-30 11:38:00,
2013-09-30 05:39:00,46.0,42.7,30.31,SSE,159,5.0,12.0,88,0.01,,,0.06,0.00,VWS V14.00,2013-09-30 11:39:00,
2013-09-30 05:40:00,46.0,42.7,30.31,SSE,157,7.0,12.0,88,0.01,,,0.06,0.00,VWS V14.00,2013-09-30 11:40:00,
2013-09-30 05:41:00,46.0,42.7,30.30,SSE,157,5.0,12.0,88,0.01,,,0.06,0.00,VWS V14.00,2013-09-30 11:41:00,
2013-09-30 05:42:00,46.0,42.7,30.30,SSE,163,8.0,12.0,88,0.01,,,0.06,0.00,VWS V14.00,2013-09-30 11:42:00,
2013-09-30 05:43:00,45.9,42.5,30.31,SSE,159,6.0,12.0,88,0.01,,,0.06,0.00,VWS V14.00,2013-09-30 11:43:00,
2013-09-30 05:44:00,46.0,42.7,30.31,SSE,167,3.0,12.0,88,0.01,,,0.06,0.00,VWS V14.00,2013-09-30 11:44:00,
2013-09-30 05:45:00,46.0,42.7,30.31,SSE,166,5.0,6.0,88,0.01,,,0.06,0.00,VWS V14.00,2013-09-30 11:45:00,
2013-09-30 05:46:00,46.0,42.7,30.31,SSE,163,5.0,6.0,88,0.01,,,0.06,0.00,VWS V14.00,2013-09-30 11:46:00,
2013-09-30 05:47:00,46.0,43.0,30.31,SSE,167,4.0,6.0,89,0.01,,,0.06,0.00,VWS V14.00,2013-09-30 11:47:00,
2013-09-30 05:48:00,46.0,42.7,30.32,SSE,165,4.0,12.0,88,0.01,,,0.06,0.00,VWS V14.00,2013-09-30 11:48:00,
2013-09-30 05:49:00,46.1,43.0,30.32,South,172,4.0,10.0,89,0.01,,,0.06,0.00,VWS V14.00,2013-09-30 11:49:00,
2013-09-30 05:50:00,46.1,43.0,30.32,South,176,4.0,10.0,89,0.01,,,0.06,0.00,VWS V14.00,2013-09-30 11:50:00,
2013-09-30 05:51:00,46.1,43.0,30.32,SSE,157,6.0,10.0,89,0.01,,,0.06,0.00,VWS V14.00,2013-09-30 11:51:00,
2013-09-30 05:52:00,46.1,43.0,30.32,SSW,193,8.0,10.0,89,0.01,,,0.06,0.00,VWS V14.00,2013-09-30 11:52:00,
2013-09-30 05:53:00,46.0,42.7,30.30,South,171,4.0,12.0,88,0.01,,,0.06,0.00,VWS V14.00,2013-09-30 11:53:00,
2013-09-30 05:54:00,46.1,43.0,30.33,South,177,4.0,10.0,89,0.01,,,0.06,0.00,VWS V14.00,2013-09-30 11:54:00,
2013-09-30 05:55:00,46.1,43.0,30.33,SE,129,7.0,11.0,89,0.02,,,0.07,0.00,VWS V14.00,2013-09-30 11:55:00,
2013-09-30 05:56:00,46.1,43.0,30.34,SSW,192,9.0,11.0,89,0.02,,,0.07,0.00,VWS V14.00,2013-09-30 11:56:00,
2013-09-30 05:57:00,46.1,43.0,30.34,South,187,9.0,11.0,89,0.02,,,0.07,0.00,VWS V14.00,2013-09-30 11:57:00,
2013-09-30 05:58:00,46.1,43.0,30.32,South,175,6.0,10.0,89,0.01,,,0.06,0.00,VWS V14.00,2013-09-30 11:58:00,
2013-09-30 05:59:00,46.1,43.0,30.34,SSW,195,2.0,12.0,89,0.02,,,0.07,0.00,VWS V14.00,2013-09-30 11:59:00,
2013-09-30 06:00:00,46.2,43.1,30.34,SSW,193,2.0,3.0,89,0.02,,,0.07,0.00,VWS V14.00,2013-09-30 12:00:00,
2013-09-30 06:01:00,46.2,42.8,30.38,South,191,0.0,6.0,88,0.02,,,0.07,0.00,VWS V14.00,2013-09-30 12:01:00,
2013-09-30 06:02:00,46.2,42.8,30.39,West,274,6.0,7.0,88,0.02,,,0.07,0.00,VWS V14.00,2013-09-30 12:02:00,
2013-09-30 06:03:00,46.1,43.0,30.32,South,172,4.0,10.0,89,0.01,,,0.06,0.00,VWS V14.00,2013-09-30 12:03:00,
2013-09-30 06:04:00,46.2,42.8,30.41,WNW,288,13.0,13.0,88,0.03,,,0.08,0.00,VWS V14.00,2013-09-30 12:04:00,
2013-09-30 06:05:00,46.3,43.2,30.43,WNW,290,15.0,16.0,89,0.03,,,0.08,0.00,VWS V14.00,2013-09-30 12:05:00,
2013-09-30 06:06:00,46.3,43.2,30.44,WNW,299,14.0,20.0,89,0.03,,,0.08,0.00,VWS V14.00,2013-09-30 12:06:00,
2013-09-30 06:07:00,46.3,43.2,30.44,WNW,296,14.0,20.0,89,0.03,,,0.08,0.00,VWS V14.00,2013-09-30 12:07:00,
2013-09-30 06:08:00,46.1,43.0,30.34,SSW,194,7.0,12.0,89,0.02,,,0.07,0.00,VWS V14.00,2013-09-30 12:08:00,
2013-09-30 06:09:00,46.4,43.6,30.44,West,278,9.0,23.0,90,0.04,,,0.09,0.00,VWS V14.00,2013-09-30 12:09:00,
2013-09-30 06:10:00,46.5,43.7,30.43,WNW,298,17.0,23.0,90,0.04,,,0.09,0.00,VWS V14.00,2013-09-30 12:10:00,
2013-09-30 06:11:00,46.7,43.3,30.43,WNW,292,19.0,23.0,88,0.05,,,0.10,0.00,VWS V14.00,2013-09-30 12:11:00,
2013-09-30 06:12:00,46.9,43.2,30.43,NW,323,21.0,25.0,87,0.05,,,0.10,0.00,VWS V14.00,2013-09-30 12:12:00,
2013-09-30 06:13:00,46.2,42.8,30.40,West,272,13.0,13.0,88,0.03,,,0.08,0.00,VWS V14.00,2013-09-30 12:13:00,
2013-09-30 06:14:00,47.2,42.6,30.43,NW,319,19.0,25.0,84,0.05,,,0.10,0.00,VWS V14.00,2013-09-30 12:14:00,
2013-09-30 06:15:00,47.3,42.1,30.44,WNW,300,14.0,19.0,82,0.04,,,0.10,0.00,VWS V14.00,2013-09-30 12:15:00,
2013-09-30 06:16:00,47.4,42.2,30.44,WNW,302,16.0,24.0,82,0.05,,,0.11,0.00,VWS V14.00,2013-09-30 12:16:00,
2013-09-30 06:17:00,47.5,42.0,30.44,WNW,288,12.0,24.0,81,0.05,,,0.11,0.00,VWS V14.00,2013-09-30 12:17:00,
2013-09-30 06:18:00,46.4,43.6,30.44,WNW,284,16.0,23.0,90,0.04,,,0.09,0.00,VWS V14.00,2013-09-30 12:18:00,
2013-09-30 06:19:00,47.6,42.4,30.45,NW,304,11.0,24.0,82,0.05,,,0.11,0.00,VWS V14.00,2013-09-30 12:19:00,
2013-09-30 06:20:00,47.6,42.1,30.45,NW,311,10.0,24.0,81,0.05,,,0.11,0.00,VWS V14.00,2013-09-30 12:20:00,
2013-09-30 06:21:00,47.6,42.1,30.45,NW,311,10.0,24.0,81,0.05,,,0.11,0.00,VWS V14.00,2013-09-30 12:21:00,
2013-09-30 06:22:00,47.6,41.8,30.45,NNW,327,9.0,24.0,80,0.05,,,0.11,0.00,VWS V14.00,2013-09-30 12:22:00,
2013-09-30 06:23:00,47.2,42.6,30.44,WNW,302,15.0,25.0,84,0.05,,,0.10,0.00,VWS V14.00,2013-09-30 12:23:00,
2013-09-30 06:24:00,47.7,41.5,30.45,NW,306,11.0,24.0,79,0.05,,,0.11,0.00,VWS V14.00,2013-09-30 12:24:00,
2013-09-30 06:25:00,47.7,41.5,30.45,WNW,302,5.0,24.0,79,0.05,,,0.11,0.00,VWS V14.00,2013-09-30 12:25:00,
2013-09-30 06:26:00,47.7,41.8,30.46,NW,310,7.0,24.0,80,0.05,,,0.11,0.00,VWS V14.00,2013-09-30 12:26:00,
2013-09-30 06:27:00,47.7,41.8,30.46,NW,315,6.0,24.0,80,0.05,,,0.11,0.00,VWS V14.00,2013-09-30 12:27:00,
2013-09-30 06:28:00,47.6,42.4,30.45,WNW,303,13.0,24.0,82,0.05,,,0.11,0.00,VWS V14.00,2013-09-30 12:28:00,
2013-09-30 06:29:00,47.7,41.5,30.47,WNW,293,5.0,24.0,79,0.05,,,0.11,0.00,VWS V14.00,2013-09-30 12:29:00,
2013-09-30 06:30:00,47.6,41.4,30.47,WNW,302,8.0,10.0,79,0.05,,,0.11,0.00,VWS V14.00,2013-09-30 12:30:00,
2013-09-30 06:31:00,47.6,41.1,30.47,WNW,284,12.0,13.0,78,0.05,,,0.11,0.00,VWS V14.00,2013-09-30 12:31:00,
2013-09-30 06:32:00,47.6,41.1,30.47,NW,310,7.0,13.0,78,0.05,,,0.11,0.00,VWS V14.00,2013-09-30 12:32:00,
2013-09-30 06:33:00,47.7,41.5,30.45,WNW,303,10.0,24.0,79,0.05,,,0.11,0.00,VWS V14.00,2013-09-30 12:33:00,
2013-09-30 06:34:00,47.5,41.0,30.47,NW,316,6.0,13.0,78,0.05,,,0.11,0.00,VWS V14.00,2013-09-30 12:34:00,
2013-09-30 06:35:00,47.5,41.0,30.47,WNW,288,5.0,13.0,78,0.05,,,0.11,0.00,VWS V14.00,2013-09-30 12:35:00,
2013-09-30 06:36:00,47.5,41.0,30.47,NW,306,13.0,14.0,78,0.05,,,0.11,0.00,VWS V14.00,2013-09-30 12:36:00,
2013-09-30 06:37:00,47.5,40.7,30.48,NW,321,10.0,14.0,77,0.05,,,0.11,0.00,VWS V14.00,2013-09-30 12:37:00,
2013-09-30 06:38:00,47.7,41.8,30.47,WNW,298,8.0,24.0,80,0.05,,,0.11,0.00,VWS V14.00,2013-09-30 12:38:00,
2013-09-30 06:39:00,47.4,40.9,30.48,NW,321,6.0,14.0,78,0.05,,,0.11,0.00,VWS V14.00,2013-09-30 12:39:00,
2013-09-30 06:40:00,47.4,41.2,30.48,NNW,330,6.0,14.0,79,0.05,,,0.11,0.00,VWS V14.00,2013-09-30 12:40:00,
2013-09-30 06:41:00,47.3,40.8,30.48,NNW,332,8.0,14.0,78,0.05,,,0.11,0.00,VWS V14.00,2013-09-30 12:41:00,
2013-09-30 06:42:00,47.2,40.7,30.49,NNW,341,7.0,14.0,78,0.05,,,0.11,0.00,VWS V14.00,2013-09-30 12:42:00,
2013-09-30 06:43:00,47.5,41.0,30.47,NW,321,5.0,13.0,78,0.05,,,0.11,0.00,VWS V14.00,2013-09-30 12:43:00,
2013-09-30 06:44:00,47.2,40.7,30.49,NNW,336,7.0,14.0,78,0.05,,,0.11,0.00,VWS V14.00,2013-09-30 12:44:00,
2013-09-30 06:45:00,47.1,40.6,30.49,North,349,13.0,14.0,78,0.05,,,0.11,0.00,VWS V14.00,2013-09-30 12:45:00,
2013-09-30 06:46:00,47.1,40.3,30.50,NW,316,10.0,18.0,77,0.05,,,0.11,0.00,VWS V14.00,2013-09-30 12:46:00,
2013-09-30 06:47:00,47.0,40.2,30.50,NNW,327,9.0,18.0,77,0.05,,,0.11,0.00,VWS V14.00,2013-09-30 12:47:00,
2013-09-30 06:48:00,47.4,40.9,30.47,NW,317,6.0,14.0,78,0.05,,,0.11,0.00,VWS V14.00,2013-09-30 12:48:00,
2013-09-30 06:49:00,47.0,39.8,30.50,WNW,303,7.0,18.0,76,0.05,,,0.11,0.00,VWS V14.00,2013-09-30 12:49:00,
2013-09-30 06:50:00,47.0,39.8,30.51,WNW,299,6.0,18.0,76,0.05,,,0.11,0.00,VWS V14.00,2013-09-30 12:50:00,
2013-09-30 06:51:00,47.0,39.8,30.52,WNW,300,7.0,18.0,76,0.05,,,0.11,0.00,VWS V14.00,2013-09-30 12:51:00,
2013-09-30 06:52:00,46.9,39.7,30.52,NNW,334,6.0,18.0,76,0.05,,,0.11,0.00,VWS V14.00,2013-09-30 12:52:00,
2013-09-30 06:53:00,47.2,40.7,30.49,NW,319,9.0,14.0,78,0.05,,,0.11,0.00,VWS V14.00,2013-09-30 12:53:00,
2013-09-30 06:54:00,46.9,39.7,30.53,WNW,285,12.0,18.0,76,0.05,,,0.11,0.00,VWS V14.00,2013-09-30 12:54:00,
2013-09-30 06:55:00,46.9,39.7,30.53,NNW,327,10.0,18.0,76,0.05,,,0.11,0.00,VWS V14.00,2013-09-30 12:55:00,
2013-09-30 06:56:00,46.8,39.3,30.54,NW,320,9.0,19.0,75,0.05,,,0.11,0.00,VWS V14.00,2013-09-30 12:56:00,
2013-09-30 06:57:00,46.8,39.3,30.54,NNW,327,16.0,19.0,75,0.05,,,0.11,0.00,VWS V14.00,2013-09-30 12:57:00,
2013-09-30 06:58:00,47.0,39.8,30.50,NW,310,6.0,18.0,76,0.05,,,0.11,0.00,VWS V14.00,2013-09-30 12:58:00,
2013-09-30 06:59:00,46.7,39.2,30.53,NNW,338,19.0,19.0,75,0.05,,,0.11,0.00,VWS V14.00,2013-09-30 12:59:00,
2013-09-30 07:00:00,46.5,38.3,30.53,NNW,346,10.0,15.0,73,0.05,,,0.12,0.00,VWS V14.00,2013-09-30 13:00:00,
2013-09-30 07:01:00,46.5,39.0,30.52,NNW,336,8.0,15.0,75,0.05,,,0.12,0.00,VWS V14.00,2013-09-30 13:01:00,
2013-09-30 07:02:00,46.4,38.9,30.52,NNW,339,9.0,15.0,75,0.05,,,0.12,0.00,VWS V14.00,2013-09-30 13:02:00,
2013-09-30 07:03:00,46.9,39.7,30.52,WNW,282,7.0,18.0,76,0.05,,,0.11,0.00,VWS V14.00,2013-09-30 13:03:00,
2013-09-30 07:04:00,46.2,38.4,30.52,NNW,330,12.0,16.0,74,0.05,,,0.12,0.00,VWS V14.00,2013-09-30 13:04:00,
2013-09-30 07:05:00,46.1,38.6,30.52,NNW,342,9.0,16.0,75,0.05,,,0.12,0.00,VWS V14.00,2013-09-30 13:05:00,
2013-09-30 07:06:00,46.1,38.3,30.52,NNW,333,13.0,16.0,74,0.05,,,0.12,0.00,VWS V14.00,2013-09-30 13:06:00,
2013-09-30 07:07:00,46.0,38.2,30.53,NNW,348,8.0,16.0,74,0.05,,,0.12,0.00,VWS V14.00,2013-09-30 13:07:00,
2013-09-30 07:08:00,46.7,39.2,30.53,NNW,334,16.0,19.0,75,0.05,,,0.11,0.00,VWS V14.00,2013-09-30 13:08:00,
2013-09-30 07:09:00,46.0,37.5,30.53,NNW,344,5.0,16.0,72,0.05,,,0.12,0.00,VWS V14.00,2013-09-30 13:09:00,
2013-09-30 07:10:00,46.0,38.2,30.54,NNW,327,5.0,16.0,74,0.05,,,0.12,0.00,VWS V14.00,2013-09-30 13:10:00,
2013-09-30 07:11:00,46.0,37.8,30.54,NW,324,3.0,16.0,73,0.05,,,0.12,0.00,VWS V14.00,2013-09-30 13:11:00,
2013-09-30 07:12:00,46.0,37.8,30.55,North,355,10.0,16.0,73,0.05,,,0.12,0.00,VWS V14.00,2013-09-30 13:12:00,
2013-09-30 07:13:00,46.2,39.1,30.52,NNW,336,13.0,16.0,76,0.05,,,0.12,0.00,VWS V14.00,2013-09-30 13:13:00,
2013-09-30 07:14:00,46.0,38.2,30.55,WNW,303,3.0,16.0,74,0.05,,,0.12,0.00,VWS V14.00,2013-09-30 13:14:00,
2013-09-30 07:15:00,46.0,38.5,30.55,NW,325,10.0,10.0,75,0.02,,,0.12,0.00,VWS V14.00,2013-09-30 13:15:00,
2013-09-30 07:16:00,46.0,38.5,30.56,NNW,336,17.0,17.0,75,0.02,,,0.12,0.00,VWS V14.00,2013-09-30 13:16:00,
2013-09-30 07:17:00,46.0,38.5,30.57,SW,232,3.0,17.0,75,0.02,,,0.12,0.00,VWS V14.00,2013-09-30 13:17:00,
2013-09-30 07:18:00,46.0,37.5,30.53,NNW,344,6.0,16.0,72,0.05,,,0.12,0.00,VWS V14.00,2013-09-30 13:18:00,
2013-09-30 07:19:00,45.9,36.7,30.56,WNW,288,28.0,28.0,70,0.02,,,0.12,0.00,VWS V14.00,2013-09-30 13:19:00,
2013-09-30 07:20:00,45.8,37.0,30.57,WNW,292,13.0,28.0,71,0.02,,,0.12,0.00,VWS V14.00,2013-09-30 13:20:00,
2013-09-30 07:21:00,45.8,37.3,30.57,WNW,288,20.0,28.0,72,0.02,,,0.12,0.00,VWS V14.00,2013-09-30 13:21:00,
2013-09-30 07:22:00,45.7,37.2,30.57,WNW,297,16.0,28.0,72,0.02,,,0.12,0.00,VWS V14.00,2013-09-30 13:22:00,
2013-09-30 07:23:00,46.0,38.2,30.55,WNW,303,4.0,16.0,74,0.05,,,0.12,0.00,VWS V14.00,2013-09-30 13:23:00,
2013-09-30 07:24:00,45.4,36.6,30.57,WNW,299,10.0,28.0,71,0.02,,,0.12,0.00,VWS V14.00,2013-09-30 13:24:00,
2013-09-30 07:25:00,45.2,36.7,30.57,West,272,21.0,28.0,72,0.02,,,0.12,0.00,VWS V14.00,2013-09-30 13:25:00,
2013-09-30 07:26:00,45.0,36.5,30.58,West,277,14.0,28.0,72,0.02,,,0.12,0.00,VWS V14.00,2013-09-30 13:26:00,
2013-09-30 07:27:00,45.0,36.5,30.57,WSW,242,6.0,28.0,72,0.02,,,0.12,0.00,VWS V14.00,2013-09-30 13:27:00,
2013-09-30 07:28:00,45.9,36.7,30.56,WNW,294,20.0,20.0,70,0.02,,,0.12,0.00,VWS V14.00,2013-09-30 13:28:00,
2013-09-30 07:29:00,44.8,36.0,30.55,SSE,162,16.0,28.0,71,0.02,,,0.12,0.00,VWS V14.00,2013-09-30 13:29:00,
2013-09-30 07:30:00,44.8,35.3,30.55,SSW,203,6.0,10.0,69,0.01,,,0.12,0.00,VWS V14.00,2013-09-30 13:30:00,
2013-09-30 07:31:00,44.8,35.6,30.55,SSW,198,0.0,10.0,70,0.01,,,0.12,0.00,VWS V14.00,2013-09-30 13:31:00,
2013-09-30 07:32:00,44.8,36.0,30.56,East,84,2.0,10.0,71,0.01,,,0.12,0.00,VWS V14.00,2013-09-30 13:32:00,
2013-09-30 07:33:00,45.4,36.6,30.57,West,273,17.0,28.0,71,0.02,,,0.12,0.00,VWS V14.00,2013-09-30 13:33:00,
2013-09-30 07:34:00,44.8,34.2,30.54,SW,222,0.0,19.0,66,0.01,,,0.12,0.00,VWS V14.00,2013-09-30 13:34:00,
2013-09-30 07:35:00,44.9,34.2,30.55,SSE,157,18.0,19.0,66,0.01,,,0.12,0.00,VWS V14.00,2013-09-30 13:35:00,
2013-09-30 07:36:00,45.0,35.8,30.55,SSE,158,10.0,23.0,70,0.01,,,0.12,0.00,VWS V14.00,2013-09-30 13:36:00,
2013-09-30 07:37:00,45.0,33.2,30.53,South,170,12.0,23.0,63,0.01,,,0.12,0.00,VWS V14.00,2013-09-30 13:37:00,
2013-09-30 07:38:00,44.8,36.0,30.55,SSE,154,12.0,28.0,71,0.02,,,0.12,0.00,VWS V14.00,2013-09-30 13:38:00,
2013-09-30 07:39:00,45.2,34.5,30.54,SE,146,11.0,23.0,66,0.01,,,0.12,0.00,VWS V14.00,2013-09-30 13:39:00,
2013-09-30 07:40:00,45.3,35.0,30.55,SSE,159,13.0,23.0,67,0.01,,,0.12,0.00,VWS V14.00,2013-09-30 13:40:00,
2013-09-30 07:41:00,45.3,34.6,30.55,SSE,158,16.0,23.0,66,0.01,,,0.12,0.00,VWS V14.00,2013-09-30 13:41:00,
2013-09-30 07:42:00,45.3,35.4,30.54,SSE,154,20.0,23.0,68,0.01,,,0.12,0.00,VWS V14.00,2013-09-30 13:42:00,
2013-09-30 07:43:00,44.8,36.0,30.54,SW,222,2.0,19.0,71,0.01,,,0.12,0.00,VWS V14.00,2013-09-30 13:43:00,
2013-09-30 07:44:00,45.1,34.8,30.53,SSE,158,18.0,24.0,67,0.01,,,0.12,0.00,VWS V14.00,2013-09-30 13:44:00,
2013-09-30 07:45:00,45.1,34.4,30.53,SSE,159,18.0,19.0,66,0.01,,,0.12,5.00,VWS V14.00,2013-09-30 13:45:00,
2013-09-30 07:46:00,45.0,34.7,30.53,SSE,159,13.0,22.0,67,0.01,,,0.12,7.00,VWS V14.00,2013-09-30 13:46:00,
2013-09-30 07:47:00,45.0,35.1,30.54,SSE,158,13.0,22.0,68,0.01,,,0.12,7.00,VWS V14.00,2013-09-30 13:47:00,
2013-09-30 07:48:00,45.2,36.0,30.54,SE,142,14.0,23.0,70,0.01,,,0.12,0.00,VWS V14.00,2013-09-30 13:48:00,
2013-09-30 07:49:00,45.0,34.3,30.55,South,169,18.0,22.0,66,0.01,,,0.12,5.00,VWS V14.00,2013-09-30 13:49:00,
2013-09-30 07:50:00,44.9,33.9,30.55,South,178,12.0,22.0,65,0.01,,,0.12,5.00,VWS V14.00,2013-09-30 13:50:00,
2013-09-30 07:51:00,45.0,34.0,30.55,South,173,10.0,22.0,65,0.01,,,0.12,5.00,VWS V14.00,2013-09-30 13:51:00,
2013-09-30 07:52:00,45.0,33.6,30.54,SSE,161,15.0,22.0,64,0.01,,,0.12,5.00,VWS V14.00,2013-09-30 13:52:00,
2013-09-30 07:53:00,45.1,34.8,30.53,SSE,168,21.0,24.0,67,0.01,,,0.12,0.00,VWS V14.00,2013-09-30 13:53:00,
2013-09-30 07:54:00,45.0,33.6,30.54,SSE,164,6.0,22.0,64,0.01,,,0.12,7.00,VWS V14.00,2013-09-30 13:54:00,
2013-09-30 07:55:00,45.0,33.2,30.54,SSE,166,12.0,22.0,63,0.01,,,0.12,7.00,VWS V14.00,2013-09-30 13:55:00,
2013-09-30 07:56:00,45.0,33.2,30.54,SE,140,15.0,22.0,63,0.01,,,0.12,9.00,VWS V14.00,2013-09-30 13:56:00,
2013-09-30 07:57:00,45.0,33.6,30.54,SSE,155,13.0,22.0,64,0.01,,,0.12,9.00,VWS V14.00,2013-09-30 13:57:00,
2013-09-30 07:58:00,45.0,34.3,30.55,SE,142,16.0,22.0,66,0.01,,,0.12,5.00,VWS V14.00,2013-09-30 13:58:00,
2013-09-30 07:59:00,45.1,34.4,30.53,SE,138,14.0,22.0,66,0.01,,,0.12,9.00,VWS V14.00,2013-09-30 13:59:00,
2013-09-30 08:00:00,45.1,34.4,30.51,SE,140,14.0,15.0,66,0.01,,,0.12,11.00,VWS V14.00,2013-09-30 14:00:00,
2013-09-30 08:01:00,45.0,34.3,30.51,SSE,156,11.0,19.0,66,0.01,,,0.12,11.00,VWS V14.00,2013-09-30 14:01:00,
2013-09-30 08:02:00,45.0,34.7,30.52,SE,146,9.0,19.0,67,0.01,,,0.12,12.00,VWS V14.00,2013-09-30 14:02:00,
2013-09-30 08:03:00,45.0,33.6,30.55,South,169,6.0,22.0,64,0.01,,,0.12,5.00,VWS V14.00,2013-09-30 14:03:00,
2013-09-30 08:04:00,45.0,34.7,30.53,SSE,164,9.0,19.0,67,0.01,,,0.12,16.00,VWS V14.00,2013-09-30 14:04:00,
2013-09-30 08:05:00,44.9,34.6,30.53,SSE,152,11.0,19.0,67,0.01,,,0.12,12.00,VWS V14.00,2013-09-30 14:05:00,
2013-09-30 08:06:00,44.9,34.6,30.53,SSE,160,12.0,19.0,67,0.01,,,0.12,12.00,VWS V14.00,2013-09-30 14:06:00,
2013-09-30 08:07:00,44.9,33.9,30.52,South,175,12.0,19.0,65,0.01,,,0.12,14.00,VWS V14.00,2013-09-30 14:07:00,
2013-09-30 08:08:00,45.1,34.4,30.53,SSE,153,12.0,22.0,66,0.01,,,0.12,9.00,VWS V14.00,2013-09-30 14:08:00,
2013-09-30 08:09:00,45.0,33.6,30.54,SE,146,16.0,19.0,64,0.01,,,0.12,30.00,VWS V14.00,2013-09-30 14:09:00,
2013-09-30 08:10:00,45.0,34.3,30.54,SSE,155,7.0,19.0,66,0.01,,,0.12,30.00,VWS V14.00,2013-09-30 14:10:00,
2013-09-30 08:11:00,45.0,34.3,30.54,SSE,156,10.0,19.0,66,0.01,,,0.12,25.00,VWS V14.00,2013-09-30 14:11:00,
2013-09-30 08:12:00,45.1,34.0,30.54,SSE,150,7.0,19.0,65,0.01,,,0.12,21.00,VWS V14.00,2013-09-30 14:12:00,
2013-09-30 08:13:00,45.0,34.7,30.53,SSE,153,10.0,19.0,67,0.01,,,0.12,16.00,VWS V14.00,2013-09-30 14:13:00,
2013-09-30 08:14:00,45.1,34.0,30.54,SE,145,9.0,19.0,65,0.01,,,0.12,19.00,VWS V14.00,2013-09-30 14:14:00,
2013-09-30 08:15:00,45.1,34.4,30.54,SE,146,6.0,7.0,66,0.00,,,0.12,19.00,VWS V14.00,2013-09-30 14:15:00,
2013-09-30 08:16:00,45.1,33.7,30.53,SSE,153,6.0,13.0,64,0.00,,,0.12,19.00,VWS V14.00,2013-09-30 14:16:00,
2013-09-30 08:17:00,45.1,33.7,30.53,SSW,196,10.0,13.0,64,0.00,,,0.12,23.00,VWS V14.00,2013-09-30 14:17:00,
2013-09-30 08:18:00,45.0,33.6,30.54,SSE,155,14.0,19.0,64,0.01,,,0.12,30.00,VWS V14.00,2013-09-30 14:18:00,
2013-09-30 08:19:00,45.2,33.4,30.53,SE,146,11.0,17.0,63,0.00,,,0.12,23.00,VWS V14.00,2013-09-30 14:19:00,
2013-09-30 08:20:00,45.3,33.1,30.54,South,169,6.0,17.0,62,0.00,,,0.12,19.00,VWS V14.00,2013-09-30 14:20:00,
2013-09-30 08:21:00,45.4,33.2,30.54,SSE,153,11.0,17.0,62,0.00,,,0.12,19.00,VWS V14.00,2013-09-30 14:21:00,
2013-09-30 08:22:00,45.4,33.2,30.54,SSE,165,5.0,17.0,62,0.00,,,0.12,19.00,VWS V14.00,2013-09-30 14:22:00,
2013-09-30 08:23:00,45.1,34.4,30.54,South,169,9.0,19.0,66,0.01,,,0.12,19.00,VWS V14.00,2013-09-30 14:23:00,
2013-09-30 08:24:00,45.5,32.8,30.53,SSE,161,6.0,17.0,61,0.00,,,0.12,21.00,VWS V14.00,2013-09-30 14:24:00,
2013-09-30 08:25:00,45.5,32.4,30.54,SSE,168,5.0,17.0,60,0.00,,,0.12,32.00,VWS V14.00,2013-09-30 14:25:00,
2013-09-30 08:26:00,45.6,33.3,30.54,SSE,159,11.0,17.0,62,0.00,,,0.12,49.00,VWS V14.00,2013-09-30 14:26:00,
2013-09-30 08:27:00,45.6,32.9,30.54,SSE,152,10.0,17.0,61,0.00,,,0.12,62.00,VWS V14.00,2013-09-30 14:27:00,
2013-09-30 08:28:00,45.2,33.4,30.53,SSE,149,13.0,17.0,63,0.00,,,0.12,23.00,VWS V14.00,2013-09-30 14:28:00,
2013-09-30 08:29:00,45.7,33.4,30.55,South,174,4.0,17.0,62,0.00,,,0.12,54.00,VWS V14.00,2013-09-30 14:29:00,
2013-09-30 08:30:00,45.7,33.0,30.55,South,174,0.0,0.0,61,0.00,,,0.12,49.00,VWS V14.00,2013-09-30 14:30:00,
2013-09-30 08:31:00,45.7,33.4,30.55,South,172,0.0,0.0,62,0.00,,,0.12,47.00,VWS V14.00,2013-09-30 14:31:00,
2013-09-30 08:32:00,45.7,32.2,30.56,SSE,167,4.0,4.0,59,0.00,,,0.12,44.00,VWS V14.00,2013-09-30 14:32:00,
2013-09-30 08:33:00,45.5,32.8,30.53,SSE,150,10.0,17.0,61,0.00,,,0.12,21.00,VWS V14.00,2013-09-30 14:33:00,
2013-09-30 08:34:00,45.8,32.3,30.57,South,176,3.0,6.0,59,0.00,,,0.12,62.00,VWS V14.00,2013-09-30 14:34:00,
2013-09-30 08:35:00,45.8,32.7,30.57,SSW,194,2.0,7.0,60,0.00,,,0.12,70.00,VWS V14.00,2013-09-30 14:35:00,
2013-09-30 08:36:00,45.8,33.1,30.56,South,171,3.0,7.0,61,0.00,,,0.12,69.00,VWS V14.00,2013-09-30 14:36:00,
2013-09-30 08:37:00,45.9,34.4,30.57,South,183,4.0,7.0,64,0.00,,,0.12,63.00,VWS V14.00,2013-09-30 14:37:00,
2013-09-30 08:38:00,45.7,33.4,30.55,South,173,4.0,17.0,62,0.00,,,0.12,60.00,VWS V14.00,2013-09-30 14:38:00,
2013-09-30 08:39:00,45.9,33.6,30.57,SSE,155,3.0,7.0,62,0.00,,,0.12,47.00,VWS V14.00,2013-09-30 14:39:00,
2013-09-30 08:40:00,45.9,32.4,30.58,SE,130,4.0,7.0,59,0.00,,,0.12,40.00,VWS V14.00,2013-09-30 14:40:00,
2013-09-30 08:41:00,46.0,31.6,30.58,SE,130,0.0,7.0,57,0.00,,,0.12,39.00,VWS V14.00,2013-09-30 14:41:00,
2013-09-30 08:42:00,46.0,32.1,30.58,South,187,2.0,7.0,58,0.00,,,0.12,39.00,VWS V14.00,2013-09-30 14:42:00,
2013-09-30 08:43:00,45.8,32.3,30.56,South,177,3.0,6.0,59,0.00,,,0.12,47.00,VWS V14.00,2013-09-30 14:43:00,
2013-09-30 08:44:00,46.1,31.7,30.58,West,268,0.0,7.0,57,0.00,,,0.12,42.00,VWS V14.00,2013-09-30 14:44:00,
2013-09-30 08:45:00,46.1,32.2,30.59,West,268,0.0,0.0,58,0.00,,,0.12,44.00,VWS V14.00,2013-09-30 14:45:00,
2013-09-30 08:46:00,46.1,32.2,30.59,West,261,0.0,2.0,58,0.00,,,0.12,40.00,VWS V14.00,2013-09-30 14:46:00,
2013-09-30 08:47:00,46.2,33.1,30.59,West,261,0.0,2.0,60,0.00,,,0.12,37.00,VWS V14.00,2013-09-30 14:47:00,
2013-09-30 08:48:00,45.9,33.6,30.57,SSE,155,5.0,7.0,62,0.00,,,0.12,47.00,VWS V14.00,2013-09-30 14:48:00,
2013-09-30 08:49:00,46.2,33.9,30.59,SE,146,5.0,6.0,62,0.00,,,0.12,39.00,VWS V14.00,2013-09-30 14:49:00,
2013-09-30 08:50:00,46.3,33.6,30.59,SSE,147,2.0,6.0,61,0.00,,,0.12,40.00,VWS V14.00,2013-09-30 14:50:00,
2013-09-30 08:51:00,46.3,34.0,30.60,SSE,153,2.0,6.0,62,0.00,,,0.12,40.00,VWS V14.00,2013-09-30 14:51:00,
2013-09-30 08:52:00,46.3,34.4,30.60,SSE,154,1.0,6.0,63,0.00,,,0.12,37.00,VWS V14.00,2013-09-30 14:52:00,
2013-09-30 08:53:00,46.1,31.7,30.58,West,268,0.0,7.0,57,0.00,,,0.12,42.00,VWS V14.00,2013-09-30 14:53:00,
2013-09-30 08:54:00,46.4,35.3,30.59,SSE,153,4.0,6.0,65,0.00,,,0.12,28.00,VWS V14.00,2013-09-30 14:54:00,
2013-09-30 08:55:00,46.3,34.4,30.58,SE,144,2.0,6.0,63,0.00,,,0.12,32.00,VWS V14.00,2013-09-30 14:55:00,
2013-09-30 08:56:00,46.3,34.0,30.58,SE,142,3.0,6.0,62,0.00,,,0.12,35.00,VWS V14.00,2013-09-30 14:56:00,
2013-09-30 08:57:00,46.3,34.4,30.58,SE,143,3.0,6.0,63,0.00,,,0.12,39.00,VWS V14.00,2013-09-30 14:57:00,
2013-09-30 08:58:00,46.2,34.3,30.59,SE,146,4.0,6.0,63,0.00,,,0.12,39.00,VWS V14.00,2013-09-30 14:58:00,
2013-09-30 08:59:00,46.3,34.4,30.59,SE,134,0.0,6.0,63,0.00,,,0.12,35.00,VWS V14.00,2013-09-30 14:59:00,
2013-09-30 09:00:00,46.4,34.5,30.58,SE,135,0.0,0.0,63,0.00,,,0.12,28.00,VWS V14.00,2013-09-30 15:00:00,
2013-09-30 09:01:00,46.3,35.2,30.57,SE,134,0.0,0.0,65,0.00,,,0.12,30.00,VWS V14.00,2013-09-30 15:01:00,
2013-09-30 09:02:00,46.3,35.2,30.57,SE,134,0.0,0.0,65,0.00,,,0.12,37.00,VWS V14.00,2013-09-30 15:02:00,
2013-09-30 09:03:00,46.4,35.3,30.60,SSE,156,4.0,6.0,65,0.00,,,0.12,28.00,VWS V14.00,2013-09-30 15:03:00,
2013-09-30 09:04:00,46.3,35.6,30.55,SE,135,0.0,0.0,66,0.00,,,0.12,63.00,VWS V14.00,2013-09-30 15:04:00,
2013-09-30 09:05:00,46.3,36.0,30.55,SE,135,0.0,0.0,67,0.00,,,0.12,62.00,VWS V14.00,2013-09-30 15:05:00,
2013-09-30 09:06:00,46.3,35.6,30.55,SE,135,0.0,0.0,66,0.00,,,0.12,58.00,VWS V14.00,2013-09-30 15:06:00,
2013-09-30 09:07:00,46.3,36.0,30.55,SE,135,0.0,0.0,67,0.00,,,0.12,56.00,VWS V14.00,2013-09-30 15:07:00,
2013-09-30 09:08:00,46.3,34.4,30.59,SE,134,0.0,6.0,63,0.00,,,0.12,35.00,VWS V14.00,2013-09-30 15:08:00,
2013-09-30 09:09:00,46.2,35.9,30.55,SE,135,0.0,0.0,67,0.00,,,0.12,49.00,VWS V14.00,2013-09-30 15:09:00,
2013-09-30 09:10:00,46.2,35.9,30.55,SE,135,0.0,0.0,67,0.00,,,0.12,56.00,VWS V14.00,2013-09-30 15:10:00,
2013-09-30 09:11:00,46.2,35.5,30.56,SE,135,0.0,0.0,66,0.00,,,0.12,65.00,VWS V14.00,2013-09-30 15:11:00,
2013-09-30 09:12:00,46.1,35.4,30.56,SE,135,0.0,0.0,66,0.00,,,0.12,83.00,VWS V14.00,2013-09-30 15:12:00,
2013-09-30 09:13:00,46.3,35.6,30.56,SE,135,0.0,0.0,66,0.00,,,0.12,62.00,VWS V14.00,2013-09-30 15:13:00,
2013-09-30 09:14:00,46.1,33.4,30.56,SE,134,0.0,0.0,61,0.00,,,0.12,109.00,VWS V14.00,2013-09-30 15:14:00,
2013-09-30 09:15:00,46.1,33.8,30.56,SE,135,0.0,0.0,62,0.00,,,0.12,102.00,VWS V14.00,2013-09-30 15:15:00,
2013-09-30 09:16:00,46.1,34.2,30.56,SE,134,0.0,0.0,63,0.00,,,0.12,95.00,VWS V14.00,2013-09-30 15:16:00,
2013-09-30 09:17:00,46.1,34.2,30.56,SE,135,0.0,0.0,63,0.00,,,0.12,84.00,VWS V14.00,2013-09-30 15:17:00,
2013-09-30 09:18:00,46.2,35.9,30.55,SE,135,0.0,0.0,67,0.00,,,0.12,63.00,VWS V14.00,2013-09-30 15:18:00,
2013-09-30 09:19:00,46.1,33.8,30.57,SE,135,0.0,0.0,62,0.00,,,0.12,77.00,VWS V14.00,2013-09-30 15:19:00,
2013-09-30 09:20:00,46.1,33.8,30.56,SE,135,0.0,0.0,62,0.00,,,0.12,76.00,VWS V14.00,2013-09-30 15:20:00,
2013-09-30 09:21:00,46.1,34.2,30.56,SE,135,0.0,0.0,63,0.00,,,0.12,62.00,VWS V14.00,2013-09-30 15:21:00,
2013-09-30 09:22:00,46.2,35.5,30.57,SE,134,0.0,0.0,66,0.00,,,0.12,65.00,VWS V14.00,2013-09-30 15:22:00,
2013-09-30 09:23:00,46.1,33.4,30.56,SE,134,0.0,0.0,61,0.00,,,0.12,109.00,VWS V14.00,2013-09-30 15:23:00,
2013-09-30 09:24:00,46.2,34.7,30.57,North,11,0.0,4.0,64,0.00,,,0.12,76.00,VWS V14.00,2013-09-30 15:24:00,
2013-09-30 09:25:00,46.3,34.4,30.57,North,11,0.0,4.0,63,0.00,,,0.12,91.00,VWS V14.00,2013-09-30 15:25:00,
2013-09-30 09:26:00,46.3,33.6,30.57,North,11,0.0,4.0,61,0.00,,,0.12,91.00,VWS V14.00,2013-09-30 15:26:00,
2013-09-30 09:27:00,46.4,34.1,30.57,North,11,0.0,4.0,62,0.00,,,0.12,86.00,VWS V14.00,2013-09-30 15:27:00,
2013-09-30 09:28:00,46.1,34.2,30.56,SE,134,0.0,0.0,63,0.00,,,0.12,77.00,VWS V14.00,2013-09-30 15:28:00,
2013-09-30 09:29:00,46.5,34.6,30.58,North,11,0.0,4.0,63,0.00,,,0.12,84.00,VWS V14.00,2013-09-30 15:29:00,
2013-09-30 09:30:00,46.5,33.8,30.58,North,11,0.0,0.0,61,0.00,,,0.12,91.00,VWS V14.00,2013-09-30 15:30:00,
2013-09-30 09:31:00,46.6,34.3,30.58,North,11,0.0,0.0,62,0.00,,,0.12,97.00,VWS V14.00,2013-09-30 15:31:00,
2013-09-30 09:32:00,46.6,34.7,30.58,North,5,0.0,0.0,63,0.00,,,0.12,116.00,VWS V14.00,2013-09-30 15:32:00,
2013-09-30 09:33:00,46.2,34.7,30.57,NNE,12,2.0,4.0,64,0.00,,,0.12,76.00,VWS V14.00,2013-09-30 15:33:00,
2013-09-30 09:34:00,46.7,33.6,30.58,North,350,0.0,3.0,60,0.00,,,0.12,118.00,VWS V14.00,2013-09-30 15:34:00,
2013-09-30 09:35:00,46.7,33.6,30.58,North,350,0.0,3.0,60,0.00,,,0.12,107.00,VWS V14.00,2013-09-30 15:35:00,
2013-09-30 09:36:00,46.7,34.0,30.58,North,350,0.0,3.0,61,0.00,,,0.12,113.00,VWS V14.00,2013-09-30 15:36:00,
2013-09-30 09:37:00,46.8,34.9,30.58,North,355,3.0,3.0,63,0.00,,,0.12,135.00,VWS V14.00,2013-09-30 15:37:00,
2013-09-30 09:38:00,46.5,34.6,30.57,North,11,0.0,4.0,63,0.00,,,0.12,84.00,VWS V14.00,2013-09-30 15:38:00,
2013-09-30 09:39:00,46.9,31.6,30.59,SSE,157,3.0,4.0,55,0.00,,,0.12,113.00,VWS V14.00,2013-09-30 15:39:00,
2013-09-30 09:40:00,47.0,31.7,30.59,SSE,157,3.0,5.0,55,0.00,,,0.12,100.00,VWS V14.00,2013-09-30 15:40:00,
2013-09-30 09:41:00,47.1,31.3,30.59,SSE,159,4.0,5.0,54,0.00,,,0.12,97.00,VWS V14.00,2013-09-30 15:41:00,
2013-09-30 09:42:00,47.2,32.3,30.59,SSE,160,3.0,5.0,56,0.00,,,0.12,98.00,VWS V14.00,2013-09-30 15:42:00,
2013-09-30 09:43:00,46.7,33.6,30.58,North,350,0.0,3.0,60,0.00,,,0.12,118.00,VWS V14.00,2013-09-30 15:43:00,
2013-09-30 09:44:00,47.3,31.5,30.59,SSE,159,0.0,5.0,54,0.00,,,0.12,90.00,VWS V14.00,2013-09-30 15:44:00,
2013-09-30 09:45:00,47.4,32.1,30.59,SSE,159,0.0,0.0,55,0.00,,,0.12,90.00,VWS V14.00,2013-09-30 15:45:00,
2013-09-30 09:46:00,47.4,31.1,30.59,SSE,159,0.0,0.0,53,0.00,,,0.12,93.00,VWS V14.00,2013-09-30 15:46:00,
2013-09-30 09:47:00,47.4,31.1,30.59,SSE,159,2.0,4.0,53,0.00,,,0.12,100.00,VWS V14.00,2013-09-30 15:47:00,
2013-09-30 09:48:00,46.9,31.6,30.59,SSE,159,3.0,4.0,55,0.00,,,0.12,125.00,VWS V14.00,2013-09-30 15:48:00,
2013-09-30 09:49:00,47.5,30.3,30.58,SSE,159,0.0,4.0,51,0.00,,,0.12,151.00,VWS V14.00,2013-09-30 15:49:00,
2013-09-30 09:50:00,47.6,30.9,30.58,South,191,2.0,4.0,52,0.00,,,0.12,141.00,VWS V14.00,2013-09-30 15:50:00,
2013-09-30 09:51:00,47.7,31.0,30.58,SW,229,2.0,4.0,52,0.00,,,0.12,127.00,VWS V14.00,2013-09-30 15:51:00,
2013-09-30 09:52:00,47.7,31.0,30.58,SW,231,0.0,4.0,52,0.00,,,0.12,109.00,VWS V14.00,2013-09-30 15:52:00,
2013-09-30 09:53:00,47.3,31.5,30.59,SSE,159,0.0,5.0,54,0.00,,,0.12,90.00,VWS V14.00,2013-09-30 15:53:00,
2013-09-30 09:54:00,47.8,30.1,30.58,SW,231,0.0,4.0,50,0.00,,,0.12,104.00,VWS V14.00,2013-09-30 15:54:00,
2013-09-30 09:55:00,47.9,30.2,30.58,SW,231,0.0,4.0,50,0.00,,,0.12,109.00,VWS V14.00,2013-09-30 15:55:00,
2013-09-30 09:56:00,48.0,30.3,30.58,SW,230,0.0,4.0,50,0.00,,,0.12,151.00,VWS V14.00,2013-09-30 15:56:00,
2013-09-30 09:57:00,48.0,30.8,30.58,SW,230,0.0,4.0,51,0.00,,,0.12,163.00,VWS V14.00,2013-09-30 15:57:00,
2013-09-30 09:58:00,47.5,30.3,30.58,SSE,159,0.0,4.0,51,0.00,,,0.12,151.00,VWS V14.00,2013-09-30 15:58:00,
2013-09-30 09:59:00,48.1,30.8,30.58,SW,231,0.0,4.0,51,0.00,,,0.12,163.00,VWS V14.00,2013-09-30 15:59:00,
2013-09-30 10:00:00,48.2,29.5,30.58,SW,231,0.0,0.0,48,0.00,,,0.12,153.00,VWS V14.00,2013-09-30 16:00:00,
2013-09-30 10:01:00,48.2,29.5,30.58,SW,233,0.0,0.0,48,0.00,,,0.12,155.00,VWS V14.00,2013-09-30 16:01:00,
2013-09-30 10:02:00,48.3,30.5,30.58,SW,233,0.0,0.0,50,0.00,,,0.12,176.00,VWS V14.00,2013-09-30 16:02:00,
2013-09-30 10:03:00,47.8,30.1,30.58,SW,230,0.0,4.0,50,0.00,,,0.12,104.00,VWS V14.00,2013-09-30 16:03:00,
2013-09-30 10:04:00,48.4,31.1,30.58,SW,234,0.0,0.0,51,0.00,,,0.12,171.00,VWS V14.00,2013-09-30 16:04:00,
2013-09-30 10:05:00,48.5,32.2,30.58,SW,236,0.0,1.0,53,0.00,,,0.12,172.00,VWS V14.00,2013-09-30 16:05:00,
2013-09-30 10:06:00,48.6,30.8,30.58,SW,236,0.0,1.0,50,0.00,,,0.12,172.00,VWS V14.00,2013-09-30 16:06:00,
2013-09-30 10:07:00,48.6,31.3,30.57,WSW,250,0.0,1.0,51,0.00,,,0.12,172.00,VWS V14.00,2013-09-30 16:07:00,
2013-09-30 10:08:00,48.1,30.8,30.58,SW,231,0.0,4.0,51,0.00,,,0.12,163.00,VWS V14.00,2013-09-30 16:08:00,
2013-09-30 10:09:00,48.8,32.4,30.58,NNW,346,0.0,1.0,53,0.00,,,0.12,192.00,VWS V14.00,2013-09-30 16:09:00,
2013-09-30 10:10:00,48.8,32.9,30.57,NNW,346,0.0,1.0,54,0.00,,,0.12,139.00,VWS V14.00,2013-09-30 16:10:00,
2013-09-30 10:11:00,48.9,33.5,30.57,NNW,346,0.0,1.0,55,0.00,,,0.12,139.00,VWS V14.00,2013-09-30 16:11:00,
2013-09-30 10:12:00,48.9,33.9,30.57,NNW,346,0.0,1.0,56,0.00,,,0.12,163.00,VWS V14.00,2013-09-30 16:12:00,
2013-09-30 10:13:00,48.4,31.1,30.58,SW,234,0.0,0.0,51,0.00,,,0.12,171.00,VWS V14.00,2013-09-30 16:13:00,
2013-09-30 10:14:00,49.0,33.1,30.57,NNW,342,0.0,2.0,54,0.00,,,0.12,172.00,VWS V14.00,2013-09-30 16:14:00,
2013-09-30 10:15:00,49.0,32.6,30.58,NNW,342,0.0,0.0,53,0.00,,,0.12,214.00,VWS V14.00,2013-09-30 16:15:00,
2013-09-30 10:16:00,49.1,32.7,30.58,NNW,342,0.0,0.0,53,0.00,,,0.12,199.00,VWS V14.00,2013-09-30 16:16:00,
2013-09-30 10:17:00,49.2,32.3,30.58,NNW,344,0.0,3.0,52,0.00,,,0.12,199.00,VWS V14.00,2013-09-30 16:17:00,
2013-09-30 10:18:00,48.8,32.4,30.58,NNW,346,0.0,1.0,53,0.00,,,0.12,192.00,VWS V14.00,2013-09-30 16:18:00,
2013-09-30 10:19:00,49.2,31.4,30.58,NNW,348,0.0,3.0,50,0.00,,,0.12,130.00,VWS V14.00,2013-09-30 16:19:00,
2013-09-30 10:20:00,49.3,30.5,30.58,NNW,348,0.0,3.0,48,0.00,,,0.12,128.00,VWS V14.00,2013-09-30 16:20:00,
2013-09-30 10:21:00,49.3,30.5,30.58,NNW,348,0.0,3.0,48,0.00,,,0.12,139.00,VWS V14.00,2013-09-30 16:21:00,
2013-09-30 10:22:00,49.4,32.0,30.58,NNW,348,0.0,3.0,51,0.00,,,0.12,146.00,VWS V14.00,2013-09-30 16:22:00,
2013-09-30 10:23:00,49.0,33.1,30.58,NNW,342,0.0,2.0,54,0.00,,,0.12,171.00,VWS V14.00,2013-09-30 16:23:00,
2013-09-30 10:24:00,49.5,31.1,30.58,NNW,348,0.0,3.0,49,0.00,,,0.12,162.00,VWS V14.00,2013-09-30 16:24:00,
2013-09-30 10:25:00,49.5,31.6,30.58,NNW,348,0.0,3.0,50,0.00,,,0.12,195.00,VWS V14.00,2013-09-30 16:25:00,
2013-09-30 10:26:00,49.6,32.2,30.58,NNW,348,0.0,3.0,51,0.00,,,0.12,195.00,VWS V14.00,2013-09-30 16:26:00,
2013-09-30 10:27:00,49.6,31.2,30.58,NNW,348,0.0,3.0,49,0.00,,,0.12,195.00,VWS V14.00,2013-09-30 16:27:00,
2013-09-30 10:28:00,49.2,31.4,30.58,NNW,345,0.0,3.0,50,0.00,,,0.12,144.00,VWS V14.00,2013-09-30 16:28:00,
2013-09-30 10:29:00,49.7,32.3,30.58,NNW,348,0.0,3.0,51,0.00,,,0.12,225.00,VWS V14.00,2013-09-30 16:29:00,
2013-09-30 10:30:00,49.8,32.4,30.58,NNW,348,0.0,0.0,51,0.00,,,0.12,199.00,VWS V14.00,2013-09-30 16:30:00,
2013-09-30 10:31:00,49.8,31.9,30.58,NNW,348,0.0,0.0,50,0.00,,,0.12,209.00,VWS V14.00,2013-09-30 16:31:00,
2013-09-30 10:32:00,49.9,31.0,30.59,NNW,348,0.0,0.0,48,0.00,,,0.12,192.00,VWS V14.00,2013-09-30 16:32:00,
2013-09-30 10:33:00,49.5,32.1,30.58,NNW,348,0.0,3.0,51,0.00,,,0.12,162.00,VWS V14.00,2013-09-30 16:33:00,
2013-09-30 10:34:00,50.0,31.1,30.59,NNW,348,0.0,0.0,48,0.00,,,0.12,188.00,VWS V14.00,2013-09-30 16:34:00,
2013-09-30 10:35:00,50.0,31.1,30.59,NNW,348,0.0,0.0,48,0.00,,,0.12,178.00,VWS V14.00,2013-09-30 16:35:00,
2013-09-30 10:36:00,50.0,32.1,30.59,NW,326,1.0,3.0,50,0.00,,,0.12,190.00,VWS V14.00,2013-09-30 16:36:00,
2013-09-30 10:37:00,50.0,32.6,30.59,NW,325,2.0,3.0,51,0.00,,,0.12,255.00,VWS V14.00,2013-09-30 16:37:00,
2013-09-30 10:38:00,49.7,32.3,30.58,NNW,348,0.0,3.0,51,0.00,,,0.12,225.00,VWS V14.00,2013-09-30 16:38:00,
2013-09-30 10:39:00,50.1,33.7,30.59,NW,324,2.0,3.0,53,0.00,,,0.12,255.00,VWS V14.00,2013-09-30 16:39:00,
2013-09-30 10:40:00,50.2,32.8,30.59,NW,324,2.0,3.0,51,0.00,,,0.12,229.00,VWS V14.00,2013-09-30 16:40:00,
2013-09-30 10:41:00,50.2,31.8,30.60,NW,324,3.0,4.0,49,0.00,,,0.12,243.00,VWS V14.00,2013-09-30 16:41:00,
2013-09-30 10:42:00,50.2,31.3,30.60,NW,324,0.0,4.0,48,0.00,,,0.12,295.00,VWS V14.00,2013-09-30 16:42:00,
2013-09-30 10:43:00,49.9,31.0,30.59,NNW,348,0.0,0.0,48,0.00,,,0.12,188.00,VWS V14.00,2013-09-30 16:43:00,
2013-09-30 10:44:00,50.2,32.3,30.60,NW,324,0.0,4.0,50,0.00,,,0.12,172.00,VWS V14.00,2013-09-30 16:44:00,
2013-09-30 10:45:00,50.3,31.9,30.60,NW,324,0.0,0.0,49,0.00,,,0.12,202.00,VWS V14.00,2013-09-30 16:45:00,
2013-09-30 10:46:00,50.3,31.4,30.60,NW,324,0.0,0.0,48,0.00,,,0.12,202.00,VWS V14.00,2013-09-30 16:46:00,
2013-09-30 10:47:00,50.4,33.5,30.60,NW,323,0.0,0.0,52,0.00,,,0.12,202.00,VWS V14.00,2013-09-30 16:47:00,
2013-09-30 10:48:00,50.1,33.7,30.59,NW,324,3.0,3.0,53,0.00,,,0.12,255.00,VWS V14.00,2013-09-30 16:48:00,
2013-09-30 10:49:00,50.6,33.2,30.59,NW,323,0.0,0.0,51,0.00,,,0.12,318.00,VWS V14.00,2013-09-30 16:49:00,
2013-09-30 10:50:00,50.6,33.2,30.59,NW,323,0.0,0.0,51,0.00,,,0.12,174.00,VWS V14.00,2013-09-30 16:50:00,
2013-09-30 10:51:00,50.7,33.7,30.59,NW,323,0.0,0.0,52,0.00,,,0.12,153.00,VWS V14.00,2013-09-30 16:51:00,
2013-09-30 10:52:00,50.7,33.7,30.59,NW,324,0.0,0.0,52,0.00,,,0.12,137.00,VWS V14.00,2013-09-30 16:52:00,
2013-09-30 10:53:00,50.2,32.3,30.60,NW,324,0.0,4.0,50,0.00,,,0.12,156.00,VWS V14.00,2013-09-30 16:53:00,
2013-09-30 10:54:00,50.8,32.8,30.59,NW,324,0.0,0.0,50,0.00,,,0.12,137.00,VWS V14.00,2013-09-30 16:54:00,
2013-09-30 10:55:00,50.8,32.3,30.59,SSW,206,2.0,4.0,49,0.00,,,0.12,169.00,VWS V14.00,2013-09-30 16:55:00,
2013-09-30 10:56:00,50.9,33.4,30.59,SE,133,3.0,4.0,51,0.00,,,0.12,213.00,VWS V14.00,2013-09-30 16:56:00,
2013-09-30 10:57:00,50.9,33.4,30.59,SE,137,2.0,4.0,51,0.00,,,0.12,213.00,VWS V14.00,2013-09-30 16:57:00,
2013-09-30 10:58:00,50.5,33.1,30.59,NW,323,0.0,0.0,51,0.00,,,0.12,318.00,VWS V14.00,2013-09-30 16:58:00,
2013-09-30 10:59:00,51.1,33.1,30.59,SE,137,0.0,4.0,50,0.00,,,0.12,213.00,VWS V14.00,2013-09-30 16:59:00,
2013-09-30 11:00:00,51.1,31.6,30.60,SE,137,0.0,0.0,47,0.00,,,0.12,281.00,VWS V14.00,2013-09-30 17:00:00,
2013-09-30 11:01:00,51.2,30.6,30.60,SE,137,0.0,0.0,45,0.00,,,0.12,281.00,VWS V14.00,2013-09-30 17:01:00,
2013-09-30 11:02:00,51.4,31.3,30.60,SE,137,0.0,0.0,46,0.00,,,0.12,789.00,VWS V14.00,2013-09-30 17:02:00,
2013-09-30 11:03:00,50.8,32.8,30.59,NW,323,0.0,0.0,50,0.00,,,0.12,137.00,VWS V14.00,2013-09-30 17:03:00,
2013-09-30 11:04:00,51.6,32.0,30.59,SE,138,0.0,0.0,47,0.00,,,0.12,765.00,VWS V14.00,2013-09-30 17:04:00,
2013-09-30 11:05:00,51.8,31.7,30.59,SE,137,1.0,1.0,46,0.00,,,0.12,339.00,VWS V14.00,2013-09-30 17:05:00,
2013-09-30 11:06:00,51.9,33.9,30.59,SSE,156,0.0,1.0,50,0.00,,,0.12,339.00,VWS V14.00,2013-09-30 17:06:00,
2013-09-30 11:07:00,52.0,32.4,30.59,West,274,1.0,3.0,47,0.00,,,0.12,200.00,VWS V14.00,2013-09-30 17:07:00,
2013-09-30 11:08:00,51.0,32.5,30.59,SE,137,0.0,4.0,49,0.00,,,0.12,213.00,VWS V14.00,2013-09-30 17:08:00,
2013-09-30 11:09:00,52.1,33.0,30.59,NW,321,4.0,5.0,48,0.00,,,0.12,169.00,VWS V14.00,2013-09-30 17:09:00,
2013-09-30 11:10:00,52.2,33.6,30.59,NNW,336,4.0,6.0,49,0.00,,,0.12,195.00,VWS V14.00,2013-09-30 17:10:00,
2013-09-30 11:11:00,52.2,33.1,30.59,NW,318,4.0,6.0,48,0.00,,,0.12,195.00,VWS V14.00,2013-09-30 17:11:00,
2013-09-30 11:12:00,52.1,34.0,30.59,NNW,340,4.0,7.0,50,0.00,,,0.12,209.00,VWS V14.00,2013-09-30 17:12:00,
2013-09-30 11:13:00,51.5,32.0,30.59,SE,138,0.0,0.0,47,0.00,,,0.12,765.00,VWS V14.00,2013-09-30 17:13:00,
2013-09-30 11:14:00,52.1,35.5,30.59,NNW,340,0.0,7.0,53,0.00,,,0.12,199.00,VWS V14.00,2013-09-30 17:14:00,
2013-09-30 11:15:00,52.0,33.5,30.59,North,9,2.0,6.0,49,0.00,,,0.12,200.00,VWS V14.00,2013-09-30 17:15:00,
2013-09-30 11:16:00,51.9,30.7,30.59,North,9,0.0,6.0,44,0.00,,,0.12,211.00,VWS V14.00,2013-09-30 17:16:00,
2013-09-30 11:17:00,51.8,31.1,30.59,North,9,0.0,6.0,45,0.00,,,0.12,225.00,VWS V14.00,2013-09-30 17:17:00,
2013-09-30 11:18:00,52.1,33.0,30.59,West,281,3.0,4.0,48,0.00,,,0.12,169.00,VWS V14.00,2013-09-30 17:18:00,
2013-09-30 11:19:00,51.8,30.0,30.59,North,9,0.0,6.0,43,0.00,,,0.12,230.00,VWS V14.00,2013-09-30 17:19:00,
2013-09-30 11:20:00,51.7,29.9,30.60,North,9,0.0,6.0,43,0.00,,,0.12,218.00,VWS V14.00,2013-09-30 17:20:00,
2013-09-30 11:21:00,51.7,29.9,30.60,North,9,0.0,6.0,43,0.00,,,0.12,197.00,VWS V14.00,2013-09-30 17:21:00,
2013-09-30 11:22:00,51.7,31.1,30.60,North,9,4.0,6.0,45,0.00,,,0.12,185.00,VWS V14.00,2013-09-30 17:22:00,
2013-09-30 11:23:00,52.1,35.5,30.59,NNW,340,1.0,7.0,53,0.00,,,0.12,199.00,VWS V14.00,2013-09-30 17:23:00,
2013-09-30 11:24:00,51.7,31.1,30.60,West,266,0.0,6.0,45,0.00,,,0.12,190.00,VWS V14.00,2013-09-30 17:24:00,
2013-09-30 11:25:00,51.7,32.7,30.60,West,259,0.0,6.0,48,0.00,,,0.12,192.00,VWS V14.00,2013-09-30 17:25:00,
2013-09-30 11:26:00,51.7,32.7,30.60,SW,236,0.0,6.0,48,0.00,,,0.12,185.00,VWS V14.00,2013-09-30 17:26:00,
2013-09-30 11:27:00,51.6,31.0,30.60,SSW,213,0.0,6.0,45,0.00,,,0.12,183.00,VWS V14.00,2013-09-30 17:27:00,
2013-09-30 11:28:00,51.8,30.0,30.59,North,9,0.0,6.0,43,0.00,,,0.12,230.00,VWS V14.00,2013-09-30 17:28:00,
2013-09-30 11:29:00,51.6,32.6,30.60,SSE,147,3.0,6.0,48,0.00,,,0.12,276.00,VWS V14.00,2013-09-30 17:29:00,
2013-09-30 11:30:00,51.6,32.6,30.60,South,171,5.0,5.0,48,0.00,,,0.12,276.00,VWS V14.00,2013-09-30 17:30:00,
2013-09-30 11:31:00,51.5,32.0,30.60,South,182,0.0,6.0,47,0.00,,,0.12,276.00,VWS V14.00,2013-09-30 17:31:00,
2013-09-30 11:32:00,51.6,33.1,30.60,WNW,288,4.0,6.0,49,0.00,,,0.12,276.00,VWS V14.00,2013-09-30 17:32:00,
2013-09-30 11:33:00,51.7,31.1,30.60,West,265,0.0,6.0,45,0.00,,,0.12,190.00,VWS V14.00,2013-09-30 17:33:00,
2013-09-30 11:34:00,51.7,32.7,30.60,NW,317,4.0,7.0,48,0.00,,,0.12,178.00,VWS V14.00,2013-09-30 17:34:00,
2013-09-30 11:35:00,51.7,34.7,30.61,WNW,292,5.0,7.0,52,0.00,,,0.12,183.00,VWS V14.00,2013-09-30 17:35:00,
2013-09-30 11:36:00,51.6,33.6,30.60,WNW,302,7.0,7.0,50,0.00,,,0.12,220.00,VWS V14.00,2013-09-30 17:36:00,
2013-09-30 11:37:00,51.6,31.0,30.61,WNW,303,3.0,7.0,45,0.00,,,0.12,220.00,VWS V14.00,2013-09-30 17:37:00,
2013-09-30 11:38:00,51.6,32.6,30.60,South,169,6.0,6.0,48,0.00,,,0.12,218.00,VWS V14.00,2013-09-30 17:38:00,
2013-09-30 11:39:00,51.5,29.8,30.61,WNW,303,0.0,7.0,43,0.00,,,0.12,199.00,VWS V14.00,2013-09-30 17:39:00,
2013-09-30 11:40:00,51.5,32.0,30.60,WNW,303,0.0,7.0,47,0.00,,,0.12,204.00,VWS V14.00,2013-09-30 17:40:00,
2013-09-30 11:41:00,51.5,32.0,30.60,WNW,303,0.0,7.0,47,0.00,,,0.12,234.00,VWS V14.00,2013-09-30 17:41:00,
2013-09-30 11:42:00,51.5,32.0,30.60,WNW,302,0.0,7.0,47,0.00,,,0.12,258.00,VWS V14.00,2013-09-30 17:42:00,
2013-09-30 11:43:00,51.7,34.2,30.60,NW,317,3.0,7.0,51,0.00,,,0.12,178.00,VWS V14.00,2013-09-30 17:43:00,
2013-09-30 11:44:00,51.5,32.0,30.60,WNW,302,0.0,7.0,47,0.00,,,0.12,258.00,VWS V14.00,2013-09-30 17:44:00,
2013-09-30 11:45:00,51.6,31.5,30.60,WNW,302,0.0,0.0,46,0.00,,,0.12,369.00,VWS V14.00,2013-09-30 17:45:00,
2013-09-30 11:46:00,51.6,33.6,30.60,WNW,303,4.0,4.0,50,0.00,,,0.12,369.00,VWS V14.00,2013-09-30 17:46:00,
2013-09-30 11:47:00,51.6,32.0,30.61,NW,304,0.0,4.0,47,0.00,,,0.12,369.00,VWS V14.00,2013-09-30 17:47:00,
2013-09-30 11:48:00,51.5,30.3,30.60,WNW,303,0.0,7.0,44,0.00,,,0.12,199.00,VWS V14.00,2013-09-30 17:48:00,
2013-09-30 11:49:00,51.7,31.1,30.61,NW,304,0.0,4.0,45,0.00,,,0.12,206.00,VWS V14.00,2013-09-30 17:49:00,
2013-09-30 11:50:00,51.7,31.6,30.61,NW,304,0.0,4.0,46,0.00,,,0.12,229.00,VWS V14.00,2013-09-30 17:50:00,
2013-09-30 11:51:00,51.7,33.7,30.61,WNW,303,0.0,4.0,50,0.00,,,0.12,264.00,VWS V14.00,2013-09-30 17:51:00,
2013-09-30 11:52:00,51.8,32.8,30.61,WNW,302,2.0,4.0,48,0.00,,,0.12,234.00,VWS V14.00,2013-09-30 17:52:00,
2013-09-30 11:53:00,51.5,32.0,30.60,WNW,302,0.0,7.0,47,0.00,,,0.12,258.00,VWS V14.00,2013-09-30 17:53:00,
2013-09-30 11:54:00,51.8,32.8,30.61,WNW,298,0.0,4.0,48,0.00,,,0.12,334.00,VWS V14.00,2013-09-30 17:54:00,
2013-09-30 11:55:00,51.9,32.8,30.61,WNW,298,0.0,4.0,48,0.00,,,0.12,359.00,VWS V14.00,2013-09-30 17:55:00,
2013-09-30 11:56:00,51.9,33.9,30.61,WNW,302,5.0,5.0,50,0.00,,,0.12,267.00,VWS V14.00,2013-09-30 17:56:00,
2013-09-30 11:57:00,51.9,32.8,30.61,NW,309,3.0,5.0,48,0.00,,,0.12,255.00,VWS V14.00,2013-09-30 17:57:00,
2013-09-30 11:58:00,51.7,31.1,30.61,WNW,303,0.0,4.0,45,0.00,,,0.12,206.00,VWS V14.00,2013-09-30 17:58:00,
2013-09-30 11:59:00,52.0,35.9,30.61,NW,319,3.0,5.0,54,0.00,,,0.12,276.00,VWS V14.00,2013-09-30 17:59:00,
2013-09-30 12:00:00,52.1,33.5,30.61,NW,319,0.0,0.0,49,0.00,,,0.12,276.00,VWS V14.00,2013-09-30 18:00:00,
2013-09-30 12:01:00,52.1,32.5,30.61,NW,319,0.0,0.0,47,0.00,,,0.12,276.00,VWS V14.00,2013-09-30 18:01:00,
2013-09-30 12:02:00,52.1,32.0,30.61,NW,319,0.0,0.0,46,0.00,,,0.12,276.00,VWS V14.00,2013-09-30 18:02:00,
2013-09-30 12:03:00,51.8,32.8,30.61,WNW,298,0.0,4.0,48,0.00,,,0.12,278.00,VWS V14.00,2013-09-30 18:03:00,
2013-09-30 12:04:00,52.2,32.6,30.61,NW,319,0.0,0.0,47,0.00,,,0.12,149.00,VWS V14.00,2013-09-30 18:04:00,
2013-09-30 12:05:00,52.2,32.1,30.61,NW,319,0.0,0.0,46,0.00,,,0.12,144.00,VWS V14.00,2013-09-30 18:05:00,
2013-09-30 12:06:00,52.2,33.1,30.61,NW,319,0.0,0.0,48,0.00,,,0.12,151.00,VWS V14.00,2013-09-30 18:06:00,
2013-09-30 12:07:00,52.2,32.6,30.61,NW,319,0.0,0.0,47,0.00,,,0.12,171.00,VWS V14.00,2013-09-30 18:07:00,
2013-09-30 12:08:00,52.0,35.9,30.61,NW,318,2.0,5.0,54,0.00,,,0.12,276.00,VWS V14.00,2013-09-30 18:08:00,
2013-09-30 12:09:00,52.3,32.2,30.61,NW,319,0.0,0.0,46,0.00,,,0.12,236.00,VWS V14.00,2013-09-30 18:09:00,
2013-09-30 12:10:00,52.3,33.2,30.61,NW,319,0.0,0.0,48,0.00,,,0.12,258.00,VWS V14.00,2013-09-30 18:10:00,
2013-09-30 12:11:00,52.2,32.1,30.61,NW,319,0.0,0.0,46,0.00,,,0.12,237.00,VWS V14.00,2013-09-30 18:11:00,
2013-09-30 12:12:00,52.3,32.2,30.61,NW,319,0.0,0.0,46,0.00,,,0.12,283.00,VWS V14.00,2013-09-30 18:12:00,
2013-09-30 12:13:00,52.2,32.6,30.61,NW,319,0.0,0.0,47,0.00,,,0.12,149.00,VWS V14.00,2013-09-30 18:13:00,
2013-09-30 12:14:00,52.2,33.1,30.61,NW,322,2.0,4.0,48,0.00,,,0.12,283.00,VWS V14.00,2013-09-30 18:14:00,
2013-09-30 12:15:00,52.3,34.2,30.61,NW,322,0.0,0.0,50,0.00,,,0.12,227.00,VWS V14.00,2013-09-30 18:15:00,
2013-09-30 12:16:00,52.3,34.7,30.61,NW,322,0.0,0.0,51,0.00,,,0.12,216.00,VWS V14.00,2013-09-30 18:16:00,
2013-09-30 12:17:00,52.3,34.7,30.61,NW,321,3.0,3.0,51,0.00,,,0.12,220.00,VWS V14.00,2013-09-30 18:17:00,
2013-09-30 12:18:00,52.2,33.6,30.61,NW,319,0.0,0.0,49,0.00,,,0.12,236.00,VWS V14.00,2013-09-30 18:18:00,
2013-09-30 12:19:00,52.3,33.7,30.61,South,180,2.0,4.0,49,0.00,,,0.12,237.00,VWS V14.00,2013-09-30 18:19:00,
2013-09-30 12:20:00,52.3,35.2,30.61,South,184,4.0,5.0,52,0.00,,,0.12,257.00,VWS V14.00,2013-09-30 18:20:00,
2013-09-30 12:21:00,52.4,33.8,30.61,SSE,152,6.0,7.0,49,0.00,,,0.12,195.00,VWS V14.00,2013-09-30 18:21:00,
2013-09-30 12:22:00,52.3,30.5,30.61,SE,142,8.0,8.0,43,0.00,,,0.12,186.00,VWS V14.00,2013-09-30 18:22:00,
2013-09-30 12:23:00,52.3,32.2,30.61,NW,322,3.0,4.0,46,0.00,,,0.12,283.00,VWS V14.00,2013-09-30 18:23:00,
2013-09-30 12:24:00,52.3,33.7,30.61,SSE,166,0.0,11.0,49,0.00,,,0.12,195.00,VWS V14.00,2013-09-30 18:24:00,
2013-09-30 12:25:00,52.3,34.2,30.61,SSE,167,2.0,11.0,50,0.00,,,0.12,209.00,VWS V14.00,2013-09-30 18:25:00,
2013-09-30 12:26:00,52.3,33.2,30.61,South,187,0.0,11.0,48,0.00,,,0.12,227.00,VWS V14.00,2013-09-30 18:26:00,
2013-09-30 12:27:00,52.3,31.6,30.62,South,175,1.0,11.0,45,0.00,,,0.12,225.00,VWS V14.00,2013-09-30 18:27:00,
2013-09-30 12:28:00,52.3,33.7,30.61,South,187,3.0,4.0,49,0.00,,,0.12,237.00,VWS V14.00,2013-09-30 18:28:00,
2013-09-30 12:29:00,52.3,33.7,30.61,SSW,211,0.0,11.0,49,0.00,,,0.12,241.00,VWS V14.00,2013-09-30 18:29:00,
2013-09-30 12:30:00,52.3,32.2,30.61,SSW,209,0.0,0.0,46,0.00,,,0.12,236.00,VWS V14.00,2013-09-30 18:30:00,
2013-09-30 12:31:00,52.3,32.2,30.61,SSW,204,0.0,0.0,46,0.00,,,0.12,207.00,VWS V14.00,2013-09-30 18:31:00,
2013-09-30 12:32:00,52.2,30.4,30.61,SSE,157,4.0,4.0,43,0.00,,,0.12,174.00,VWS V14.00,2013-09-30 18:32:00,
2013-09-30 12:33:00,52.3,33.7,30.61,SSE,165,0.0,11.0,49,0.00,,,0.12,195.00,VWS V14.00,2013-09-30 18:33:00,
2013-09-30 12:34:00,52.2,34.1,30.62,South,176,0.0,5.0,50,0.00,,,0.12,135.00,VWS V14.00,2013-09-30 18:34:00,
2013-09-30 12:35:00,52.2,31.5,30.62,South,169,2.0,5.0,45,0.00,,,0.12,120.00,VWS V14.00,2013-09-30 18:35:00,
2013-09-30 12:36:00,52.2,32.1,30.62,South,172,0.0,5.0,46,0.00,,,0.12,111.00,VWS V14.00,2013-09-30 18:36:00,
2013-09-30 12:37:00,52.2,31.0,30.62,West,277,2.0,6.0,44,0.00,,,0.12,107.00,VWS V14.00,2013-09-30 18:37:00,
2013-09-30 12:38:00,52.3,33.7,30.61,SSW,211,0.0,11.0,49,0.00,,,0.12,230.00,VWS V14.00,2013-09-30 18:38:00,
2013-09-30 12:39:00,52.1,32.0,30.62,South,175,2.0,6.0,46,0.00,,,0.12,100.00,VWS V14.00,2013-09-30 18:39:00,
2013-09-30 12:40:00,52.1,32.0,30.62,South,178,1.0,6.0,46,0.00,,,0.12,114.00,VWS V14.00,2013-09-30 18:40:00,
2013-09-30 12:41:00,52.0,31.3,30.62,South,178,0.0,6.0,45,0.00,,,0.12,130.00,VWS V14.00,2013-09-30 18:41:00,
2013-09-30 12:42:00,52.0,31.9,30.62,South,178,0.0,6.0,46,0.00,,,0.12,148.00,VWS V14.00,2013-09-30 18:42:00,
2013-09-30 12:43:00,52.2,34.1,30.62,South,176,0.0,5.0,50,0.00,,,0.12,135.00,VWS V14.00,2013-09-30 18:43:00,
2013-09-30 12:44:00,52.0,32.4,30.62,SSE,163,2.0,6.0,47,0.00,,,0.12,192.00,VWS V14.00,2013-09-30 18:44:00,
2013-09-30 12:45:00,51.9,31.8,30.62,SSE,153,5.0,5.0,46,0.00,,,0.12,193.00,VWS V14.00,2013-09-30 18:45:00,
2013-09-30 12:46:00,51.9,32.3,30.62,South,174,3.0,6.0,47,0.00,,,0.12,160.00,VWS V14.00,2013-09-30 18:46:00,
2013-09-30 12:47:00,51.8,32.2,30.62,SSE,159,3.0,6.0,47,0.00,,,0.12,142.00,VWS V14.00,2013-09-30 18:47:00,
2013-09-30 12:48:00,52.1,32.0,30.62,West,271,0.0,6.0,46,0.00,,,0.12,100.00,VWS V14.00,2013-09-30 18:48:00,
2013-09-30 12:49:00,51.7,31.1,30.62,SSE,161,2.0,6.0,45,0.00,,,0.12,137.00,VWS V14.00,2013-09-30 18:49:00,
2013-09-30 12:50:00,51.7,31.1,30.62,SSE,161,3.0,6.0,45,0.00,,,0.12,146.00,VWS V14.00,2013-09-30 18:50:00,
2013-09-30 12:51:00,51.7,31.6,30.62,SSE,162,0.0,6.0,46,0.00,,,0.12,153.00,VWS V14.00,2013-09-30 18:51:00,
2013-09-30 12:52:00,51.7,31.6,30.62,SSE,162,0.0,6.0,46,0.00,,,0.12,151.00,VWS V14.00,2013-09-30 18:52:00,
2013-09-30 12:53:00,52.0,31.9,30.62,SSE,163,3.0,6.0,46,0.00,,,0.12,192.00,VWS V14.00,2013-09-30 18:53:00,
2013-09-30 12:54:00,51.6,32.0,30.62,SSE,161,0.0,6.0,47,0.00,,,0.12,130.00,VWS V14.00,2013-09-30 18:54:00,
2013-09-30 12:55:00,51.6,32.6,30.62,SSE,162,0.0,6.0,48,0.00,,,0.12,120.00,VWS V14.00,2013-09-30 18:55:00,
2013-09-30 12:56:00,51.6,33.6,30.62,SSE,161,0.0,6.0,50,0.00,,,0.12,113.00,VWS V14.00,2013-09-30 18:56:00,
2013-09-30 12:57:00,51.6,33.6,30.62,SSE,162,1.0,6.0,50,0.00,,,0.12,107.00,VWS V14.00,2013-09-30 18:57:00,
2013-09-30 12:58:00,51.7,31.1,30.62,SSE,161,1.0,6.0,45,0.00,,,0.12,137.00,VWS V14.00,2013-09-30 18:58:00,
2013-09-30 12:59:00,51.6,32.0,30.62,SSE,161,0.0,6.0,47,0.00,,,0.12,105.00,VWS V14.00,2013-09-30 18:59:00,
2013-09-30 13:00:00,51.5,32.5,30.62,South,169,0.0,2.0,48,0.00,,,0.12,109.00,VWS V14.00,2013-09-30 19:00:00,
2013-09-30 13:01:00,51.5,32.5,30.62,SE,125,4.0,7.0,48,0.00,,,0.12,116.00,VWS V14.00,2013-09-30 19:01:00,
2013-09-30 13:02:00,51.5,31.4,30.62,SSE,153,3.0,7.0,46,0.00,,,0.12,130.00,VWS V14.00,2013-09-30 19:02:00,
2013-09-30 13:03:00,51.6,32.0,30.62,SSE,162,0.0,6.0,47,0.00,,,0.12,130.00,VWS V14.00,2013-09-30 19:03:00,
2013-09-30 13:04:00,51.5,32.5,30.62,SSE,159,3.0,7.0,48,0.00,,,0.12,151.00,VWS V14.00,2013-09-30 19:04:00,
2013-09-30 13:05:00,51.5,33.0,30.62,SSE,155,5.0,7.0,49,0.00,,,0.12,148.00,VWS V14.00,2013-09-30 19:05:00,
2013-09-30 13:06:00,51.5,32.5,30.63,South,186,6.0,7.0,48,0.00,,,0.12,146.00,VWS V14.00,2013-09-30 19:06:00,
2013-09-30 13:07:00,51.5,31.4,30.62,South,171,0.0,7.0,46,0.00,,,0.12,149.00,VWS V14.00,2013-09-30 19:07:00,
2013-09-30 13:08:00,51.6,32.0,30.62,SSE,161,0.0,6.0,47,0.00,,,0.12,105.00,VWS V14.00,2013-09-30 19:08:00,
2013-09-30 13:09:00,51.4,30.8,30.63,SSE,150,0.0,7.0,45,0.00,,,0.12,160.00,VWS V14.00,2013-09-30 19:09:00,
2013-09-30 13:10:00,51.4,31.3,30.63,SSE,152,0.0,7.0,46,0.00,,,0.12,155.00,VWS V14.00,2013-09-30 19:10:00,
2013-09-30 13:11:00,51.4,31.3,30.64,SSE,152,0.0,7.0,46,0.00,,,0.12,146.00,VWS V14.00,2013-09-30 19:11:00,
2013-09-30 13:12:00,51.4,32.4,30.64,SSE,152,0.0,7.0,48,0.00,,,0.12,132.00,VWS V14.00,2013-09-30 19:12:00,
2013-09-30 13:13:00,51.5,32.5,30.62,SSE,161,4.0,7.0,48,0.00,,,0.12,148.00,VWS V14.00,2013-09-30 19:13:00,
2013-09-30 13:14:00,51.4,31.9,30.64,South,176,2.0,7.0,47,0.00,,,0.12,118.00,VWS V14.00,2013-09-30 19:14:00,
2013-09-30 13:15:00,51.4,31.9,30.63,WNW,287,2.0,3.0,47,0.00,,,0.12,137.00,VWS V14.00,2013-09-30 19:15:00,
2013-09-30 13:16:00,51.4,31.9,30.63,WNW,298,2.0,4.0,47,0.00,,,0.12,148.00,VWS V14.00,2013-09-30 19:16:00,
2013-09-30 13:17:00,51.5,30.9,30.63,WNW,286,0.0,4.0,45,0.00,,,0.12,163.00,VWS V14.00,2013-09-30 19:17:00,
2013-09-30 13:18:00,51.4,30.8,30.63,SSE,150,0.0,7.0,45,0.00,,,0.12,160.00,VWS V14.00,2013-09-30 19:18:00,
2013-09-30 13:19:00,51.5,32.5,30.63,WNW,284,0.0,4.0,48,0.00,,,0.12,183.00,VWS V14.00,2013-09-30 19:19:00,
2013-09-30 13:20:00,51.5,32.5,30.63,WNW,284,0.0,4.0,48,0.00,,,0.12,183.00,VWS V14.00,2013-09-30 19:20:00,
2013-09-30 13:21:00,51.5,33.5,30.63,WNW,284,0.0,4.0,50,0.00,,,0.12,179.00,VWS V14.00,2013-09-30 19:21:00,
2013-09-30 13:22:00,51.5,32.5,30.63,WNW,284,4.0,4.0,48,0.00,,,0.12,179.00,VWS V14.00,2013-09-30 19:22:00,
2013-09-30 13:23:00,51.4,31.3,30.64,SSE,152,0.0,7.0,46,0.00,,,0.12,118.00,VWS V14.00,2013-09-30 19:23:00,
2013-09-30 13:24:00,51.5,33.5,30.63,WNW,284,3.0,4.0,50,0.00,,,0.12,156.00,VWS V14.00,2013-09-30 19:24:00,
2013-09-30 13:25:00,51.6,33.6,30.63,WNW,284,4.0,4.0,50,0.00,,,0.12,153.00,VWS V14.00,2013-09-30 19:25:00,
2013-09-30 13:26:00,51.6,32.0,30.63,WNW,284,2.0,4.0,47,0.00,,,0.12,155.00,VWS V14.00,2013-09-30 19:26:00,
2013-09-30 13:27:00,51.6,32.6,30.63,WNW,284,0.0,4.0,48,0.00,,,0.12,179.00,VWS V14.00,2013-09-30 19:27:00,
2013-09-30 13:28:00,51.5,31.4,30.63,WNW,284,0.0,4.0,46,0.00,,,0.12,183.00,VWS V14.00,2013-09-30 19:28:00,
2013-09-30 13:29:00,51.6,33.6,30.63,WNW,284,0.0,4.0,50,0.00,,,0.12,190.00,VWS V14.00,2013-09-30 19:29:00,
2013-09-30 13:30:00,51.6,33.1,30.63,WNW,283,0.0,1.0,49,0.00,,,0.12,179.00,VWS V14.00,2013-09-30 19:30:00,
2013-09-30 13:31:00,51.7,32.7,30.63,WNW,283,0.0,3.0,48,0.00,,,0.12,176.00,VWS V14.00,2013-09-30 19:31:00,
2013-09-30 13:32:00,51.7,32.7,30.63,WNW,284,0.0,3.0,48,0.00,,,0.12,183.00,VWS V14.00,2013-09-30 19:32:00,
2013-09-30 13:33:00,51.5,33.5,30.63,WNW,284,2.0,4.0,50,0.00,,,0.12,156.00,VWS V14.00,2013-09-30 19:33:00,
2013-09-30 13:34:00,51.7,33.2,30.63,WNW,283,0.0,3.0,49,0.00,,,0.12,193.00,VWS V14.00,2013-09-30 19:34:00,
2013-09-30 13:35:00,51.7,32.1,30.63,WNW,283,0.0,3.0,47,0.00,,,0.12,190.00,VWS V14.00,2013-09-30 19:35:00,
2013-09-30 13:36:00,51.8,33.3,30.63,WNW,283,0.0,3.0,49,0.00,,,0.12,185.00,VWS V14.00,2013-09-30 19:36:00,
2013-09-30 13:37:00,51.8,32.8,30.63,WNW,284,0.0,3.0,48,0.00,,,0.12,188.00,VWS V14.00,2013-09-30 19:37:00,
2013-09-30 13:38:00,51.6,33.6,30.63,WNW,284,0.0,4.0,50,0.00,,,0.12,190.00,VWS V14.00,2013-09-30 19:38:00,
2013-09-30 13:39:00,51.8,31.1,30.63,WNW,285,0.0,3.0,45,0.00,,,0.12,179.00,VWS V14.00,2013-09-30 19:39:00,
2013-09-30 13:40:00,51.8,30.6,30.63,WNW,285,0.0,3.0,44,0.00,,,0.12,176.00,VWS V14.00,2013-09-30 19:40:00,
2013-09-30 13:41:00,51.8,31.1,30.63,WNW,285,0.0,3.0,45,0.00,,,0.12,169.00,VWS V14.00,2013-09-30 19:41:00,
2013-09-30 13:42:00,51.8,33.3,30.63,WNW,284,0.0,3.0,49,0.00,,,0.12,158.00,VWS V14.00,2013-09-30 19:42:00,
2013-09-30 13:43:00,51.7,33.2,30.63,WNW,284,0.0,3.0,49,0.00,,,0.12,193.00,VWS V14.00,2013-09-30 19:43:00,
2013-09-30 13:44:00,51.9,34.4,30.63,WNW,285,0.0,3.0,51,0.00,,,0.12,162.00,VWS V14.00,2013-09-30 19:44:00,
2013-09-30 13:45:00,51.9,34.4,30.63,WNW,285,0.0,0.0,51,0.00,,,0.12,165.00,VWS V14.00,2013-09-30 19:45:00,
2013-09-30 13:46:00,51.9,34.4,30.63,WNW,285,0.0,0.0,51,0.00,,,0.12,163.00,VWS V14.00,2013-09-30 19:46:00,
2013-09-30 13:47:00,52.0,34.0,30.63,WNW,285,0.0,0.0,50,0.00,,,0.12,162.00,VWS V14.00,2013-09-30 19:47:00,
2013-09-30 13:48:00,51.8,31.1,30.63,WNW,284,0.0,3.0,45,0.00,,,0.12,183.00,VWS V14.00,2013-09-30 19:48:00,
2013-09-30 13:49:00,52.0,34.5,30.63,WNW,285,0.0,0.0,51,0.00,,,0.12,167.00,VWS V14.00,2013-09-30 19:49:00,
2013-09-30 13:50:00,52.1,33.5,30.63,WNW,285,0.0,0.0,49,0.00,,,0.12,165.00,VWS V14.00,2013-09-30 19:50:00,
2013-09-30 13:51:00,52.1,33.0,30.63,WNW,285,0.0,0.0,48,0.00,,,0.12,158.00,VWS V14.00,2013-09-30 19:51:00,
2013-09-30 13:52:00,52.1,34.0,30.63,WNW,285,0.0,0.0,50,0.00,,,0.12,151.00,VWS V14.00,2013-09-30 19:52:00,
2013-09-30 13:53:00,51.9,34.4,30.63,WNW,285,0.0,3.0,51,0.00,,,0.12,156.00,VWS V14.00,2013-09-30 19:53:00,
2013-09-30 13:54:00,52.1,32.0,30.63,WNW,284,0.0,0.0,46,0.00,,,0.12,148.00,VWS V14.00,2013-09-30 19:54:00,
2013-09-30 13:55:00,52.1,32.0,30.63,WNW,285,0.0,0.0,46,0.00,,,0.12,142.00,VWS V14.00,2013-09-30 19:55:00,
2013-09-30 13:56:00,52.1,32.0,30.63,WNW,284,0.0,0.0,46,0.00,,,0.12,127.00,VWS V14.00,2013-09-30 19:56:00,
2013-09-30 13:57:00,52.1,32.5,30.63,WNW,285,0.0,0.0,47,0.00,,,0.12,132.00,VWS V14.00,2013-09-30 19:57:00,
2013-09-30 13:58:00,52.0,34.5,30.63,WNW,285,0.0,0.0,51,0.00,,,0.12,167.00,VWS V14.00,2013-09-30 19:58:00,
2013-09-30 13:59:00,52.2,33.1,30.63,South,179,0.0,4.0,48,0.00,,,0.12,156.00,VWS V14.00,2013-09-30 19:59:00,
2013-09-30 14:00:00,52.2,33.6,30.63,South,169,2.0,3.0,49,0.00,,,0.12,167.00,VWS V14.00,2013-09-30 20:00:00,
2013-09-30 14:01:00,52.2,34.6,30.63,SSE,168,1.0,3.0,51,0.00,,,0.12,178.00,VWS V14.00,2013-09-30 20:01:00,
2013-09-30 14:02:00,52.2,34.1,30.63,SSE,168,0.0,3.0,50,0.00,,,0.12,236.00,VWS V14.00,2013-09-30 20:02:00,
2013-09-30 14:03:00,52.1,32.5,30.63,WNW,284,0.0,0.0,47,0.00,,,0.12,148.00,VWS V14.00,2013-09-30 20:03:00,
2013-09-30 14:04:00,52.3,35.2,30.63,SSE,165,3.0,4.0,52,0.00,,,0.12,236.00,VWS V14.00,2013-09-30 20:04:00,
2013-09-30 14:05:00,52.3,34.7,30.63,ESE,111,6.0,7.0,51,0.00,,,0.12,225.00,VWS V14.00,2013-09-30 20:05:00,
2013-09-30 14:06:00,52.3,32.7,30.63,South,178,5.0,10.0,47,0.00,,,0.12,221.00,VWS V14.00,2013-09-30 20:06:00,
2013-09-30 14:07:00,52.3,33.7,30.63,SSE,164,6.0,10.0,49,0.00,,,0.12,216.00,VWS V14.00,2013-09-30 20:07:00,
2013-09-30 14:08:00,52.2,33.1,30.63,South,179,0.0,4.0,48,0.00,,,0.12,156.00,VWS V14.00,2013-09-30 20:08:00,
2013-09-30 14:09:00,52.3,32.2,30.63,South,182,0.0,10.0,46,0.00,,,0.12,197.00,VWS V14.00,2013-09-30 20:09:00,
2013-09-30 14:10:00,52.2,31.5,30.63,South,182,0.0,10.0,45,0.00,,,0.12,195.00,VWS V14.00,2013-09-30 20:10:00,
2013-09-30 14:11:00,52.2,33.1,30.63,South,182,0.0,10.0,48,0.00,,,0.12,193.00,VWS V14.00,2013-09-30 20:11:00,
2013-09-30 14:12:00,52.3,33.2,30.63,South,182,0.0,10.0,48,0.00,,,0.12,188.00,VWS V14.00,2013-09-30 20:12:00,
2013-09-30 14:13:00,52.3,35.2,30.63,SSE,168,3.0,3.0,52,0.00,,,0.12,236.00,VWS V14.00,2013-09-30 20:13:00,
2013-09-30 14:14:00,52.2,33.1,30.63,West,267,4.0,10.0,48,0.00,,,0.12,183.00,VWS V14.00,2013-09-30 20:14:00,
2013-09-30 14:15:00,52.3,33.2,30.63,West,267,0.0,1.0,48,0.00,,,0.12,185.00,VWS V14.00,2013-09-30 20:15:00,
2013-09-30 14:16:00,52.3,33.7,30.63,SSE,153,2.0,3.0,49,0.00,,,0.12,190.00,VWS V14.00,2013-09-30 20:16:00,
2013-09-30 14:17:00,52.2,34.1,30.64,SSE,152,0.0,3.0,50,0.00,,,0.12,192.00,VWS V14.00,2013-09-30 20:17:00,
2013-09-30 14:18:00,52.3,32.2,30.63,South,182,0.0,10.0,46,0.00,,,0.12,197.00,VWS V14.00,2013-09-30 20:18:00,
2013-09-30 14:19:00,52.3,33.7,30.64,West,266,3.0,4.0,49,0.00,,,0.12,192.00,VWS V14.00,2013-09-30 20:19:00,
2013-09-30 14:20:00,52.2,33.1,30.64,West,262,0.0,6.0,48,0.00,,,0.12,185.00,VWS V14.00,2013-09-30 20:20:00,
2013-09-30 14:21:00,52.2,33.1,30.64,West,275,0.0,6.0,48,0.00,,,0.12,183.00,VWS V14.00,2013-09-30 20:21:00,
2013-09-30 14:22:00,52.2,33.1,30.64,WSW,245,6.0,6.0,48,0.00,,,0.12,178.00,VWS V14.00,2013-09-30 20:22:00,
2013-09-30 14:23:00,52.3,33.2,30.64,West,267,4.0,10.0,48,0.00,,,0.12,181.00,VWS V14.00,2013-09-30 20:23:00,
2013-09-30 14:24:00,52.2,34.6,30.64,West,273,3.0,6.0,51,0.00,,,0.12,155.00,VWS V14.00,2013-09-30 20:24:00,
2013-09-30 14:25:00,52.2,33.1,30.64,West,262,2.0,6.0,48,0.00,,,0.12,149.00,VWS V14.00,2013-09-30 20:25:00,
2013-09-30 14:26:00,52.1,33.5,30.64,West,265,4.0,6.0,49,0.00,,,0.12,160.00,VWS V14.00,2013-09-30 20:26:00,
2013-09-30 14:27:00,52.1,34.0,30.64,West,264,3.0,6.0,50,0.00,,,0.12,169.00,VWS V14.00,2013-09-30 20:27:00,
2013-09-30 14:28:00,52.3,33.7,30.64,West,266,2.0,4.0,49,0.00,,,0.12,192.00,VWS V14.00,2013-09-30 20:28:00,
2013-09-30 14:29:00,52.1,34.0,30.64,West,267,2.0,6.0,50,0.00,,,0.12,174.00,VWS V14.00,2013-09-30 20:29:00,
2013-09-30 14:30:00,52.0,34.0,30.64,West,267,0.0,0.0,50,0.00,,,0.12,162.00,VWS V14.00,2013-09-30 20:30:00,
2013-09-30 14:31:00,52.0,33.5,30.64,WSW,258,2.0,5.0,49,0.00,,,0.12,151.00,VWS V14.00,2013-09-30 20:31:00,
2013-09-30 14:32:00,52.0,34.5,30.64,WSW,257,3.0,5.0,51,0.00,,,0.12,141.00,VWS V14.00,2013-09-30 20:32:00,
2013-09-30 14:33:00,52.2,34.6,30.64,West,274,1.0,6.0,51,0.00,,,0.12,155.00,VWS V14.00,2013-09-30 20:33:00,
2013-09-30 14:34:00,51.9,34.4,30.64,WSW,257,2.0,6.0,51,0.00,,,0.12,134.00,VWS V14.00,2013-09-30 20:34:00,
2013-09-30 14:35:00,51.9,33.4,30.64,SSW,210,0.0,6.0,49,0.00,,,0.12,134.00,VWS V14.00,2013-09-30 20:35:00,
2013-09-30 14:36:00,51.8,33.3,30.64,South,182,0.0,6.0,49,0.00,,,0.12,134.00,VWS V14.00,2013-09-30 20:36:00,
2013-09-30 14:37:00,51.8,34.3,30.64,WNW,288,2.0,6.0,51,0.00,,,0.12,156.00,VWS V14.00,2013-09-30 20:37:00,
2013-09-30 14:38:00,52.1,34.0,30.64,West,267,2.0,6.0,50,0.00,,,0.12,174.00,VWS V14.00,2013-09-30 20:38:00,
2013-09-30 14:39:00,51.7,34.7,30.64,West,259,1.0,6.0,52,0.00,,,0.12,183.00,VWS V14.00,2013-09-30 20:39:00,
2013-09-30 14:40:00,51.7,34.7,30.64,West,259,6.0,7.0,52,0.00,,,0.12,195.00,VWS V14.00,2013-09-30 20:40:00,
2013-09-30 14:41:00,51.7,34.2,30.64,WSW,257,5.0,7.0,51,0.00,,,0.12,206.00,VWS V14.00,2013-09-30 20:41:00,
2013-09-30 14:42:00,51.7,34.2,30.64,West,271,2.0,7.0,51,0.00,,,0.12,206.00,VWS V14.00,2013-09-30 20:42:00,
2013-09-30 14:43:00,51.9,34.4,30.64,WSW,257,3.0,6.0,51,0.00,,,0.12,134.00,VWS V14.00,2013-09-30 20:43:00,
2013-09-30 14:44:00,51.6,33.6,30.64,West,271,5.0,9.0,50,0.00,,,0.12,258.00,VWS V14.00,2013-09-30 20:44:00,
2013-09-30 14:45:00,51.6,34.1,30.64,West,267,4.0,6.0,51,0.00,,,0.12,258.00,VWS V14.00,2013-09-30 20:45:00,
2013-09-30 14:46:00,51.7,35.6,30.64,WNW,286,4.0,6.0,54,0.00,,,0.12,258.00,VWS V14.00,2013-09-30 20:46:00,
2013-09-30 14:47:00,51.7,36.1,30.63,West,261,6.0,6.0,55,0.00,,,0.12,258.00,VWS V14.00,2013-09-30 20:47:00,
2013-09-30 14:48:00,51.8,34.8,30.64,West,259,5.0,6.0,52,0.00,,,0.12,183.00,VWS V14.00,2013-09-30 20:48:00,
2013-09-30 14:49:00,51.9,34.8,30.64,West,268,1.0,10.0,52,0.00,,,0.12,301.00,VWS V14.00,2013-09-30 20:49:00,
2013-09-30 14:50:00,52.0,35.4,30.64,West,276,1.0,10.0,53,0.00,,,0.12,443.00,VWS V14.00,2013-09-30 20:50:00,
2013-09-30 14:51:00,52.1,35.0,30.64,West,276,0.0,10.0,52,0.00,,,0.12,443.00,VWS V14.00,2013-09-30 20:51:00,
2013-09-30 14:52:00,52.2,35.1,30.64,West,275,0.0,10.0,52,0.00,,,0.12,260.00,VWS V14.00,2013-09-30 20:52:00,
2013-09-30 14:53:00,51.6,33.6,30.64,West,261,1.0,9.0,50,0.00,,,0.12,258.00,VWS V14.00,2013-09-30 20:53:00,
2013-09-30 14:54:00,52.5,34.9,30.64,West,272,0.0,10.0,51,0.00,,,0.12,434.00,VWS V14.00,2013-09-30 20:54:00,
2013-09-30 14:55:00,52.7,36.1,30.64,West,273,0.0,10.0,53,0.00,,,0.12,394.00,VWS V14.00,2013-09-30 20:55:00,
2013-09-30 14:56:00,53.0,36.8,30.64,West,272,1.0,10.0,54,0.00,,,0.12,394.00,VWS V14.00,2013-09-30 20:56:00,
2013-09-30 14:57:00,53.3,35.7,30.64,West,272,1.0,10.0,51,0.00,,,0.12,394.00,VWS V14.00,2013-09-30 20:57:00,
2013-09-30 14:58:00,51.9,34.8,30.63,West,268,0.0,10.0,52,0.00,,,0.12,301.00,VWS V14.00,2013-09-30 20:58:00,
2013-09-30 14:59:00,54.0,37.3,30.62,SSE,154,4.0,10.0,53,0.00,,,0.12,791.00,VWS V14.00,2013-09-30 20:59:00,
2013-09-30 15:00:00,54.4,35.7,30.63,SSW,195,0.0,0.0,49,0.00,,,0.12,796.00,VWS V14.00,2013-09-30 21:00:00,
2013-09-30 15:01:00,54.7,36.4,30.63,SSW,192,0.0,1.0,50,0.00,,,0.12,796.00,VWS V14.00,2013-09-30 21:01:00,
2013-09-30 15:02:00,55.0,36.2,30.63,South,171,2.0,5.0,49,0.00,,,0.12,842.00,VWS V14.00,2013-09-30 21:02:00,
2013-09-30 15:03:00,52.4,34.8,30.64,West,272,2.0,10.0,51,0.00,,,0.12,434.00,VWS V14.00,2013-09-30 21:03:00,
2013-09-30 15:04:00,55.3,35.4,30.63,SSE,157,0.0,7.0,47,0.00,,,0.12,304.00,VWS V14.00,2013-09-30 21:04:00,
2013-09-30 15:05:00,55.5,34.5,30.64,SSE,159,4.0,7.0,45,0.00,,,0.12,271.00,VWS V14.00,2013-09-30 21:05:00,
2013-09-30 15:06:00,55.5,32.2,30.63,South,188,5.0,10.0,41,0.00,,,0.12,223.00,VWS V14.00,2013-09-30 21:06:00,
2013-09-30 15:07:00,55.6,32.9,30.62,South,178,4.0,10.0,42,0.00,,,0.12,229.00,VWS V14.00,2013-09-30 21:07:00,
2013-09-30 15:08:00,53.9,37.2,30.63,SSE,154,5.0,10.0,53,0.00,,,0.12,791.00,VWS V14.00,2013-09-30 21:08:00,
2013-09-30 15:09:00,55.5,33.4,30.63,South,174,0.0,10.0,43,0.00,,,0.12,246.00,VWS V14.00,2013-09-30 21:09:00,
2013-09-30 15:10:00,55.5,34.5,30.63,South,174,0.0,10.0,45,0.00,,,0.12,241.00,VWS V14.00,2013-09-30 21:10:00,
2013-09-30 15:11:00,55.6,35.2,30.63,SSW,199,0.0,10.0,46,0.00,,,0.12,243.00,VWS V14.00,2013-09-30 21:11:00,
2013-09-30 15:12:00,55.5,35.1,30.63,South,190,0.0,10.0,46,0.00,,,0.12,244.00,VWS V14.00,2013-09-30 21:12:00,
2013-09-30 15:13:00,55.3,35.4,30.63,SSE,157,0.0,7.0,47,0.00,,,0.12,304.00,VWS V14.00,2013-09-30 21:13:00,
2013-09-30 15:14:00,55.5,34.5,30.63,SSE,161,4.0,10.0,45,0.00,,,0.12,244.00,VWS V14.00,2013-09-30 21:14:00,
2013-09-30 15:15:00,55.5,33.4,30.62,SSE,164,0.0,0.0,43,0.00,,,0.12,338.00,VWS V14.00,2013-09-30 21:15:00,
2013-09-30 15:16:00,55.5,34.0,30.62,SE,136,2.0,9.0,44,0.00,,,0.12,276.00,VWS V14.00,2013-09-30 21:16:00,
2013-09-30 15:17:00,55.4,34.4,30.64,South,176,5.0,9.0,45,0.00,,,0.12,288.00,VWS V14.00,2013-09-30 21:17:00,
2013-09-30 15:18:00,55.5,33.4,30.62,South,173,0.0,10.0,43,0.00,,,0.12,246.00,VWS V14.00,2013-09-30 21:18:00,
2013-09-30 15:19:00,55.4,33.9,30.64,SSE,153,3.0,9.0,44,0.00,,,0.12,413.00,VWS V14.00,2013-09-30 21:19:00,
2013-09-30 15:20:00,55.4,36.1,30.64,SSE,163,3.0,9.0,48,0.00,,,0.12,345.00,VWS V14.00,2013-09-30 21:20:00,
2013-09-30 15:21:00,55.4,35.5,30.64,South,173,0.0,9.0,47,0.00,,,0.12,262.00,VWS V14.00,2013-09-30 21:21:00,
2013-09-30 15:22:00,55.4,33.9,30.63,South,178,0.0,9.0,44,0.00,,,0.12,287.00,VWS V14.00,2013-09-30 21:22:00,
2013-09-30 15:23:00,55.5,34.5,30.63,SSE,159,4.0,10.0,45,0.00,,,0.12,244.00,VWS V14.00,2013-09-30 21:23:00,
2013-09-30 15:24:00,55.4,33.3,30.64,South,179,0.0,9.0,43,0.00,,,0.12,213.00,VWS V14.00,2013-09-30 21:24:00,
2013-09-30 15:25:00,55.5,34.0,30.64,South,179,0.0,9.0,44,0.00,,,0.12,216.00,VWS V14.00,2013-09-30 21:25:00,
2013-09-30 15:26:00,55.5,35.1,30.63,SSE,158,4.0,9.0,46,0.00,,,0.12,241.00,VWS V14.00,2013-09-30 21:26:00,
2013-09-30 15:27:00,55.4,33.9,30.65,SSE,155,0.0,9.0,44,0.00,,,0.12,209.00,VWS V14.00,2013-09-30 21:27:00,
2013-09-30 15:28:00,55.4,33.9,30.64,SE,146,3.0,9.0,44,0.00,,,0.12,413.00,VWS V14.00,2013-09-30 21:28:00,
2013-09-30 15:29:00,55.4,34.4,30.65,West,269,13.0,14.0,45,0.00,,,0.12,244.00,VWS V14.00,2013-09-30 21:29:00,
2013-09-30 15:30:00,55.3,34.3,30.65,West,271,7.0,9.0,45,0.00,,,0.12,211.00,VWS V14.00,2013-09-30 21:30:00,
2013-09-30 15:31:00,55.2,33.1,30.65,West,275,2.0,9.0,43,0.00,,,0.12,211.00,VWS V14.00,2013-09-30 21:31:00,
2013-09-30 15:32:00,55.2,34.2,30.66,WSW,255,0.0,9.0,45,0.00,,,0.12,211.00,VWS V14.00,2013-09-30 21:32:00,
2013-09-30 15:33:00,55.4,33.3,30.63,South,179,0.0,9.0,43,0.00,,,0.12,204.00,VWS V14.00,2013-09-30 21:33:00,
2013-09-30 15:34:00,55.2,35.3,30.65,SSW,198,11.0,14.0,47,0.00,,,0.12,661.00,VWS V14.00,2013-09-30 21:34:00,
2013-09-30 15:35:00,55.2,34.8,30.65,WSW,238,6.0,15.0,46,0.00,,,0.12,636.00,VWS V14.00,2013-09-30 21:35:00,
2013-09-30 15:36:00,55.3,34.9,30.66,NNE,24,2.0,15.0,46,0.00,,,0.12,664.00,VWS V14.00,2013-09-30 21:36:00,
2013-09-30 15:37:00,55.3,34.3,30.66,ESE,122,6.0,15.0,45,0.00,,,0.12,664.00,VWS V14.00,2013-09-30 21:37:00,
2013-09-30 15:38:00,55.4,34.4,30.65,West,260,9.0,14.0,45,0.00,,,0.12,244.00,VWS V14.00,2013-09-30 21:38:00,
2013-09-30 15:39:00,55.2,34.2,30.66,West,280,4.0,15.0,45,0.00,,,0.12,664.00,VWS V14.00,2013-09-30 21:39:00,
2013-09-30 15:40:00,55.2,34.2,30.66,SE,144,0.0,15.0,45,0.00,,,0.12,209.00,VWS V14.00,2013-09-30 21:40:00,
2013-09-30 15:41:00,55.2,33.7,30.66,WSW,240,2.0,15.0,44,0.00,,,0.12,188.00,VWS V14.00,2013-09-30 21:41:00,
2013-09-30 15:42:00,55.2,34.8,30.66,West,277,4.0,15.0,46,0.00,,,0.12,306.00,VWS V14.00,2013-09-30 21:42:00,
2013-09-30 15:43:00,55.2,34.8,30.65,SSW,198,3.0,14.0,46,0.00,,,0.12,661.00,VWS V14.00,2013-09-30 21:43:00,
2013-09-30 15:44:00,55.2,34.2,30.66,NW,325,5.0,15.0,45,0.00,,,0.12,306.00,VWS V14.00,2013-09-30 21:44:00,
2013-09-30 15:45:00,55.1,34.2,30.66,WSW,252,4.0,7.0,45,0.00,,,0.12,306.00,VWS V14.00,2013-09-30 21:45:00,
2013-09-30 15:46:00,55.1,34.2,30.66,SSW,213,0.0,7.0,45,0.00,,,0.12,234.00,VWS V14.00,2013-09-30 21:46:00,
2013-09-30 15:47:00,55.1,35.2,30.66,WNW,284,10.0,11.0,47,0.00,,,0.12,366.00,VWS V14.00,2013-09-30 21:47:00,
2013-09-30 15:48:00,55.2,33.1,30.66,WNW,282,4.0,15.0,43,0.00,,,0.12,664.00,VWS V14.00,2013-09-30 21:48:00,
2013-09-30 15:49:00,55.0,34.6,30.66,SE,134,0.0,14.0,46,0.00,,,0.12,197.00,VWS V14.00,2013-09-30 21:49:00,
2013-09-30 15:50:00,55.0,34.1,30.66,South,182,0.0,14.0,45,0.00,,,0.12,227.00,VWS V14.00,2013-09-30 21:50:00,
2013-09-30 15:51:00,54.9,33.4,30.67,ESE,119,0.0,14.0,44,0.00,,,0.12,227.00,VWS V14.00,2013-09-30 21:51:00,
2013-09-30 15:52:00,54.9,34.0,30.67,NNW,336,5.0,14.0,45,0.00,,,0.12,227.00,VWS V14.00,2013-09-30 21:52:00,
2013-09-30 15:53:00,55.2,34.2,30.66,SW,221,7.0,15.0,45,0.00,,,0.12,306.00,VWS V14.00,2013-09-30 21:53:00,
2013-09-30 15:54:00,54.9,34.5,30.67,West,278,6.0,14.0,46,0.00,,,0.12,673.00,VWS V14.00,2013-09-30 21:54:00,
2013-09-30 15:55:00,55.0,37.2,30.66,West,267,14.0,14.0,51,0.00,,,0.12,673.00,VWS V14.00,2013-09-30 21:55:00,
2013-09-30 15:56:00,55.1,35.8,30.67,South,175,3.0,19.0,48,0.00,,,0.12,673.00,VWS V14.00,2013-09-30 21:56:00,
2013-09-30 15:57:00,55.2,34.8,30.67,SSE,148,0.0,19.0,46,0.00,,,0.12,619.00,VWS V14.00,2013-09-30 21:57:00,
2013-09-30 15:58:00,55.0,34.6,30.66,SE,134,2.0,14.0,46,0.00,,,0.12,197.00,VWS V14.00,2013-09-30 21:58:00,
2013-09-30 15:59:00,55.5,35.1,30.66,South,171,5.0,19.0,46,0.00,,,0.12,635.00,VWS V14.00,2013-09-30 21:59:00,
2013-09-30 16:00:00,55.7,36.3,30.64,South,184,5.0,9.0,48,0.00,,,0.12,619.00,VWS V14.00,2013-09-30 22:00:00,
2013-09-30 16:01:00,55.8,35.9,30.65,West,265,8.0,11.0,47,0.00,,,0.12,622.00,VWS V14.00,2013-09-30 22:01:00,
2013-09-30 16:02:00,56.0,36.1,30.65,West,269,4.0,11.0,47,0.00,,,0.12,628.00,VWS V14.00,2013-09-30 22:02:00,
2013-09-30 16:03:00,54.9,34.5,30.66,West,276,6.0,14.0,46,0.00,,,0.12,227.00,VWS V14.00,2013-09-30 22:03:00,
2013-09-30 16:04:00,56.2,35.2,30.65,West,267,6.0,12.0,45,0.00,,,0.12,635.00,VWS V14.00,2013-09-30 22:04:00,
2013-09-30 16:05:00,56.3,36.3,30.65,WNW,284,6.0,12.0,47,0.00,,,0.12,538.00,VWS V14.00,2013-09-30 22:05:00,
2013-09-30 16:06:00,56.4,35.9,30.65,West,274,4.0,12.0,46,0.00,,,0.12,629.00,VWS V14.00,2013-09-30 22:06:00,
2013-09-30 16:07:00,56.5,36.0,30.65,West,279,0.0,12.0,46,0.00,,,0.12,619.00,VWS V14.00,2013-09-30 22:07:00,
2013-09-30 16:08:00,55.5,35.1,30.67,ESE,122,4.0,19.0,46,0.00,,,0.12,635.00,VWS V14.00,2013-09-30 22:08:00,
2013-09-30 16:09:00,56.6,35.5,30.65,West,272,7.0,12.0,45,0.00,,,0.12,582.00,VWS V14.00,2013-09-30 22:09:00,
2013-09-30 16:10:00,56.7,34.5,30.65,South,175,3.0,12.0,43,0.00,,,0.12,577.00,VWS V14.00,2013-09-30 22:10:00,
2013-09-30 16:11:00,56.7,35.6,30.65,South,180,4.0,12.0,45,0.00,,,0.12,570.00,VWS V14.00,2013-09-30 22:11:00,
2013-09-30 16:12:00,56.8,34.0,30.65,South,179,0.0,12.0,42,0.00,,,0.12,570.00,VWS V14.00,2013-09-30 22:12:00,
2013-09-30 16:13:00,56.2,35.2,30.65,West,265,5.0,12.0,45,0.00,,,0.12,635.00,VWS V14.00,2013-09-30 22:13:00,
2013-09-30 16:14:00,56.8,34.0,30.65,SSW,192,3.0,12.0,42,0.00,,,0.12,557.00,VWS V14.00,2013-09-30 22:14:00,
2013-09-30 16:15:00,56.9,34.1,30.64,South,190,0.0,0.0,42,0.00,,,0.12,559.00,VWS V14.00,2013-09-30 22:15:00,
2013-09-30 16:16:00,56.9,34.1,30.65,South,190,0.0,0.0,42,0.00,,,0.12,566.00,VWS V14.00,2013-09-30 22:16:00,
2013-09-30 16:17:00,57.0,35.9,30.64,WSW,238,2.0,2.0,45,0.00,,,0.12,563.00,VWS V14.00,2013-09-30 22:17:00,
2013-09-30 16:18:00,56.6,35.0,30.65,West,280,6.0,12.0,44,0.00,,,0.12,582.00,VWS V14.00,2013-09-30 22:18:00,
2013-09-30 16:19:00,57.1,35.4,30.65,WSW,249,2.0,9.0,44,0.00,,,0.12,543.00,VWS V14.00,2013-09-30 22:19:00,
2013-09-30 16:20:00,57.2,34.3,30.65,West,265,4.0,9.0,42,0.00,,,0.12,533.00,VWS V14.00,2013-09-30 22:20:00,
2013-09-30 16:21:00,57.2,34.9,30.65,WNW,291,3.0,10.0,43,0.00,,,0.12,529.00,VWS V14.00,2013-09-30 22:21:00,
2013-09-30 16:22:00,57.2,34.9,30.65,West,275,3.0,10.0,43,0.00,,,0.12,529.00,VWS V14.00,2013-09-30 22:22:00,
2013-09-30 16:23:00,56.8,34.0,30.65,SSW,192,1.0,12.0,42,0.00,,,0.12,557.00,VWS V14.00,2013-09-30 22:23:00,
2013-09-30 16:24:00,57.3,35.6,30.65,West,271,0.0,10.0,44,0.00,,,0.12,494.00,VWS V14.00,2013-09-30 22:24:00,
2013-09-30 16:25:00,57.3,33.8,30.65,SSE,157,0.0,10.0,41,0.00,,,0.12,504.00,VWS V14.00,2013-09-30 22:25:00,
2013-09-30 16:26:00,57.3,33.8,30.65,SE,140,2.0,10.0,41,0.00,,,0.12,485.00,VWS V14.00,2013-09-30 22:26:00,
2013-09-30 16:27:00,57.3,35.0,30.65,SE,133,4.0,10.0,43,0.00,,,0.12,485.00,VWS V14.00,2013-09-30 22:27:00,
2013-09-30 16:28:00,57.1,35.4,30.65,WSW,249,6.0,9.0,44,0.00,,,0.12,543.00,VWS V14.00,2013-09-30 22:28:00,
2013-09-30 16:29:00,57.3,36.2,30.65,WNW,292,5.0,10.0,45,0.00,,,0.12,190.00,VWS V14.00,2013-09-30 22:29:00,
2013-09-30 16:30:00,57.2,34.3,30.65,WNW,292,2.0,3.0,42,0.00,,,0.12,190.00,VWS V14.00,2013-09-30 22:30:00,
2013-09-30 16:31:00,57.2,35.5,30.65,WNW,292,0.0,3.0,44,0.00,,,0.12,464.00,VWS V14.00,2013-09-30 22:31:00,
2013-09-30 16:32:00,57.2,36.1,30.65,WNW,292,0.0,3.0,45,0.00,,,0.12,464.00,VWS V14.00,2013-09-30 22:32:00,
2013-09-30 16:33:00,57.3,35.6,30.65,West,271,0.0,10.0,44,0.00,,,0.12,494.00,VWS V14.00,2013-09-30 22:33:00,
2013-09-30 16:34:00,57.1,34.8,30.65,West,265,6.0,6.0,43,0.00,,,0.12,425.00,VWS V14.00,2013-09-30 22:34:00,
2013-09-30 16:35:00,57.1,36.0,30.65,West,267,5.0,7.0,45,0.00,,,0.12,443.00,VWS V14.00,2013-09-30 22:35:00,
2013-09-30 16:36:00,57.1,36.0,30.64,West,269,5.0,7.0,45,0.00,,,0.12,499.00,VWS V14.00,2013-09-30 22:36:00,
2013-09-30 16:37:00,57.0,33.5,30.65,West,269,0.0,8.0,41,0.00,,,0.12,501.00,VWS V14.00,2013-09-30 22:37:00,
2013-09-30 16:38:00,57.3,36.2,30.65,WNW,292,5.0,10.0,45,0.00,,,0.12,211.00,VWS V14.00,2013-09-30 22:38:00,
2013-09-30 16:39:00,56.8,32.8,30.65,WNW,283,2.0,8.0,40,0.00,,,0.12,501.00,VWS V14.00,2013-09-30 22:39:00,
2013-09-30 16:40:00,56.8,33.4,30.65,WNW,292,0.0,8.0,41,0.00,,,0.12,202.00,VWS V14.00,2013-09-30 22:40:00,
2013-09-30 16:41:00,56.6,34.4,30.65,WNW,292,0.0,8.0,43,0.00,,,0.12,188.00,VWS V14.00,2013-09-30 22:41:00,
2013-09-30 16:42:00,56.5,33.1,30.65,WNW,292,1.0,8.0,41,0.00,,,0.12,197.00,VWS V14.00,2013-09-30 22:42:00,
2013-09-30 16:43:00,57.1,34.8,30.65,WNW,292,4.0,5.0,43,0.00,,,0.12,420.00,VWS V14.00,2013-09-30 22:43:00,
2013-09-30 16:44:00,56.2,35.2,30.65,NNW,333,1.0,8.0,45,0.00,,,0.12,197.00,VWS V14.00,2013-09-30 22:44:00,
2013-09-30 16:45:00,56.1,35.6,30.65,NW,322,6.0,6.0,46,0.00,,,0.12,197.00,VWS V14.00,2013-09-30 22:45:00,
2013-09-30 16:46:00,55.9,36.0,30.65,NW,315,3.0,7.0,47,0.00,,,0.12,197.00,VWS V14.00,2013-09-30 22:46:00,
2013-09-30 16:47:00,55.7,35.8,30.65,NW,319,3.0,7.0,47,0.00,,,0.12,199.00,VWS V14.00,2013-09-30 22:47:00,
2013-09-30 16:48:00,56.9,32.8,30.65,WNW,283,1.0,8.0,40,0.00,,,0.12,501.00,VWS V14.00,2013-09-30 22:48:00,
2013-09-30 16:49:00,55.4,36.1,30.66,NNW,342,5.0,7.0,48,0.00,,,0.12,197.00,VWS V14.00,2013-09-30 22:49:00,
2013-09-30 16:50:00,55.2,35.9,30.66,NNW,340,5.0,7.0,48,0.00,,,0.12,478.00,VWS V14.00,2013-09-30 22:50:00,
2013-09-30 16:51:00,55.1,35.8,30.66,NNW,340,4.0,7.0,48,0.00,,,0.12,475.00,VWS V14.00,2013-09-30 22:51:00,
2013-09-30 16:52:00,55.0,35.2,30.66,NNW,340,3.0,7.0,47,0.00,,,0.12,466.00,VWS V14.00,2013-09-30 22:52:00,
2013-09-30 16:53:00,56.2,34.0,30.65,NNW,333,2.0,8.0,43,0.00,,,0.12,197.00,VWS V14.00,2013-09-30 22:53:00,
2013-09-30 16:54:00,54.9,35.6,30.66,NNW,340,4.0,7.0,48,0.00,,,0.12,452.00,VWS V14.00,2013-09-30 22:54:00,
2013-09-30 16:55:00,54.9,36.6,30.66,NNW,342,4.0,7.0,50,0.00,,,0.12,439.00,VWS V14.00,2013-09-30 22:55:00,
2013-09-30 16:56:00,54.9,35.6,30.66,NNW,342,5.0,7.0,48,0.00,,,0.12,436.00,VWS V14.00,2013-09-30 22:56:00,
2013-09-30 16:57:00,54.9,35.1,30.67,NW,325,2.0,7.0,47,0.00,,,0.12,420.00,VWS V14.00,2013-09-30 22:57:00,
2013-09-30 16:58:00,55.4,36.1,30.65,NNW,343,6.0,7.0,48,0.00,,,0.12,197.00,VWS V14.00,2013-09-30 22:58:00,
2013-09-30 16:59:00,54.9,35.1,30.67,WNW,287,5.0,7.0,47,0.00,,,0.12,185.00,VWS V14.00,2013-09-30 22:59:00,
2013-09-30 17:00:00,54.9,35.6,30.67,WNW,282,5.0,5.0,48,0.00,,,0.12,227.00,VWS V14.00,2013-09-30 23:00:00,
2013-09-30 17:01:00,54.9,35.1,30.67,WNW,297,0.0,5.0,47,0.00,,,0.12,323.00,VWS V14.00,2013-09-30 23:01:00,
2013-09-30 17:02:00,54.9,35.1,30.67,WNW,297,0.0,5.0,47,0.00,,,0.12,348.00,VWS V14.00,2013-09-30 23:02:00,
2013-09-30 17:03:00,54.9,35.6,30.67,NNW,340,5.0,7.0,48,0.00,,,0.12,452.00,VWS V14.00,2013-09-30 23:03:00,
2013-09-30 17:04:00,55.0,34.6,30.67,WNW,297,0.0,5.0,46,0.00,,,0.12,401.00,VWS V14.00,2013-09-30 23:04:00,
2013-09-30 17:05:00,55.0,36.2,30.67,WNW,295,2.0,5.0,49,0.00,,,0.12,406.00,VWS V14.00,2013-09-30 23:05:00,
2013-09-30 17:06:00,55.0,35.2,30.67,WNW,290,0.0,5.0,47,0.00,,,0.12,420.00,VWS V14.00,2013-09-30 23:06:00,
2013-09-30 17:07:00,55.1,34.7,30.67,WNW,290,0.0,5.0,46,0.00,,,0.12,420.00,VWS V14.00,2013-09-30 23:07:00,
2013-09-30 17:08:00,54.9,35.1,30.67,NW,314,0.0,7.0,47,0.00,,,0.12,185.00,VWS V14.00,2013-09-30 23:08:00,
2013-09-30 17:09:00,55.2,34.2,30.67,WNW,292,0.0,5.0,45,0.00,,,0.12,404.00,VWS V14.00,2013-09-30 23:09:00,
2013-09-30 17:10:00,55.2,33.7,30.67,WNW,292,0.0,5.0,44,0.00,,,0.12,406.00,VWS V14.00,2013-09-30 23:10:00,
2013-09-30 17:11:00,55.3,34.3,30.67,NW,322,5.0,7.0,45,0.00,,,0.12,390.00,VWS V14.00,2013-09-30 23:11:00,
2013-09-30 17:12:00,55.3,33.8,30.67,NNW,327,1.0,7.0,44,0.00,,,0.12,380.00,VWS V14.00,2013-09-30 23:12:00,
2013-09-30 17:13:00,55.0,34.6,30.67,WNW,297,0.0,5.0,46,0.00,,,0.12,394.00,VWS V14.00,2013-09-30 23:13:00,
2013-09-30 17:14:00,55.4,33.9,30.67,NNW,327,1.0,7.0,44,0.00,,,0.12,364.00,VWS V14.00,2013-09-30 23:14:00,
2013-09-30 17:15:00,55.4,35.0,30.67,NW,323,2.0,4.0,46,0.00,,,0.12,357.00,VWS V14.00,2013-09-30 23:15:00,
2013-09-30 17:16:00,55.4,34.4,30.67,NW,323,0.0,4.0,45,0.00,,,0.12,343.00,VWS V14.00,2013-09-30 23:16:00,
2013-09-30 17:17:00,55.5,35.6,30.67,West,281,2.0,6.0,47,0.00,,,0.12,306.00,VWS V14.00,2013-09-30 23:17:00,
2013-09-30 17:18:00,55.2,34.2,30.67,WNW,291,0.0,5.0,45,0.00,,,0.12,404.00,VWS V14.00,2013-09-30 23:18:00,
2013-09-30 17:19:00,55.5,35.6,30.67,WNW,297,7.0,10.0,47,0.00,,,0.12,255.00,VWS V14.00,2013-09-30 23:19:00,
2013-09-30 17:20:00,55.5,35.6,30.67,NW,306,10.0,10.0,47,0.00,,,0.12,169.00,VWS V14.00,2013-09-30 23:20:00,
2013-09-30 17:21:00,55.4,35.5,30.67,WNW,297,3.0,10.0,47,0.00,,,0.12,137.00,VWS V14.00,2013-09-30 23:21:00,
2013-09-30 17:22:00,55.3,36.0,30.67,WNW,296,2.0,10.0,48,0.00,,,0.12,144.00,VWS V14.00,2013-09-30 23:22:00,
2013-09-30 17:23:00,55.4,33.9,30.67,NNW,327,2.0,7.0,44,0.00,,,0.12,364.00,VWS V14.00,2013-09-30 23:23:00,
2013-09-30 17:24:00,55.2,36.9,30.67,WNW,296,0.0,10.0,50,0.00,,,0.12,216.00,VWS V14.00,2013-09-30 23:24:00,
2013-09-30 17:25:00,55.2,36.4,30.67,WNW,296,0.0,10.0,49,0.00,,,0.12,213.00,VWS V14.00,2013-09-30 23:25:00,
2013-09-30 17:26:00,55.1,34.7,30.67,WNW,296,0.0,10.0,46,0.00,,,0.12,239.00,VWS V14.00,2013-09-30 23:26:00,
2013-09-30 17:27:00,55.1,35.2,30.67,WNW,294,0.0,10.0,47,0.00,,,0.12,264.00,VWS V14.00,2013-09-30 23:27:00,
2013-09-30 17:28:00,55.5,34.5,30.67,WNW,292,7.0,10.0,45,0.00,,,0.12,255.00,VWS V14.00,2013-09-30 23:28:00,
2013-09-30 17:29:00,55.0,35.2,30.67,WNW,294,0.0,10.0,47,0.00,,,0.12,272.00,VWS V14.00,2013-09-30 23:29:00,
2013-09-30 17:30:00,55.0,34.6,30.67,WNW,294,2.0,2.0,46,0.00,,,0.12,260.00,VWS V14.00,2013-09-30 23:30:00,
2013-09-30 17:31:00,55.0,34.1,30.68,WNW,294,0.0,4.0,45,0.00,,,0.12,304.00,VWS V14.00,2013-09-30 23:31:00,
2013-09-30 17:32:00,55.0,34.6,30.68,WNW,294,0.0,4.0,46,0.00,,,0.12,302.00,VWS V14.00,2013-09-30 23:32:00,
2013-09-30 17:33:00,55.2,36.9,30.67,WNW,297,0.0,10.0,50,0.00,,,0.12,216.00,VWS V14.00,2013-09-30 23:33:00,
2013-09-30 17:34:00,55.0,35.2,30.68,WNW,291,4.0,5.0,47,0.00,,,0.12,236.00,VWS V14.00,2013-09-30 23:34:00,
2013-09-30 17:35:00,55.1,35.8,30.68,NW,309,2.0,5.0,48,0.00,,,0.12,244.00,VWS V14.00,2013-09-30 23:35:00,
2013-09-30 17:36:00,55.1,36.8,30.67,NW,309,3.0,5.0,50,0.00,,,0.12,236.00,VWS V14.00,2013-09-30 23:36:00,
2013-09-30 17:37:00,55.0,35.7,30.68,West,271,13.0,14.0,48,0.00,,,0.12,269.00,VWS V14.00,2013-09-30 23:37:00,
2013-09-30 17:38:00,55.0,35.2,30.67,WNW,295,0.0,10.0,47,0.00,,,0.12,272.00,VWS V14.00,2013-09-30 23:38:00,
2013-09-30 17:39:00,54.9,36.1,30.68,WNW,291,9.0,15.0,49,0.00,,,0.12,308.00,VWS V14.00,2013-09-30 23:39:00,
2013-09-30 17:40:00,54.9,36.6,30.68,WNW,283,6.0,15.0,50,0.00,,,0.12,301.00,VWS V14.00,2013-09-30 23:40:00,
2013-09-30 17:41:00,54.8,36.5,30.68,NW,312,11.0,15.0,50,0.00,,,0.12,308.00,VWS V14.00,2013-09-30 23:41:00,
2013-09-30 17:42:00,54.7,35.9,30.68,WNW,289,12.0,15.0,49,0.00,,,0.12,313.00,VWS V14.00,2013-09-30 23:42:00,
2013-09-30 17:43:00,55.0,35.2,30.68,WNW,292,3.0,5.0,47,0.00,,,0.12,236.00,VWS V14.00,2013-09-30 23:43:00,
2013-09-30 17:44:00,54.5,36.8,30.68,WNW,293,10.0,15.0,51,0.00,,,0.12,265.00,VWS V14.00,2013-09-30 23:44:00,
2013-09-30 17:45:00,54.4,36.2,30.68,WNW,291,7.0,7.0,50,0.00,,,0.12,260.00,VWS V14.00,2013-09-30 23:45:00,
2013-09-30 17:46:00,54.4,37.2,30.68,WNW,294,6.0,14.0,52,0.00,,,0.12,258.00,VWS V14.00,2013-09-30 23:46:00,
2013-09-30 17:47:00,54.3,36.6,30.68,NW,325,9.0,14.0,51,0.00,,,0.12,257.00,VWS V14.00,2013-09-30 23:47:00,
2013-09-30 17:48:00,54.9,36.1,30.68,WNW,285,9.0,15.0,49,0.00,,,0.12,315.00,VWS V14.00,2013-09-30 23:48:00,
2013-09-30 17:49:00,54.1,35.9,30.69,WNW,302,7.0,14.0,50,0.00,,,0.12,255.00,VWS V14.00,2013-09-30 23:49:00,
2013-09-30 17:50:00,54.0,34.8,30.69,NW,316,11.0,15.0,48,0.00,,,0.12,241.00,VWS V14.00,2013-09-30 23:50:00,
2013-09-30 17:51:00,53.9,35.2,30.69,NW,321,8.0,15.0,49,0.00,,,0.12,241.00,VWS V14.00,2013-09-30 23:51:00,
2013-09-30 17:52:00,53.9,35.7,30.69,WNW,300,7.0,15.0,50,0.00,,,0.12,236.00,VWS V14.00,2013-09-30 23:52:00,
2013-09-30 17:53:00,54.5,36.8,30.68,WNW,297,9.0,15.0,51,0.00,,,0.12,281.00,VWS V14.00,2013-09-30 23:53:00,
2013-09-30 17:54:00,53.7,36.0,30.69,NW,304,10.0,15.0,51,0.00,,,0.12,207.00,VWS V14.00,2013-09-30 23:54:00,
2013-09-30 17:55:00,53.6,35.4,30.69,NW,311,11.0,15.0,50,0.00,,,0.12,207.00,VWS V14.00,2013-09-30 23:55:00,
2013-09-30 17:56:00,53.5,35.8,30.69,NW,315,11.0,15.0,51,0.00,,,0.12,95.00,VWS V14.00,2013-09-30 23:56:00,
2013-09-30 17:57:00,53.3,35.7,30.70,NW,316,10.0,15.0,51,0.00,,,0.12,98.00,VWS V14.00,2013-09-30 23:57:00,
2013-09-30 17:58:00,54.1,35.9,30.69,NW,310,12.0,14.0,50,0.00,,,0.12,255.00,VWS V14.00,2013-09-30 23:58:00,
2013-09-30 17:59:00,52.9,35.3,30.70,NW,319,11.0,15.0,51,0.00,,,0.12,104.00,VWS V14.00,2013-09-30 23:59:00,
2013-09-30 18:00:00,52.7,36.1,30.70,NNW,332,10.0,13.0,53,0.00,,,0.12,163.00,VWS V14.00,2013-10-01 00:00:00,
2013-09-30 18:01:00,52.5,35.4,30.70,NNW,331,10.0,14.0,52,0.00,,,0.12,105.00,VWS V14.00,2013-10-01 00:01:00,
2013-09-30 18:02:00,52.3,36.2,30.70,NNW,338,10.0,14.0,54,0.00,,,0.12,98.00,VWS V14.00,2013-10-01 00:02:00,
2013-09-30 18:03:00,53.7,35.0,30.69,NW,309,10.0,15.0,49,0.00,,,0.12,207.00,VWS V14.00,2013-10-01 00:03:00,
2013-09-30 18:04:00,51.9,36.7,30.71,NNW,330,8.0,14.0,56,0.00,,,0.12,88.00,VWS V14.00,2013-10-01 00:04:00,
2013-09-30 18:05:00,51.7,37.4,30.70,NW,318,11.0,14.0,58,0.00,,,0.12,88.00,VWS V14.00,2013-10-01 00:05:00,
2013-09-30 18:06:00,51.4,37.6,30.71,NW,323,9.0,14.0,59,0.00,,,0.12,83.00,VWS V14.00,2013-10-01 00:06:00,
2013-09-30 18:07:00,51.1,37.3,30.70,NW,317,11.0,14.0,59,0.00,,,0.12,76.00,VWS V14.00,2013-10-01 00:07:00,
2013-09-30 18:08:00,53.0,35.4,30.70,NW,313,11.0,15.0,51,0.00,,,0.12,104.00,VWS V14.00,2013-10-01 00:08:00,
2013-09-30 18:09:00,50.6,37.2,30.70,NNW,337,6.0,14.0,60,0.00,,,0.12,67.00,VWS V14.00,2013-10-01 00:09:00,
2013-09-30 18:10:00,50.4,37.5,30.71,NNW,334,9.0,14.0,61,0.00,,,0.12,69.00,VWS V14.00,2013-10-01 00:10:00,
2013-09-30 18:11:00,50.1,37.2,30.71,NNW,330,10.0,14.0,61,0.00,,,0.12,74.00,VWS V14.00,2013-10-01 00:11:00,
2013-09-30 18:12:00,49.9,37.4,30.71,NNW,337,7.0,14.0,62,0.00,,,0.12,74.00,VWS V14.00,2013-10-01 00:12:00,
2013-09-30 18:13:00,51.9,36.7,30.71,NNW,338,8.0,14.0,56,0.00,,,0.12,88.00,VWS V14.00,2013-10-01 00:13:00,
2013-09-30 18:14:00,49.5,37.4,30.72,NNW,340,5.0,14.0,63,0.00,,,0.12,56.00,VWS V14.00,2013-10-01 00:14:00,
2013-09-30 18:15:00,49.4,37.3,30.72,NNW,340,8.0,9.0,63,0.00,,,0.12,49.00,VWS V14.00,2013-10-01 00:15:00,
2013-09-30 18:16:00,49.2,37.2,30.71,NNW,340,4.0,9.0,63,0.00,,,0.12,44.00,VWS V14.00,2013-10-01 00:16:00,
2013-09-30 18:17:00,49.1,37.9,30.72,NNW,340,7.0,9.0,65,0.00,,,0.12,44.00,VWS V14.00,2013-10-01 00:17:00,
2013-09-30 18:18:00,50.6,37.2,30.70,NW,320,6.0,14.0,60,0.00,,,0.12,67.00,VWS V14.00,2013-10-01 00:18:00,
2013-09-30 18:19:00,48.8,37.2,30.71,North,351,6.0,10.0,64,0.00,,,0.12,40.00,VWS V14.00,2013-10-01 00:19:00,
2013-09-30 18:20:00,48.7,37.9,30.72,NNW,344,5.0,10.0,66,0.00,,,0.12,33.00,VWS V14.00,2013-10-01 00:20:00,
2013-09-30 18:21:00,48.5,37.3,30.72,NNW,333,10.0,10.0,65,0.00,,,0.12,33.00,VWS V14.00,2013-10-01 00:21:00,
2013-09-30 18:22:00,48.4,37.2,30.73,NNW,337,7.0,10.0,65,0.00,,,0.12,35.00,VWS V14.00,2013-10-01 00:22:00,
2013-09-30 18:23:00,49.5,37.4,30.72,NNW,341,5.0,14.0,63,0.00,,,0.12,65.00,VWS V14.00,2013-10-01 00:23:00,
2013-09-30 18:24:00,48.1,37.7,30.73,NNW,340,5.0,10.0,67,0.00,,,0.12,44.00,VWS V14.00,2013-10-01 00:24:00,
2013-09-30 18:25:00,48.0,37.6,30.73,NNW,341,5.0,10.0,67,0.00,,,0.12,47.00,VWS V14.00,2013-10-01 00:25:00,
2013-09-30 18:26:00,47.9,37.9,30.74,NNW,342,4.0,10.0,68,0.00,,,0.12,49.00,VWS V14.00,2013-10-01 00:26:00,
2013-09-30 18:27:00,47.8,38.1,30.74,NNW,344,5.0,10.0,69,0.00,,,0.12,47.00,VWS V14.00,2013-10-01 00:27:00,
2013-09-30 18:28:00,48.9,37.3,30.72,NNW,343,5.0,10.0,64,0.00,,,0.12,40.00,VWS V14.00,2013-10-01 00:28:00,
2013-09-30 18:29:00,47.6,38.0,30.74,NNW,345,4.0,10.0,69,0.00,,,0.12,46.00,VWS V14.00,2013-10-01 00:29:00,
2013-09-30 18:30:00,47.6,38.3,30.74,NNW,345,4.0,4.0,70,0.00,,,0.12,44.00,VWS V14.00,2013-10-01 00:30:00,
2013-09-30 18:31:00,47.5,38.2,30.74,NNW,345,4.0,5.0,70,0.00,,,0.12,40.00,VWS V14.00,2013-10-01 00:31:00,
2013-09-30 18:32:00,47.4,37.8,30.74,NNW,345,4.0,5.0,69,0.00,,,0.12,28.00,VWS V14.00,2013-10-01 00:32:00,
2013-09-30 18:33:00,48.2,37.8,30.73,NNW,340,6.0,10.0,67,0.00,,,0.12,44.00,VWS V14.00,2013-10-01 00:33:00,
2013-09-30 18:34:00,47.3,38.0,30.74,NNW,345,5.0,6.0,70,0.00,,,0.12,19.00,VWS V14.00,2013-10-01 00:34:00,
2013-09-30 18:35:00,47.2,37.9,30.74,NNW,345,0.0,6.0,70,0.00,,,0.12,18.00,VWS V14.00,2013-10-01 00:35:00,
2013-09-30 18:36:00,47.2,37.9,30.74,NNW,345,0.0,6.0,70,0.00,,,0.12,14.00,VWS V14.00,2013-10-01 00:36:00,
2013-09-30 18:37:00,47.1,37.8,30.74,NNW,345,0.0,6.0,70,0.00,,,0.12,12.00,VWS V14.00,2013-10-01 00:37:00,
2013-09-30 18:38:00,47.6,38.0,30.74,NNW,345,5.0,10.0,69,0.00,,,0.12,46.00,VWS V14.00,2013-10-01 00:38:00,
2013-09-30 18:39:00,47.0,37.7,30.74,NNW,345,0.0,6.0,70,0.00,,,0.12,11.00,VWS V14.00,2013-10-01 00:39:00,
2013-09-30 18:40:00,47.0,37.7,30.74,NNW,345,0.0,6.0,70,0.00,,,0.12,12.00,VWS V14.00,2013-10-01 00:40:00,
2013-09-30 18:41:00,47.0,37.7,30.74,NNW,345,0.0,6.0,70,0.00,,,0.12,12.00,VWS V14.00,2013-10-01 00:41:00,
2013-09-30 18:42:00,46.9,37.6,30.74,NNW,345,0.0,6.0,70,0.00,,,0.12,12.00,VWS V14.00,2013-10-01 00:42:00,
2013-09-30 18:43:00,47.3,38.0,30.74,NNW,345,4.0,6.0,70,0.00,,,0.12,19.00,VWS V14.00,2013-10-01 00:43:00,
2013-09-30 18:44:00,46.9,37.6,30.75,NNW,345,0.0,6.0,70,0.00,,,0.12,7.00,VWS V14.00,2013-10-01 00:44:00,
2013-09-30 18:45:00,46.8,37.9,30.75,NNW,345,0.0,0.0,71,0.00,,,0.12,7.00,VWS V14.00,2013-10-01 00:45:00,
2013-09-30 18:46:00,46.8,37.9,30.75,NNW,345,0.0,0.0,71,0.00,,,0.12,5.00,VWS V14.00,2013-10-01 00:46:00,
2013-09-30 18:47:00,46.8,38.3,30.75,NNW,345,0.0,0.0,72,0.00,,,0.12,5.00,VWS V14.00,2013-10-01 00:47:00,
2013-09-30 18:48:00,47.0,37.7,30.74,NNW,345,0.0,6.0,70,0.00,,,0.12,11.00,VWS V14.00,2013-10-01 00:48:00,
2013-09-30 18:49:00,46.7,38.2,30.75,NNW,345,0.0,0.0,72,0.00,,,0.12,5.00,VWS V14.00,2013-10-01 00:49:00,
2013-09-30 18:50:00,46.7,38.2,30.75,NNW,345,0.0,0.0,72,0.00,,,0.12,5.00,VWS V14.00,2013-10-01 00:50:00,
2013-09-30 18:51:00,46.7,38.2,30.75,NNW,345,0.0,0.0,72,0.00,,,0.12,5.00,VWS V14.00,2013-10-01 00:51:00,
2013-09-30 18:52:00,46.7,38.2,30.75,NNW,345,0.0,0.0,72,0.00,,,0.12,5.00,VWS V14.00,2013-10-01 00:52:00,
2013-09-30 18:53:00,46.9,37.6,30.75,NNW,345,0.0,6.0,70,0.00,,,0.12,7.00,VWS V14.00,2013-10-01 00:53:00,
2013-09-30 18:54:00,46.7,37.8,30.76,NNW,345,0.0,0.0,71,0.00,,,0.12,5.00,VWS V14.00,2013-10-01 00:54:00,
2013-09-30 18:55:00,46.7,37.8,30.76,NNW,345,0.0,4.0,71,0.00,,,0.12,5.00,VWS V14.00,2013-10-01 00:55:00,
2013-09-30 18:56:00,46.6,37.7,30.75,NNW,345,0.0,4.0,71,0.00,,,0.12,0.00,VWS V14.00,2013-10-01 00:56:00,
2013-09-30 18:57:00,46.6,37.7,30.75,NNW,345,0.0,4.0,71,0.00,,,0.12,0.00,VWS V14.00,2013-10-01 00:57:00,
2013-09-30 18:58:00,46.7,38.2,30.75,NNW,345,0.0,0.0,72,0.00,,,0.12,5.00,VWS V14.00,2013-10-01 00:58:00,
2013-09-30 18:59:00,46.5,38.0,30.75,NNW,345,0.0,4.0,72,0.00,,,0.12,0.00,VWS V14.00,2013-10-01 00:59:00,
2013-09-30 19:00:00,46.5,38.0,30.76,NNW,345,0.0,0.0,72,0.00,,,0.12,0.00,VWS V14.00,2013-10-01 01:00:00,
2013-09-30 19:01:00,46.5,38.0,30.76,NNW,345,5.0,5.0,72,0.00,,,0.12,0.00,VWS V14.00,2013-10-01 01:01:00,
2013-09-30 19:02:00,46.5,37.6,30.76,NNW,346,3.0,5.0,71,0.00,,,0.12,0.00,VWS V14.00,2013-10-01 01:02:00,
2013-09-30 19:03:00,46.7,37.8,30.76,NNW,345,0.0,0.0,71,0.00,,,0.12,5.00,VWS V14.00,2013-10-01 01:03:00,
2013-09-30 19:04:00,46.4,37.5,30.78,NNW,346,1.0,5.0,71,0.00,,,0.12,0.00,VWS V14.00,2013-10-01 01:04:00,
2013-09-30 19:05:00,46.4,37.5,30.78,NNW,346,2.0,5.0,71,0.00,,,0.12,0.00,VWS V14.00,2013-10-01 01:05:00,
2013-09-30 19:06:00,46.3,37.4,30.78,NNW,346,3.0,5.0,71,0.00,,,0.12,0.00,VWS V14.00,2013-10-01 01:06:00,
2013-09-30 19:07:00,46.3,37.4,30.77,NNW,346,0.0,5.0,71,0.00,,,0.12,0.00,VWS V14.00,2013-10-01 01:07:00,
2013-09-30 19:08:00,46.5,37.6,30.75,NNW,345,0.0,4.0,71,0.00,,,0.12,0.00,VWS V14.00,2013-10-01 01:08:00,
2013-09-30 19:09:00,46.3,37.8,30.78,NNW,346,0.0,5.0,72,0.00,,,0.12,0.00,VWS V14.00,2013-10-01 01:09:00,
2013-09-30 19:10:00,46.2,37.3,30.78,NNW,346,1.0,6.0,71,0.00,,,0.12,0.00,VWS V14.00,2013-10-01 01:10:00,
2013-09-30 19:11:00,46.2,37.3,30.78,NNW,346,0.0,6.0,71,0.00,,,0.12,0.00,VWS V14.00,2013-10-01 01:11:00,
2013-09-30 19:12:00,46.2,37.3,30.78,NNW,346,0.0,6.0,71,0.00,,,0.12,0.00,VWS V14.00,2013-10-01 01:12:00,
2013-09-30 19:13:00,46.4,37.5,30.78,NNW,346,2.0,5.0,71,0.00,,,0.12,0.00,VWS V14.00,2013-10-01 01:13:00,
2013-09-30 19:14:00,46.2,37.3,30.78,SSE,167,0.0,6.0,71,0.00,,,0.12,0.00,VWS V14.00,2013-10-01 01:14:00,
2013-09-30 19:15:00,46.2,37.0,30.78,SSE,165,0.0,0.0,70,0.00,,,0.12,0.00,VWS V14.00,2013-10-01 01:15:00,
2013-09-30 19:16:00,46.2,38.0,30.78,SSE,167,4.0,4.0,73,0.00,,,0.12,0.00,VWS V14.00,2013-10-01 01:16:00,
2013-09-30 19:17:00,46.2,38.0,30.78,SSE,165,5.0,5.0,73,0.00,,,0.12,0.00,VWS V14.00,2013-10-01 01:17:00,
2013-09-30 19:18:00,46.3,37.8,30.78,NNW,346,0.0,5.0,72,0.00,,,0.12,0.00,VWS V14.00,2013-10-01 01:18:00,
2013-09-30 19:19:00,46.2,38.0,30.78,SSE,163,0.0,5.0,73,0.00,,,0.12,0.00,VWS V14.00,2013-10-01 01:19:00,
2013-09-30 19:20:00,46.1,37.9,30.78,SSE,160,3.0,5.0,73,0.00,,,0.12,0.00,VWS V14.00,2013-10-01 01:20:00,
2013-09-30 19:21:00,46.1,37.9,30.78,SSE,157,0.0,5.0,73,0.00,,,0.12,0.00,VWS V14.00,2013-10-01 01:21:00,
2013-09-30 19:22:00,46.1,37.9,30.78,SSE,156,0.0,5.0,73,0.00,,,0.12,0.00,VWS V14.00,2013-10-01 01:22:00,
2013-09-30 19:23:00,46.2,37.3,30.78,SSE,167,1.0,6.0,71,0.00,,,0.12,0.00,VWS V14.00,2013-10-01 01:23:00,
2013-09-30 19:24:00,46.0,37.5,30.78,SSE,156,0.0,5.0,72,0.00,,,0.12,0.00,VWS V14.00,2013-10-01 01:24:00,
2013-09-30 19:25:00,45.9,37.4,30.78,SSE,156,0.0,5.0,72,0.00,,,0.12,0.00,VWS V14.00,2013-10-01 01:25:00,
2013-09-30 19:26:00,45.9,37.4,30.78,SSE,156,0.0,5.0,72,0.00,,,0.12,0.00,VWS V14.00,2013-10-01 01:26:00,
2013-09-30 19:27:00,45.8,37.3,30.78,SSE,156,0.0,5.0,72,0.00,,,0.12,0.00,VWS V14.00,2013-10-01 01:27:00,
2013-09-30 19:28:00,46.2,38.0,30.78,SSE,167,0.0,5.0,73,0.00,,,0.12,0.00,VWS V14.00,2013-10-01 01:28:00,
2013-09-30 19:29:00,45.8,37.3,30.78,SSE,156,4.0,5.0,72,0.00,,,0.12,0.00,VWS V14.00,2013-10-01 01:29:00,
2013-09-30 19:30:00,45.7,37.2,30.78,SSE,155,2.0,3.0,72,0.00,,,0.12,0.00,VWS V14.00,2013-10-01 01:30:00,
2013-09-30 19:31:00,45.7,37.5,30.78,SSE,153,3.0,4.0,73,0.00,,,0.12,0.00,VWS V14.00,2013-10-01 01:31:00,
2013-09-30 19:32:00,45.6,37.5,30.78,SSE,149,3.0,5.0,73,0.00,,,0.12,0.00,VWS V14.00,2013-10-01 01:32:00,
2013-09-30 19:33:00,46.0,37.5,30.78,SSE,156,0.0,5.0,72,0.00,,,0.12,0.00,VWS V14.00,2013-10-01 01:33:00,
2013-09-30 19:34:00,45.5,37.4,30.78,SSE,150,3.0,5.0,73,0.00,,,0.12,0.00,VWS V14.00,2013-10-01 01:34:00,
2013-09-30 19:35:00,45.4,37.3,30.78,SE,143,4.0,5.0,73,0.00,,,0.12,0.00,VWS V14.00,2013-10-01 01:35:00,
2013-09-30 19:36:00,45.4,37.6,30.78,SE,141,2.0,5.0,74,0.00,,,0.12,0.00,VWS V14.00,2013-10-01 01:36:00,
2013-09-30 19:37:00,45.4,37.3,30.78,SE,142,2.0,5.0,73,0.00,,,0.12,0.00,VWS V14.00,2013-10-01 01:37:00,
2013-09-30 19:38:00,45.8,37.3,30.78,SSE,156,4.0,5.0,72,0.00,,,0.12,0.00,VWS V14.00,2013-10-01 01:38:00,
2013-09-30 19:39:00,45.3,37.9,30.78,SE,144,3.0,5.0,75,0.00,,,0.12,0.00,VWS V14.00,2013-10-01 01:39:00,
2013-09-30 19:40:00,45.3,37.9,30.78,SE,144,4.0,5.0,75,0.00,,,0.12,0.00,VWS V14.00,2013-10-01 01:40:00,
2013-09-30 19:41:00,45.3,37.9,30.78,SE,145,4.0,5.0,75,0.00,,,0.12,0.00,VWS V14.00,2013-10-01 01:41:00,
2013-09-30 19:42:00,45.2,37.8,30.78,SE,146,3.0,5.0,75,0.00,,,0.12,0.00,VWS V14.00,2013-10-01 01:42:00,
2013-09-30 19:43:00,45.5,37.4,30.78,SSE,150,3.0,5.0,73,0.00,,,0.12,0.00,VWS V14.00,2013-10-01 01:43:00,
2013-09-30 19:44:00,45.2,37.8,30.78,SSE,154,2.0,6.0,75,0.00,,,0.12,0.00,VWS V14.00,2013-10-01 01:44:00,
2013-09-30 19:45:00,45.1,37.7,30.79,SSE,150,2.0,3.0,75,0.00,,,0.12,0.00,VWS V14.00,2013-10-01 01:45:00,
2013-09-30 19:46:00,45.1,37.7,30.79,SE,144,2.0,3.0,75,0.00,,,0.12,0.00,VWS V14.00,2013-10-01 01:46:00,
2013-09-30 19:47:00,45.0,37.6,30.79,SSE,147,2.0,5.0,75,0.00,,,0.12,0.00,VWS V14.00,2013-10-01 01:47:00,
2013-09-30 19:48:00,45.3,37.5,30.78,SE,144,2.0,5.0,74,0.00,,,0.12,0.00,VWS V14.00,2013-10-01 01:48:00,
2013-09-30 19:49:00,45.0,37.9,30.78,SSE,148,0.0,5.0,76,0.00,,,0.12,0.00,VWS V14.00,2013-10-01 01:49:00,
2013-09-30 19:50:00,45.0,37.9,30.78,SSE,148,0.0,5.0,76,0.00,,,0.12,0.00,VWS V14.00,2013-10-01 01:50:00,
2013-09-30 19:51:00,45.0,37.6,30.78,SSE,148,2.0,5.0,75,0.00,,,0.12,0.00,VWS V14.00,2013-10-01 01:51:00,
2013-09-30 19:52:00,45.0,37.9,30.78,SSE,148,1.0,5.0,76,0.00,,,0.12,0.00,VWS V14.00,2013-10-01 01:52:00,
2013-09-30 19:53:00,45.2,37.8,30.78,SSE,153,3.0,6.0,75,0.00,,,0.12,0.00,VWS V14.00,2013-10-01 01:53:00,
2013-09-30 19:54:00,45.0,37.6,30.79,SE,142,4.0,5.0,75,0.00,,,0.12,0.00,VWS V14.00,2013-10-01 01:54:00,
2013-09-30 19:55:00,45.0,37.6,30.79,SE,138,4.0,5.0,75,0.00,,,0.12,0.00,VWS V14.00,2013-10-01 01:55:00,
2013-09-30 19:56:00,44.9,37.1,30.79,SE,137,3.0,6.0,74,0.00,,,0.12,0.00,VWS V14.00,2013-10-01 01:56:00,
2013-09-30 19:57:00,45.0,36.9,30.79,SSE,148,5.0,6.0,73,0.00,,,0.12,0.00,VWS V14.00,2013-10-01 01:57:00,
2013-09-30 19:58:00,45.0,37.9,30.78,SSE,148,0.0,5.0,76,0.00,,,0.12,0.00,VWS V14.00,2013-10-01 01:58:00,
2013-09-30 19:59:00,45.0,37.2,30.79,SSE,150,0.0,6.0,74,0.00,,,0.12,0.00,VWS V14.00,2013-10-01 01:59:00,
2013-09-30 20:00:00,45.0,37.6,30.79,SSE,150,0.0,0.0,75,0.00,,,0.12,0.00,VWS V14.00,2013-10-01 02:00:00,
2013-09-30 20:01:00,45.1,37.3,30.79,SE,137,4.0,4.0,74,0.00,,,0.12,0.00,VWS V14.00,2013-10-01 02:01:00,
2013-09-30 20:02:00,45.1,37.0,30.79,SE,145,2.0,4.0,73,0.00,,,0.12,0.00,VWS V14.00,2013-10-01 02:02:00,
2013-09-30 20:03:00,45.0,37.6,30.79,SE,142,2.0,5.0,75,0.00,,,0.12,0.00,VWS V14.00,2013-10-01 02:03:00,
2013-09-30 20:04:00,45.2,37.1,30.79,SSE,156,0.0,4.0,73,0.00,,,0.12,0.00,VWS V14.00,2013-10-01 02:04:00,
2013-09-30 20:05:00,45.2,36.7,30.79,SE,139,4.0,5.0,72,0.00,,,0.12,0.00,VWS V14.00,2013-10-01 02:05:00,
2013-09-30 20:06:00,45.3,36.8,30.80,SE,143,4.0,5.0,72,0.00,,,0.12,0.00,VWS V14.00,2013-10-01 02:06:00,
2013-09-30 20:07:00,45.3,37.2,30.80,SE,143,1.0,5.0,73,0.00,,,0.12,0.00,VWS V14.00,2013-10-01 02:07:00,
2013-09-30 20:08:00,45.0,37.2,30.79,SSE,149,0.0,6.0,74,0.00,,,0.12,0.00,VWS V14.00,2013-10-01 02:08:00,
2013-09-30 20:09:00,45.4,37.3,30.80,SE,143,0.0,5.0,73,0.00,,,0.12,0.00,VWS V14.00,2013-10-01 02:09:00,
2013-09-30 20:10:00,45.5,37.4,30.79,SE,143,0.0,5.0,73,0.00,,,0.12,0.00,VWS V14.00,2013-10-01 02:10:00,
2013-09-30 20:11:00,45.5,37.4,30.79,SE,125,3.0,5.0,73,0.00,,,0.12,0.00,VWS V14.00,2013-10-01 02:11:00,
2013-09-30 20:12:00,45.6,37.1,30.79,SE,126,2.0,5.0,72,0.00,,,0.12,0.00,VWS V14.00,2013-10-01 02:12:00,
2013-09-30 20:13:00,45.2,37.1,30.79,SSE,157,0.0,4.0,73,0.00,,,0.12,0.00,VWS V14.00,2013-10-01 02:13:00,
2013-09-30 20:14:00,45.7,37.2,30.79,SSE,149,0.0,6.0,72,0.00,,,0.12,0.00,VWS V14.00,2013-10-01 02:14:00,
2013-09-30 20:15:00,45.8,38.0,30.79,SSE,157,0.0,0.0,74,0.00,,,0.12,0.00,VWS V14.00,2013-10-01 02:15:00,
2013-09-30 20:16:00,45.8,38.3,30.79,SSE,157,0.0,0.0,75,0.00,,,0.12,0.00,VWS V14.00,2013-10-01 02:16:00,
2013-09-30 20:17:00,45.8,38.3,30.79,SSE,157,0.0,0.0,75,0.00,,,0.12,0.00,VWS V14.00,2013-10-01 02:17:00,
2013-09-30 20:18:00,45.4,37.3,30.80,SE,143,0.0,5.0,73,0.00,,,0.12,0.00,VWS V14.00,2013-10-01 02:18:00,
2013-09-30 20:19:00,45.9,38.4,30.79,SSE,155,0.0,0.0,75,0.00,,,0.12,0.00,VWS V14.00,2013-10-01 02:19:00,
2013-09-30 20:20:00,45.9,38.4,30.79,SSE,155,0.0,0.0,75,0.00,,,0.12,0.00,VWS V14.00,2013-10-01 02:20:00,
2013-09-30 20:21:00,45.9,38.4,30.79,SSE,154,0.0,1.0,75,0.00,,,0.12,0.00,VWS V14.00,2013-10-01 02:21:00,
2013-09-30 20:22:00,45.9,38.8,30.79,SSE,154,0.0,1.0,76,0.00,,,0.12,0.00,VWS V14.00,2013-10-01 02:22:00,
2013-09-30 20:23:00,45.7,37.2,30.79,SSE,149,0.0,6.0,72,0.00,,,0.12,0.00,VWS V14.00,2013-10-01 02:23:00,
2013-09-30 20:24:00,45.8,38.0,30.79,SSE,154,0.0,1.0,74,0.00,,,0.12,0.00,VWS V14.00,2013-10-01 02:24:00,
2013-09-30 20:25:00,45.8,38.3,30.79,SSE,154,0.0,1.0,75,0.00,,,0.12,0.00,VWS V14.00,2013-10-01 02:25:00,
2013-09-30 20:26:00,45.8,38.3,30.79,SSE,154,0.0,1.0,75,0.00,,,0.12,0.00,VWS V14.00,2013-10-01 02:26:00,
2013-09-30 20:27:00,45.8,38.3,30.79,SSE,154,0.0,1.0,75,0.00,,,0.12,0.00,VWS V14.00,2013-10-01 02:27:00,
2013-09-30 20:28:00,45.9,38.4,30.79,SSE,155,0.0,0.0,75,0.00,,,0.12,0.00,VWS V14.00,2013-10-01 02:28:00,
2013-09-30 20:29:00,45.8,38.0,30.79,SSE,154,0.0,1.0,74,0.00,,,0.12,0.00,VWS V14.00,2013-10-01 02:29:00,
2013-09-30 20:30:00,45.7,37.9,30.79,SSE,153,0.0,0.0,74,0.00,,,0.12,0.00,VWS V14.00,2013-10-01 02:30:00,
2013-09-30 20:31:00,45.7,37.5,30.78,SSE,154,0.0,0.0,73,0.00,,,0.12,0.00,VWS V14.00,2013-10-01 02:31:00,
2013-09-30 20:32:00,45.7,37.5,30.79,SSE,153,0.0,0.0,73,0.00,,,0.12,0.00,VWS V14.00,2013-10-01 02:32:00,
2013-09-30 20:33:00,45.8,38.0,30.79,SSE,154,0.0,1.0,74,0.00,,,0.12,0.00,VWS V14.00,2013-10-01 02:33:00,
2013-09-30 20:34:00,45.6,37.5,30.79,SSE,154,0.0,0.0,73,0.00,,,0.12,0.00,VWS V14.00,2013-10-01 02:34:00,
2013-09-30 20:35:00,45.7,37.5,30.79,SSE,154,0.0,0.0,73,0.00,,,0.12,0.00,VWS V14.00,2013-10-01 02:35:00,
2013-09-30 20:36:00,45.7,37.5,30.79,SSE,153,0.0,0.0,73,0.00,,,0.12,0.00,VWS V14.00,2013-10-01 02:36:00,
2013-09-30 20:37:00,45.6,37.8,30.79,SSE,153,0.0,0.0,74,0.00,,,0.12,0.00,VWS V14.00,2013-10-01 02:37:00,
2013-09-30 20:38:00,45.8,38.0,30.79,SSE,153,0.0,1.0,74,0.00,,,0.12,0.00,VWS V14.00,2013-10-01 02:38:00,
2013-09-30 20:39:00,45.7,38.2,30.79,SSE,153,0.0,0.0,75,0.00,,,0.12,0.00,VWS V14.00,2013-10-01 02:39:00,
2013-09-30 20:40:00,45.7,38.2,30.79,SSE,154,0.0,0.0,75,0.00,,,0.12,0.00,VWS V14.00,2013-10-01 02:40:00,
2013-09-30 20:41:00,45.7,38.2,30.79,SSE,154,0.0,0.0,75,0.00,,,0.12,0.00,VWS V14.00,2013-10-01 02:41:00,
2013-09-30 20:42:00,45.7,38.2,30.79,SSE,154,0.0,1.0,75,0.00,,,0.12,0.00,VWS V14.00,2013-10-01 02:42:00,
2013-09-30 20:43:00,45.6,37.5,30.79,SSE,154,0.0,0.0,73,0.00,,,0.12,0.00,VWS V14.00,2013-10-01 02:43:00,
2013-09-30 20:44:00,45.7,38.2,30.79,SSE,153,0.0,1.0,75,0.00,,,0.12,0.00,VWS V14.00,2013-10-01 02:44:00,
2013-09-30 20:45:00,45.7,38.2,30.79,SSE,153,0.0,0.0,75,0.00,,,0.12,0.00,VWS V14.00,2013-10-01 02:45:00,
2013-09-30 20:46:00,45.7,38.2,30.79,SSE,153,0.0,0.0,75,0.00,,,0.12,0.00,VWS V14.00,2013-10-01 02:46:00,
2013-09-30 20:47:00,45.7,38.2,30.79,SSE,154,0.0,0.0,75,0.00,,,0.12,0.00,VWS V14.00,2013-10-01 02:47:00,
2013-09-30 20:48:00,45.7,38.2,30.79,SSE,154,0.0,0.0,75,0.00,,,0.12,0.00,VWS V14.00,2013-10-01 02:48:00,
2013-09-30 20:49:00,45.6,38.2,30.79,SSE,154,0.0,0.0,75,0.00,,,0.12,0.00,VWS V14.00,2013-10-01 02:49:00,
2013-09-30 20:50:00,45.6,38.2,30.79,SSE,154,0.0,0.0,75,0.00,,,0.12,0.00,VWS V14.00,2013-10-01 02:50:00,
2013-09-30 20:51:00,45.6,38.2,30.79,SSE,154,0.0,0.0,75,0.00,,,0.12,0.00,VWS V14.00,2013-10-01 02:51:00,
2013-09-30 20:52:00,45.6,38.2,30.79,SSE,153,0.0,0.0,75,0.00,,,0.12,0.00,VWS V14.00,2013-10-01 02:52:00,
2013-09-30 20:53:00,45.7,38.2,30.79,SSE,153,0.0,1.0,75,0.00,,,0.12,0.00,VWS V14.00,2013-10-01 02:53:00,
2013-09-30 20:54:00,45.6,38.2,30.80,SSE,154,0.0,0.0,75,0.00,,,0.12,0.00,VWS V14.00,2013-10-01 02:54:00,
2013-09-30 20:55:00,45.6,38.2,30.80,SSE,153,0.0,0.0,75,0.00,,,0.12,0.00,VWS V14.00,2013-10-01 02:55:00,
2013-09-30 20:56:00,45.6,38.2,30.80,SSE,154,0.0,0.0,75,0.00,,,0.12,0.00,VWS V14.00,2013-10-01 02:56:00,
2013-09-30 20:57:00,45.6,38.2,30.80,SSE,154,0.0,0.0,75,0.00,,,0.12,0.00,VWS V14.00,2013-10-01 02:57:00,
2013-09-30 20:58:00,45.6,38.2,30.79,SSE,153,0.0,0.0,75,0.00,,,0.12,0.00,VWS V14.00,2013-10-01 02:58:00,
2013-09-30 20:59:00,45.6,38.2,30.80,SSE,154,0.0,0.0,75,0.00,,,0.12,0.00,VWS V14.00,2013-10-01 02:59:00,
2013-09-30 21:00:00,45.6,38.2,30.79,SSE,154,0.0,0.0,75,0.00,,,0.12,0.00,VWS V14.00,2013-10-01 03:00:00,
2013-09-30 21:01:00,45.6,38.2,30.79,SSE,154,0.0,0.0,75,0.00,,,0.12,0.00,VWS V14.00,2013-10-01 03:01:00,
2013-09-30 21:02:00,45.6,38.2,30.79,SSE,153,0.0,0.0,75,0.00,,,0.12,0.00,VWS V14.00,2013-10-01 03:02:00,
2013-09-30 21:03:00,45.6,38.2,30.80,SSE,154,0.0,0.0,75,0.00,,,0.12,0.00,VWS V14.00,2013-10-01 03:03:00,
2013-09-30 21:04:00,45.7,38.9,30.79,SSE,154,0.0,0.0,77,0.00,,,0.12,0.00,VWS V14.00,2013-10-01 03:04:00,
2013-09-30 21:05:00,45.7,38.9,30.79,SSE,153,0.0,0.0,77,0.00,,,0.12,0.00,VWS V14.00,2013-10-01 03:05:00,
2013-09-30 21:06:00,45.7,38.9,30.79,SSE,154,0.0,0.0,77,0.00,,,0.12,0.00,VWS V14.00,2013-10-01 03:06:00,
2013-09-30 21:07:00,45.6,39.2,30.79,SSE,153,0.0,0.0,78,0.00,,,0.12,0.00,VWS V14.00,2013-10-01 03:07:00,
2013-09-30 21:08:00,45.6,38.2,30.80,SSE,154,0.0,0.0,75,0.00,,,0.12,0.00,VWS V14.00,2013-10-01 03:08:00,
2013-09-30 21:09:00,45.6,39.2,30.79,SSE,154,0.0,0.0,78,0.00,,,0.12,0.00,VWS V14.00,2013-10-01 03:09:00,
2013-09-30 21:10:00,45.6,39.2,30.79,SSE,154,0.0,0.0,78,0.00,,,0.12,0.00,VWS V14.00,2013-10-01 03:10:00,
2013-09-30 21:11:00,45.6,39.2,30.78,SSE,154,0.0,0.0,78,0.00,,,0.12,0.00,VWS V14.00,2013-10-01 03:11:00,
2013-09-30 21:12:00,45.6,39.2,30.78,SSE,153,0.0,0.0,78,0.00,,,0.12,0.00,VWS V14.00,2013-10-01 03:12:00,
2013-09-30 21:13:00,45.6,38.8,30.79,SSE,154,0.0,0.0,77,0.00,,,0.12,0.00,VWS V14.00,2013-10-01 03:13:00,
2013-09-30 21:14:00,45.5,39.0,30.78,SSE,154,0.0,0.0,78,0.00,,,0.12,0.00,VWS V14.00,2013-10-01 03:14:00,
2013-09-30 21:15:00,45.5,39.0,30.78,SSE,154,0.0,0.0,78,0.00,,,0.12,0.00,VWS V14.00,2013-10-01 03:15:00,
2013-09-30 21:16:00,45.5,39.0,30.78,SSE,154,0.0,0.0,78,0.00,,,0.12,0.00,VWS V14.00,2013-10-01 03:16:00,
2013-09-30 21:17:00,45.4,39.3,30.79,SSE,153,0.0,0.0,79,0.00,,,0.12,0.00,VWS V14.00,2013-10-01 03:17:00,
2013-09-30 21:18:00,45.6,39.2,30.79,SSE,153,0.0,0.0,78,0.00,,,0.12,0.00,VWS V14.00,2013-10-01 03:18:00,
2013-09-30 21:19:00,45.4,39.3,30.79,SSE,153,0.0,0.0,79,0.00,,,0.12,0.00,VWS V14.00,2013-10-01 03:19:00,
2013-09-30 21:20:00,45.4,39.3,30.79,SSE,153,0.0,0.0,79,0.00,,,0.12,0.00,VWS V14.00,2013-10-01 03:20:00,
2013-09-30 21:21:00,45.4,39.3,30.79,SSE,154,0.0,0.0,79,0.00,,,0.12,0.00,VWS V14.00,2013-10-01 03:21:00,
2013-09-30 21:22:00,45.4,39.3,30.79,SSE,154,0.0,0.0,79,0.00,,,0.12,0.00,VWS V14.00,2013-10-01 03:22:00,
2013-09-30 21:23:00,45.5,39.0,30.78,SSE,154,0.0,0.0,78,0.00,,,0.12,0.00,VWS V14.00,2013-10-01 03:23:00,
2013-09-30 21:24:00,45.3,39.5,30.79,SSE,154,0.0,0.0,80,0.00,,,0.12,0.00,VWS V14.00,2013-10-01 03:24:00,
2013-09-30 21:25:00,45.3,39.5,30.79,SSE,154,0.0,0.0,80,0.00,,,0.12,0.00,VWS V14.00,2013-10-01 03:25:00,
2013-09-30 21:26:00,45.3,39.5,30.79,SSE,153,0.0,0.0,80,0.00,,,0.12,0.00,VWS V14.00,2013-10-01 03:26:00,
2013-09-30 21:27:00,45.2,39.4,30.79,SSE,153,0.0,0.0,80,0.00,,,0.12,0.00,VWS V14.00,2013-10-01 03:27:00,
2013-09-30 21:28:00,45.4,39.3,30.79,SSE,154,0.0,0.0,79,0.00,,,0.12,0.00,VWS V14.00,2013-10-01 03:28:00,
2013-09-30 21:29:00,45.2,39.4,30.79,SSE,154,0.0,0.0,80,0.00,,,0.12,0.00,VWS V14.00,2013-10-01 03:29:00,
2013-09-30 21:30:00,45.2,39.4,30.79,SSE,154,0.0,0.0,80,0.00,,,0.12,0.00,VWS V14.00,2013-10-01 03:30:00,
2013-09-30 21:31:00,45.1,39.3,30.79,SSE,154,0.0,0.0,80,0.00,,,0.12,0.00,VWS V14.00,2013-10-01 03:31:00,
2013-09-30 21:32:00,45.1,39.3,30.79,SSE,154,0.0,0.0,80,0.00,,,0.12,0.00,VWS V14.00,2013-10-01 03:32:00,
2013-09-30 21:33:00,45.0,39.2,30.79,SSE,153,0.0,0.0,80,0.00,,,0.12,0.00,VWS V14.00,2013-10-01 03:33:00,
2013-09-30 21:34:00,45.3,39.5,30.79,SSE,154,0.0,0.0,80,0.00,,,0.12,0.00,VWS V14.00,2013-10-01 03:34:00,
2013-09-30 21:35:00,45.0,39.2,30.79,SSE,154,0.0,0.0,80,0.00,,,0.12,0.00,VWS V14.00,2013-10-01 03:35:00,
2013-09-30 21:36:00,45.0,39.2,30.79,SSE,153,0.0,0.0,80,0.00,,,0.12,0.00,VWS V14.00,2013-10-01 03:36:00,
2013-09-30 21:37:00,45.0,39.2,30.79,SSE,154,0.0,0.0,80,0.00,,,0.12,0.00,VWS V14.00,2013-10-01 03:37:00,
2013-09-30 21:38:00,45.0,39.5,30.79,SSE,153,0.0,0.0,81,0.00,,,0.12,0.00,VWS V14.00,2013-10-01 03:38:00,
2013-09-30 21:39:00,45.2,39.4,30.79,SSE,154,0.0,0.0,80,0.00,,,0.12,0.00,VWS V14.00,2013-10-01 03:39:00,
2013-09-30 21:40:00,44.9,39.4,30.79,SSE,153,0.0,0.0,81,0.00,,,0.12,0.00,VWS V14.00,2013-10-01 03:40:00,
2013-09-30 21:41:00,44.9,39.4,30.80,SSE,154,0.0,0.0,81,0.00,,,0.12,0.00,VWS V14.00,2013-10-01 03:41:00,
2013-09-30 21:42:00,44.8,39.3,30.80,SSE,153,0.0,0.0,81,0.00,,,0.12,0.00,VWS V14.00,2013-10-01 03:42:00,
2013-09-30 21:43:00,44.8,39.3,30.80,SSE,154,0.0,0.0,81,0.00,,,0.12,0.00,VWS V14.00,2013-10-01 03:43:00,
2013-09-30 21:44:00,45.0,39.2,30.79,SSE,154,0.0,0.0,80,0.00,,,0.12,0.00,VWS V14.00,2013-10-01 03:44:00,
2013-09-30 21:45:00,44.7,39.2,30.80,SSE,153,0.0,0.0,81,0.00,,,0.12,0.00,VWS V14.00,2013-10-01 03:45:00,
2013-09-30 21:46:00,44.6,39.1,30.80,SSE,154,0.0,0.0,81,0.00,,,0.12,0.00,VWS V14.00,2013-10-01 03:46:00,
2013-09-30 21:47:00,44.6,39.1,30.80,SSE,153,0.0,0.0,81,0.00,,,0.12,0.00,VWS V14.00,2013-10-01 03:47:00,
2013-09-30 21:48:00,44.6,39.5,30.80,SSE,153,0.0,0.0,82,0.00,,,0.12,0.00,VWS V14.00,2013-10-01 03:48:00,
2013-09-30 21:49:00,44.9,39.4,30.79,SSE,154,0.0,0.0,81,0.00,,,0.12,0.00,VWS V14.00,2013-10-01 03:49:00,
2013-09-30 21:50:00,44.5,39.4,30.80,SSE,154,0.0,1.0,82,0.00,,,0.12,0.00,VWS V14.00,2013-10-01 03:50:00,
2013-09-30 21:51:00,44.4,39.3,30.80,SSE,154,0.0,1.0,82,0.00,,,0.12,0.00,VWS V14.00,2013-10-01 03:51:00,
2013-09-30 21:52:00,44.4,38.9,30.80,SSE,154,0.0,1.0,81,0.00,,,0.12,0.00,VWS V14.00,2013-10-01 03:52:00,
2013-09-30 21:53:00,44.4,38.9,30.80,SSE,154,0.0,1.0,81,0.00,,,0.12,0.00,VWS V14.00,2013-10-01 03:53:00,
2013-09-30 21:54:00,44.7,39.2,30.80,SSE,153,0.0,0.0,81,0.00,,,0.12,0.00,VWS V14.00,2013-10-01 03:54:00,
2013-09-30 21:55:00,44.3,38.8,30.80,SSE,154,0.0,1.0,81,0.00,,,0.12,0.00,VWS V14.00,2013-10-01 03:55:00,
2013-09-30 21:56:00,44.2,38.8,30.80,SSE,154,0.0,1.0,81,0.00,,,0.12,0.00,VWS V14.00,2013-10-01 03:56:00,
2013-09-30 21:57:00,44.2,38.8,30.80,SSE,154,0.0,1.0,81,0.00,,,0.12,0.00,VWS V14.00,2013-10-01 03:57:00,
2013-09-30 21:58:00,44.2,38.8,30.80,SSE,153,0.0,1.0,81,0.00,,,0.12,0.00,VWS V14.00,2013-10-01 03:58:00,
2013-09-30 21:59:00,44.5,39.4,30.80,SSE,154,0.0,1.0,82,0.00,,,0.12,0.00,VWS V14.00,2013-10-01 03:59:00,
2013-09-30 22:00:00,44.1,38.7,30.79,SSE,153,1.0,1.0,81,0.00,,,0.12,0.00,VWS V14.00,2013-10-01 04:00:00,
2013-09-30 22:01:00,44.1,39.0,30.79,SSE,153,0.0,1.0,82,0.00,,,0.12,0.00,VWS V14.00,2013-10-01 04:01:00,
2013-09-30 22:02:00,44.4,38.9,30.80,SSE,153,0.0,1.0,81,0.00,,,0.12,0.00,VWS V14.00,2013-10-01 04:02:00,
2013-09-30 22:03:00,44.0,38.9,30.79,SSE,154,0.0,1.0,82,0.00,,,0.12,0.00,VWS V14.00,2013-10-01 04:03:00,
2013-09-30 22:04:00,44.0,38.9,30.79,SSE,154,0.0,1.0,82,0.00,,,0.12,0.00,VWS V14.00,2013-10-01 04:04:00,
2013-09-30 22:05:00,43.9,38.8,30.79,SSE,154,0.0,1.0,82,0.00,,,0.12,0.00,VWS V14.00,2013-10-01 04:05:00,
2013-09-30 22:06:00,43.8,38.7,30.79,SSE,154,0.0,1.0,82,0.00,,,0.12,0.00,VWS V14.00,2013-10-01 04:06:00,
2013-09-30 22:07:00,44.2,38.8,30.80,SSE,153,0.0,1.0,81,0.00,,,0.12,0.00,VWS V14.00,2013-10-01 04:07:00,
2013-09-30 22:08:00,43.7,38.6,30.79,ESE,107,0.0,1.0,82,0.00,,,0.12,0.00,VWS V14.00,2013-10-01 04:08:00,
2013-09-30 22:09:00,43.7,38.6,30.79,ESE,108,0.0,1.0,82,0.00,,,0.12,0.00,VWS V14.00,2013-10-01 04:09:00,
2013-09-30 22:10:00,43.7,38.6,30.79,ESE,108,0.0,1.0,82,0.00,,,0.12,0.00,VWS V14.00,2013-10-01 04:10:00,
2013-09-30 22:11:00,43.6,38.5,30.79,ESE,108,0.0,1.0,82,0.00,,,0.12,0.00,VWS V14.00,2013-10-01 04:11:00,
2013-09-30 22:12:00,44.0,38.9,30.79,SSE,154,0.0,1.0,82,0.00,,,0.12,0.00,VWS V14.00,2013-10-01 04:12:00,
2013-09-30 22:13:00,43.6,38.8,30.79,ESE,108,0.0,1.0,83,0.00,,,0.12,0.00,VWS V14.00,2013-10-01 04:13:00,
2013-09-30 22:14:00,43.6,38.8,30.79,ESE,107,0.0,1.0,83,0.00,,,0.12,0.00,VWS V14.00,2013-10-01 04:14:00,
2013-09-30 22:15:00,43.6,38.8,30.79,ESE,107,0.0,0.0,83,0.00,,,0.12,0.00,VWS V14.00,2013-10-01 04:15:00,
2013-09-30 22:16:00,43.6,38.8,30.79,ESE,108,0.0,0.0,83,0.00,,,0.12,0.00,VWS V14.00,2013-10-01 04:16:00,
2013-09-30 22:17:00,43.8,38.7,30.79,ESE,107,0.0,1.0,82,0.00,,,0.12,0.00,VWS V14.00,2013-10-01 04:17:00,
2013-09-30 22:18:00,43.5,38.7,30.79,ESE,108,0.0,0.0,83,0.00,,,0.12,0.00,VWS V14.00,2013-10-01 04:18:00,
2013-09-30 22:19:00,43.5,38.7,30.79,ESE,108,0.0,0.0,83,0.00,,,0.12,0.00,VWS V14.00,2013-10-01 04:19:00,
2013-09-30 22:20:00,43.5,38.7,30.79,ESE,108,0.0,0.0,83,0.00,,,0.12,0.00,VWS V14.00,2013-10-01 04:20:00,
2013-09-30 22:21:00,43.5,38.7,30.79,ESE,108,0.0,0.0,83,0.00,,,0.12,0.00,VWS V14.00,2013-10-01 04:21:00,
2013-09-30 22:22:00,43.6,38.8,30.79,ESE,107,0.0,1.0,83,0.00,,,0.12,0.00,VWS V14.00,2013-10-01 04:22:00,
2013-09-30 22:23:00,43.5,39.0,30.79,ESE,107,0.0,0.0,84,0.00,,,0.12,0.00,VWS V14.00,2013-10-01 04:23:00,
2013-09-30 22:24:00,43.4,38.9,30.79,ESE,107,0.0,0.0,84,0.00,,,0.12,0.00,VWS V14.00,2013-10-01 04:24:00,
2013-09-30 22:25:00,43.4,38.9,30.79,ESE,108,0.0,0.0,84,0.00,,,0.12,0.00,VWS V14.00,2013-10-01 04:25:00,
2013-09-30 22:26:00,43.4,38.9,30.79,ESE,108,0.0,0.0,84,0.00,,,0.12,0.00,VWS V14.00,2013-10-01 04:26:00,
2013-09-30 22:27:00,43.5,38.7,30.79,ESE,108,0.0,0.0,83,0.00,,,0.12,0.00,VWS V14.00,2013-10-01 04:27:00,
2013-09-30 22:28:00,43.4,38.6,30.80,ESE,108,0.0,0.0,83,0.00,,,0.12,0.00,VWS V14.00,2013-10-01 04:28:00,
2013-09-30 22:29:00,43.4,38.9,30.80,ESE,107,0.0,0.0,84,0.00,,,0.12,0.00,VWS V14.00,2013-10-01 04:29:00,
2013-09-30 22:30:00,43.4,38.9,30.80,ESE,108,0.0,0.0,84,0.00,,,0.12,0.00,VWS V14.00,2013-10-01 04:30:00,
2013-09-30 22:31:00,43.4,38.9,30.80,ESE,108,0.0,0.0,84,0.00,,,0.12,0.00,VWS V14.00,2013-10-01 04:31:00,
2013-09-30 22:32:00,43.5,38.7,30.79,ESE,108,0.0,0.0,83,0.00,,,0.12,0.00,VWS V14.00,2013-10-01 04:32:00,
2013-09-30 22:33:00,43.3,38.8,30.80,ESE,108,0.0,1.0,84,0.00,,,0.12,0.00,VWS V14.00,2013-10-01 04:33:00,
2013-09-30 22:34:00,43.4,38.9,30.80,ESE,107,0.0,1.0,84,0.00,,,0.12,0.00,VWS V14.00,2013-10-01 04:34:00,
2013-09-30 22:35:00,43.4,38.9,30.80,ESE,107,0.0,1.0,84,0.00,,,0.12,0.00,VWS V14.00,2013-10-01 04:35:00,
2013-09-30 22:36:00,43.4,38.9,30.80,ESE,108,0.0,1.0,84,0.00,,,0.12,0.00,VWS V14.00,2013-10-01 04:36:00,
2013-09-30 22:37:00,43.4,38.6,30.80,ESE,108,0.0,0.0,83,0.00,,,0.12,0.00,VWS V14.00,2013-10-01 04:37:00,
2013-09-30 22:38:00,43.3,38.8,30.80,ESE,108,0.0,1.0,84,0.00,,,0.12,0.00,VWS V14.00,2013-10-01 04:38:00,
2013-09-30 22:39:00,43.4,38.9,30.79,ESE,107,0.0,1.0,84,0.00,,,0.12,0.00,VWS V14.00,2013-10-01 04:39:00,
2013-09-30 22:40:00,43.4,38.9,30.79,ESE,108,0.0,1.0,84,0.00,,,0.12,0.00,VWS V14.00,2013-10-01 04:40:00,
2013-09-30 22:41:00,43.4,38.9,30.80,ESE,107,0.0,1.0,84,0.00,,,0.12,0.00,VWS V14.00,2013-10-01 04:41:00,
2013-09-30 22:42:00,43.3,38.8,30.80,ESE,108,0.0,1.0,84,0.00,,,0.12,0.00,VWS V14.00,2013-10-01 04:42:00,
2013-09-30 22:43:00,43.4,38.9,30.80,ESE,108,0.0,1.0,84,0.00,,,0.12,0.00,VWS V14.00,2013-10-01 04:43:00,
2013-09-30 22:44:00,43.4,38.9,30.80,ESE,108,0.0,1.0,84,0.00,,,0.12,0.00,VWS V14.00,2013-10-01 04:44:00,
2013-09-30 22:45:00,43.4,38.9,30.80,ESE,108,0.0,0.0,84,0.00,,,0.12,0.00,VWS V14.00,2013-10-01 04:45:00,
2013-09-30 22:46:00,43.4,38.9,30.80,ESE,107,0.0,0.0,84,0.00,,,0.12,0.00,VWS V14.00,2013-10-01 04:46:00,
2013-09-30 22:47:00,43.4,38.9,30.80,ESE,108,0.0,1.0,84,0.00,,,0.12,0.00,VWS V14.00,2013-10-01 04:47:00,
2013-09-30 22:48:00,43.4,38.9,30.80,ESE,108,0.0,0.0,84,0.00,,,0.12,0.00,VWS V14.00,2013-10-01 04:48:00,
2013-09-30 22:49:00,43.4,38.6,30.80,ESE,107,0.0,0.0,83,0.00,,,0.12,0.00,VWS V14.00,2013-10-01 04:49:00,
2013-09-30 22:50:00,43.4,38.9,30.80,ESE,108,0.0,0.0,84,0.00,,,0.12,0.00,VWS V14.00,2013-10-01 04:50:00,
2013-09-30 22:51:00,43.4,38.9,30.80,ESE,108,0.0,0.0,84,0.00,,,0.12,0.00,VWS V14.00,2013-10-01 04:51:00,
2013-09-30 22:52:00,43.4,38.9,30.80,ESE,107,0.0,1.0,84,0.00,,,0.12,0.00,VWS V14.00,2013-10-01 04:52:00,
2013-09-30 22:53:00,43.3,38.8,30.80,ESE,107,0.0,0.0,84,0.00,,,0.12,0.00,VWS V14.00,2013-10-01 04:53:00,
2013-09-30 22:54:00,43.4,38.9,30.80,ESE,108,0.0,0.0,84,0.00,,,0.12,0.00,VWS V14.00,2013-10-01 04:54:00,
2013-09-30 22:55:00,43.3,38.8,30.81,ESE,108,0.0,0.0,84,0.00,,,0.12,0.00,VWS V14.00,2013-10-01 04:55:00,
2013-09-30 22:56:00,43.3,38.8,30.81,ESE,107,0.0,0.0,84,0.00,,,0.12,0.00,VWS V14.00,2013-10-01 04:56:00,
2013-09-30 22:57:00,43.4,38.9,30.80,ESE,108,0.0,0.0,84,0.00,,,0.12,0.00,VWS V14.00,2013-10-01 04:57:00,
2013-09-30 22:58:00,43.3,38.8,30.81,ESE,107,0.0,0.0,84,0.00,,,0.12,0.00,VWS V14.00,2013-10-01 04:58:00,
2013-09-30 22:59:00,43.3,38.8,30.80,ESE,108,0.0,0.0,84,0.00,,,0.12,0.00,VWS V14.00,2013-10-01 04:59:00,
2013-09-30 23:00:00,43.3,38.8,30.80,ESE,108,0.0,0.0,84,0.00,,,0.12,0.00,VWS V14.00,2013-10-01 05:00:00,
2013-09-30 23:01:00,43.3,38.8,30.80,ESE,107,0.0,0.0,84,0.00,,,0.12,0.00,VWS V14.00,2013-10-01 05:01:00,
2013-09-30 23:02:00,43.3,38.8,30.80,ESE,107,0.0,0.0,84,0.00,,,0.12,0.00,VWS V14.00,2013-10-01 05:02:00,
2013-09-30 23:03:00,43.3,38.8,30.81,ESE,107,0.0,0.0,84,0.00,,,0.12,0.00,VWS V14.00,2013-10-01 05:03:00,
2013-09-30 23:04:00,43.3,38.8,30.80,ESE,108,0.0,0.0,84,0.00,,,0.12,0.00,VWS V14.00,2013-10-01 05:04:00,
2013-09-30 23:05:00,43.2,38.4,30.80,ESE,108,0.0,0.0,83,0.00,,,0.12,0.00,VWS V14.00,2013-10-01 05:05:00,
2013-09-30 23:06:00,43.2,38.4,30.81,ESE,108,0.0,0.0,83,0.00,,,0.12,0.00,VWS V14.00,2013-10-01 05:06:00,
2013-09-30 23:07:00,43.3,38.8,30.81,ESE,107,0.0,0.0,84,0.00,,,0.12,0.00,VWS V14.00,2013-10-01 05:07:00,
2013-09-30 23:08:00,43.2,38.4,30.80,ESE,107,0.0,0.0,83,0.00,,,0.12,0.00,VWS V14.00,2013-10-01 05:08:00,
2013-09-30 23:09:00,43.2,38.4,30.80,ESE,108,0.0,0.0,83,0.00,,,0.12,0.00,VWS V14.00,2013-10-01 05:09:00,
2013-09-30 23:10:00,43.2,38.4,30.80,ESE,108,0.0,0.0,83,0.00,,,0.12,0.00,VWS V14.00,2013-10-01 05:10:00,
2013-09-30 23:11:00,43.2,38.4,30.80,ESE,107,0.0,0.0,83,0.00,,,0.12,0.00,VWS V14.00,2013-10-01 05:11:00,
2013-09-30 23:12:00,43.3,38.8,30.81,ESE,108,0.0,0.0,84,0.00,,,0.12,0.00,VWS V14.00,2013-10-01 05:12:00,
2013-09-30 23:13:00,43.1,38.6,30.80,ESE,108,0.0,0.0,84,0.00,,,0.12,0.00,VWS V14.00,2013-10-01 05:13:00,
2013-09-30 23:14:00,43.1,38.6,30.80,ESE,107,0.0,0.0,84,0.00,,,0.12,0.00,VWS V14.00,2013-10-01 05:14:00,
2013-09-30 23:15:00,43.1,38.6,30.80,ESE,108,0.0,0.0,84,0.00,,,0.12,0.00,VWS V14.00,2013-10-01 05:15:00,
2013-09-30 23:16:00,43.1,38.6,30.80,ESE,107,0.0,0.0,84,0.00,,,0.12,0.00,VWS V14.00,2013-10-01 05:16:00,
2013-09-30 23:17:00,43.2,38.4,30.80,ESE,108,0.0,0.0,83,0.00,,,0.12,0.00,VWS V14.00,2013-10-01 05:17:00,
2013-09-30 23:18:00,43.1,38.6,30.80,ESE,108,0.0,0.0,84,0.00,,,0.12,0.00,VWS V14.00,2013-10-01 05:18:00,
2013-09-30 23:19:00,43.0,38.5,30.80,ESE,108,0.0,0.0,84,0.00,,,0.12,0.00,VWS V14.00,2013-10-01 05:19:00,
2013-09-30 23:20:00,43.0,38.5,30.80,ESE,108,0.0,0.0,84,0.00,,,0.12,0.00,VWS V14.00,2013-10-01 05:20:00,
2013-09-30 23:21:00,43.0,38.5,30.80,ESE,107,0.0,0.0,84,0.00,,,0.12,0.00,VWS V14.00,2013-10-01 05:21:00,
2013-09-30 23:22:00,43.1,38.6,30.80,ESE,108,0.0,0.0,84,0.00,,,0.12,0.00,VWS V14.00,2013-10-01 05:22:00,
2013-09-30 23:23:00,43.0,38.5,30.81,ESE,107,0.0,0.0,84,0.00,,,0.12,0.00,VWS V14.00,2013-10-01 05:23:00,
2013-09-30 23:24:00,43.0,38.5,30.80,ESE,108,0.0,0.0,84,0.00,,,0.12,0.00,VWS V14.00,2013-10-01 05:24:00,
2013-09-30 23:25:00,42.9,38.4,30.81,ESE,108,0.0,0.0,84,0.00,,,0.12,0.00,VWS V14.00,2013-10-01 05:25:00,
2013-09-30 23:26:00,42.9,38.4,30.80,ESE,108,0.0,0.0,84,0.00,,,0.12,0.00,VWS V14.00,2013-10-01 05:26:00,
2013-09-30 23:27:00,43.1,38.6,30.80,ESE,108,0.0,0.0,84,0.00,,,0.12,0.00,VWS V14.00,2013-10-01 05:27:00,
2013-09-30 23:28:00,42.8,38.3,30.80,ESE,107,0.0,0.0,84,0.00,,,0.12,0.00,VWS V14.00,2013-10-01 05:28:00,
2013-09-30 23:29:00,42.8,38.3,30.80,ESE,107,0.0,0.0,84,0.00,,,0.12,0.00,VWS V14.00,2013-10-01 05:29:00,
2013-09-30 23:30:00,42.8,38.3,30.80,ESE,108,0.0,0.0,84,0.00,,,0.12,0.00,VWS V14.00,2013-10-01 05:30:00,
2013-09-30 23:31:00,42.7,38.2,30.80,ESE,108,0.0,0.0,84,0.00,,,0.12,0.00,VWS V14.00,2013-10-01 05:31:00,
2013-09-30 23:32:00,43.0,38.5,30.81,ESE,108,0.0,0.0,84,0.00,,,0.12,0.00,VWS V14.00,2013-10-01 05:32:00,
2013-09-30 23:33:00,42.7,38.2,30.80,ESE,108,0.0,0.0,84,0.00,,,0.12,0.00,VWS V14.00,2013-10-01 05:33:00,
2013-09-30 23:34:00,42.7,38.2,30.80,ESE,108,0.0,0.0,84,0.00,,,0.12,0.00,VWS V14.00,2013-10-01 05:34:00,
2013-09-30 23:35:00,42.6,38.1,30.80,ESE,107,0.0,0.0,84,0.00,,,0.12,0.00,VWS V14.00,2013-10-01 05:35:00,
2013-09-30 23:36:00,42.6,38.1,30.80,ESE,108,0.0,0.0,84,0.00,,,0.12,0.00,VWS V14.00,2013-10-01 05:36:00,
2013-09-30 23:37:00,42.5,38.0,30.80,ESE,108,0.0,0.0,84,0.00,,,0.12,0.00,VWS V14.00,2013-10-01 05:37:00,
2013-09-30 23:38:00,42.8,38.3,30.80,ESE,107,0.0,0.0,84,0.00,,,0.12,0.00,VWS V14.00,2013-10-01 05:38:00,
2013-09-30 23:39:00,42.5,37.7,30.79,ESE,108,0.0,0.0,83,0.00,,,0.12,0.00,VWS V14.00,2013-10-01 05:39:00,
2013-09-30 23:40:00,42.4,37.6,30.79,ESE,108,0.0,0.0,83,0.00,,,0.12,0.00,VWS V14.00,2013-10-01 05:40:00,
2013-09-30 23:41:00,42.4,37.6,30.79,ESE,108,0.0,0.0,83,0.00,,,0.12,0.00,VWS V14.00,2013-10-01 05:41:00,
2013-09-30 23:42:00,42.4,37.6,30.80,ESE,108,0.0,0.0,83,0.00,,,0.12,0.00,VWS V14.00,2013-10-01 05:42:00,
2013-09-30 23:43:00,42.6,38.1,30.80,ESE,108,0.0,0.0,84,0.00,,,0.12,0.00,VWS V14.00,2013-10-01 05:43:00,
2013-09-30 23:44:00,42.3,37.5,30.80,ESE,107,0.0,2.0,83,0.00,,,0.12,0.00,VWS V14.00,2013-10-01 05:44:00,
2013-09-30 23:45:00,42.2,37.4,30.79,ESE,108,0.0,0.0,83,0.00,,,0.12,0.00,VWS V14.00,2013-10-01 05:45:00,
2013-09-30 23:46:00,42.2,37.4,30.79,ESE,108,0.0,0.0,83,0.00,,,0.12,0.00,VWS V14.00,2013-10-01 05:46:00,
2013-09-30 23:47:00,42.2,37.4,30.79,ESE,108,0.0,0.0,83,0.00,,,0.12,0.00,VWS V14.00,2013-10-01 05:47:00,
2013-09-30 23:48:00,42.5,37.7,30.80,ESE,108,0.0,0.0,83,0.00,,,0.12,0.00,VWS V14.00,2013-10-01 05:48:00,
2013-09-30 23:49:00,42.1,37.0,30.80,ESE,107,0.0,1.0,82,0.00,,,0.12,0.00,VWS V14.00,2013-10-01 05:49:00,
2013-09-30 23:50:00,42.0,36.9,30.79,ESE,107,0.0,2.0,82,0.00,,,0.12,0.00,VWS V14.00,2013-10-01 05:50:00,
2013-09-30 23:51:00,42.0,36.9,30.79,ESE,107,0.0,2.0,82,0.00,,,0.12,0.00,VWS V14.00,2013-10-01 05:51:00,
2013-09-30 23:52:00,41.9,36.8,30.79,ESE,108,0.0,2.0,82,0.00,,,0.12,0.00,VWS V14.00,2013-10-01 05:52:00,
2013-09-30 23:53:00,42.3,37.5,30.80,ESE,108,0.0,2.0,83,0.00,,,0.12,0.00,VWS V14.00,2013-10-01 05:53:00,
2013-09-30 23:54:00,41.8,36.7,30.79,ESE,108,0.0,2.0,82,0.00,,,0.12,0.00,VWS V14.00,2013-10-01 05:54:00,
2013-09-30 23:55:00,41.8,36.7,30.79,ESE,108,0.0,2.0,82,0.00,,,0.12,0.00,VWS V14.00,2013-10-01 05:55:00,
2013-09-30 23:56:00,41.7,36.6,30.79,ESE,108,0.0,2.0,82,0.00,,,0.12,0.00,VWS V14.00,2013-10-01 05:56:00,
2013-09-30 23:57:00,41.7,36.6,30.79,ESE,107,0.0,2.0,82,0.00,,,0.12,0.00,VWS V14.00,2013-10-01 05:57:00,
2013-09-30 23:58:00,42.1,37.0,30.80,ESE,107,0.0,1.0,82,0.00,,,0.12,0.00,VWS V14.00,2013-10-01 05:58:00,
2013-09-30 23:59:00,41.6,36.5,30.79,ESE,108,0.0,2.0,82,0.00,,,0.12,0.00,VWS V14.00,2013-10-01 05:59:00,